[[[{"header":{"parameterUnit":"kt","parameterCategory":2,"dx":1,"dy":1,"la1":29.587661999999998,"la2":31.0,"lo1":-88.76705300000003,"lo2":-86.6583820000003,"nx":115,"ny":88,"refTime":"2022-10-24T12:00:00:Z","depth":0,"parameterNumber":1,"parameterNumberName":"U-component_of_WINDS"},"data":[1.1146,1.1184,1.19,1.2013,1.1737,1.2013,1.2208,1.2163,1.1781,1.1856,1.2013,1.1818,1.1863,1.2345,1.2849,1.351,1.4237,1.4978,1.4751,1.4814,1.6499,1.6933,1.7273,1.7799,1.8793,1.8994,1.902,1.9407,2.0262,2.0072,1.9778,1.9891,2.0943,2.1052,2.1246,2.1518,2.2114,2.2395,2.2938,2.3484,2.3819,2.4221,2.4584,2.4862,2.4903,2.5027,2.5151,2.5264,2.54,2.5441,2.5676,2.6377,2.7116,2.7961,2.8667,2.9275,2.9893,3.1097,3.2015,3.2229,3.3474,3.5659,3.6049,3.6286,3.6635,3.7481,3.777,3.7809,3.754,3.754,3.8403,3.8403,3.8479,3.8803,3.9031,3.941,3.9675,4.0317,4.0804,4.0804,4.0972,4.1308,4.1345,4.1233,4.056,4.0917,4.2535,4.3123,4.338,4.3964,4.4602,4.4729,4.4805,4.4902,4.5278,4.5581,4.5666,4.6091,4.6499,4.7003,4.7407,4.7806,4.8146,4.8553,4.8383,4.8044,4.8061,4.8295,4.855,4.8893,4.9124,4.9357,4.9889,5.0122,4.9867,1.2019,1.2057,1.2201,1.2201,1.2163,1.2208,1.2208,1.2201,1.2163,1.2163,1.2352,1.2358,1.2328,1.3205,1.4359,1.5161,1.5992,1.6844,1.7823,1.8223,1.8663,1.8875,1.9044,1.9372,1.9779,2.0137,2.0675,2.1486,2.2238,2.2149,2.2127,2.2481,2.2393,2.2136,2.2049,2.2085,2.2089,2.2499,2.3155,2.3518,2.4073,2.4414,2.4862,2.5317,2.5689,2.6278,2.6772,2.7264,2.7947,2.7906,2.7729,2.8341,2.9073,2.9814,3.0525,3.1352,3.196,3.2928,3.3813,3.4284,3.5491,3.6575,3.7056,3.7288,3.7232,3.7732,3.823,3.8192,3.7827,3.8133,3.9448,4.0072,4.0222,4.041,4.0598,4.0879,4.0954,4.1161,4.129,4.1328,4.196,4.2809,4.3103,4.3526,4.327,4.2976,4.3474,4.4037,4.4472,4.4638,4.5087,4.5369,4.5687,4.6388,4.702,4.7105,4.6956,4.7258,4.7449,4.798,4.8486,4.8699,4.9017,4.9379,4.9445,4.9211,4.9209,4.9081,4.9485,4.987,4.9931,4.991,5.0337,5.0337,5.0337,1.2208,1.2208,1.2208,1.2208,1.2208,1.2208,1.2208,1.2208,1.2208,1.2727,1.356,1.4691,1.5202,1.5353,1.6697,1.7453,1.7438,1.8754,1.9434,1.9836,1.9972,2.0561,2.1369,2.1955,2.1819,2.231,2.2995,2.3189,2.3716,2.3816,2.3483,2.3353,2.2666,2.2319,2.2321,2.2158,2.2078,2.2056,2.312,2.4706,2.6712,2.6839,2.6844,2.687,2.7333,2.7538,2.796,2.8124,2.8599,2.8599,2.8803,2.9493,3.081,3.1782,3.2817,3.3632,3.4301,3.5123,3.5786,3.623,3.6614,3.7039,3.7424,3.7442,3.7501,3.7827,3.8325,3.9145,3.8783,3.9297,4.0617,4.1029,4.1159,4.1345,4.1531,4.1923,4.2145,4.2461,4.2735,4.2772,4.314,4.3855,4.3964,4.4348,4.4339,4.4011,4.4079,4.4566,4.4638,4.4747,4.5512,4.6107,4.6643,4.736,4.7913,4.804,4.8104,4.8253,4.8359,4.8869,4.9318,4.9591,4.9761,4.9889,4.9976,4.9976,4.9997,4.9891,5.0167,5.0273,5.0315,5.0337,5.0337,5.0337,5.0337,1.2584,1.2283,1.2208,1.2208,1.2208,1.2208,1.2208,1.2283,1.2953,1.4183,1.5413,1.6818,1.7413,1.7387,1.874,1.9388,1.9464,2.0595,2.0564,2.1316,2.1997,2.2635,2.2896,2.3563,2.4228,2.4696,2.4696,2.4437,2.4426,2.4098,2.3828,2.3401,2.2886,2.223,2.2162,2.2973,2.2974,2.3135,2.4454,2.6492,2.7749,2.8261,2.864,2.8559,2.8951,2.9006,2.9209,2.9371,2.9574,2.9614,2.9695,3.0664,3.2266,3.3956,3.5347,3.6433,3.6786,3.6884,3.7175,3.7155,3.7232,3.7424,3.7501,3.7501,3.7693,3.798,3.8592,3.9619,4.0373,4.1048,4.1645,4.17,4.1811,4.2034,4.2256,4.2772,4.3307,4.3855,4.4493,4.4566,4.4566,4.4638,4.4638,4.4753,4.4817,4.4923,4.5008,4.5178,4.5326,4.5751,4.6643,4.7318,4.7849,4.8065,4.8426,4.8741,4.9039,4.9209,4.9251,4.9636,5.0167,5.0165,5.0059,5.0292,5.0337,5.0252,5.023,5.0315,5.0315,5.0315,5.0337,5.0337,5.0337,5.0337,5.0337,1.3546,1.2283,1.2208,1.2283,1.2245,1.2427,1.2471,1.254,1.5293,1.6849,1.7329,1.7736,1.8411,1.9297,2.0647,2.1372,2.1702,2.27,2.3291,2.4228,2.4062,2.402,2.4156,2.4572,2.4654,2.4696,2.4737,2.482,2.4596,2.4518,2.3958,2.2511,2.2561,2.2717,2.2771,2.3634,2.4573,2.5118,2.6714,2.8044,2.8361,2.8474,2.8599,2.8965,2.9695,3.0382,3.0664,3.1266,3.2177,3.2441,3.272,3.3117,3.4083,3.5184,3.6243,3.7151,3.7365,3.7578,3.775,3.7809,3.7732,3.7809,3.754,3.7924,3.8803,3.941,4.0524,4.1534,4.1571,4.2128,4.2829,4.2993,4.314,4.3343,4.3469,4.3745,4.4037,4.4291,4.4747,4.4747,4.4789,4.4902,4.488,4.4747,4.4774,4.5714,4.6075,4.6409,4.6727,4.7258,4.7959,4.8635,4.889,4.902,4.9275,4.9466,4.9827,4.9997,5.0061,5.0337,5.0315,5.0337,5.0337,5.0337,5.0337,5.0337,5.0337,5.0337,5.0337,5.0337,5.0337,5.0337,5.0337,5.0337,5.0337,1.4212,1.3546,1.2652,1.2803,1.3733,1.4652,1.5062,1.5471,1.7353,1.8634,1.9244,2.0337,2.116,2.1583,2.2637,2.3257,2.3197,2.4214,2.4696,2.4696,2.456,2.4696,2.4696,2.4654,2.4767,2.4696,2.4779,2.5317,2.5755,2.5602,2.5261,2.4355,2.4117,2.4151,2.4468,2.5293,2.6509,2.7871,2.8984,2.9922,3.0333,3.0549,3.0695,3.1028,3.1347,3.1682,3.1802,3.2002,3.2735,3.3292,3.349,3.4202,3.5475,3.5866,3.6705,3.746,3.7693,3.8018,3.8516,3.8592,3.9069,3.9505,3.9845,3.9732,4.0392,4.1178,4.2276,4.2997,4.2997,4.3087,4.3782,4.4421,4.453,4.4674,4.4711,4.4747,4.4747,4.4747,4.4747,4.4747,4.488,4.5072,4.5093,4.4817,4.5093,4.6345,4.7152,4.7407,4.781,4.8426,4.9124,4.9485,4.9636,4.9763,4.9976,5.0124,5.0167,5.0209,5.0337,5.0337,5.0337,5.0337,5.0337,5.0337,5.0337,5.0337,5.0337,5.0337,5.0337,5.0337,5.0337,5.0337,5.0337,5.0337,5.0337,1.5657,1.5136,1.4017,1.4212,1.5434,1.6909,1.7869,1.8378,1.9554,2.0422,2.103,2.2665,2.3139,2.3612,2.4344,2.4309,2.4344,2.4473,2.4649,2.4696,2.4696,2.4696,2.4862,2.5151,2.5264,2.54,2.58,2.6487,2.7031,2.7005,2.6653,2.6055,2.5368,2.5478,2.6189,2.7465,2.8962,3.018,3.0767,3.1403,3.1811,3.1741,3.1872,3.2,3.2242,3.2242,3.2297,3.2401,3.2656,3.3332,3.3609,3.4359,3.5983,3.6588,3.7208,3.7921,3.8516,3.8841,3.96,3.9827,4.0128,4.0767,4.1811,4.1997,4.2625,4.3286,4.3964,4.4021,4.3912,4.3891,4.4385,4.4566,4.4638,4.4711,4.4711,4.4747,4.4747,4.4747,4.4747,4.4817,4.5247,4.5544,4.6345,4.6133,4.634,4.7403,4.8104,4.8277,4.8681,4.9424,5.0037,5.008,5.0146,5.0082,5.0294,5.0337,5.0337,5.0337,5.0337,5.0337,5.0337,5.0337,5.0337,5.0337,5.0337,5.0337,5.0337,5.0337,5.0337,5.0337,5.0337,5.0337,5.0337,5.0337,5.0337,1.8174,1.6955,1.6807,1.6696,1.7103,1.8505,1.9997,2.1343,2.1915,2.2415,2.2953,2.3458,2.3999,2.4496,2.4626,2.4637,2.4637,2.4649,2.4779,2.482,2.5027,2.5098,2.54,2.606,2.643,2.6964,2.7456,2.7811,2.8409,2.8167,2.7443,2.6683,2.6789,2.6859,2.7731,2.9126,3.0875,3.131,3.1694,3.1794,3.2142,3.2234,3.2265,3.2419,3.2441,3.2441,3.2441,3.2561,3.2696,3.3236,3.3688,3.4422,3.5581,3.7039,3.821,3.9315,4.0354,4.0673,4.1066,4.1104,4.1402,4.1997,4.3307,4.4182,4.4472,4.4327,4.4566,4.453,4.4493,4.4638,4.4747,4.4747,4.4747,4.4747,4.4747,4.4747,4.4747,4.488,4.488,4.5178,4.565,4.6393,4.7216,4.7598,4.7658,4.8685,4.9409,4.9483,4.9586,5.0374,5.0294,5.0377,5.0377,5.0377,5.0337,5.0337,5.0337,5.0337,5.0337,5.0337,5.0337,5.0337,5.0337,5.0337,5.0337,5.0337,5.0337,5.0337,5.0377,5.0337,5.0337,5.0337,5.0337,5.0337,5.0337,1.8946,1.8358,1.7353,1.7473,1.8615,2.0107,2.1018,2.1558,2.2111,2.2663,2.3167,2.3682,2.4227,2.4579,2.4696,2.4696,2.4696,2.4726,2.485,2.5907,2.5961,2.6389,2.6964,2.7715,2.7865,2.7988,2.8477,2.9168,2.9774,2.9204,2.9077,2.912,2.9262,2.9014,2.9702,3.0398,3.1757,3.1881,3.1928,3.1834,3.2005,3.2035,3.2119,3.2413,3.2441,3.2441,3.2441,3.272,3.3236,3.4798,3.5837,3.679,3.8403,3.96,4.0166,4.0429,4.1104,4.1551,4.2145,4.235,4.2719,4.3176,4.4073,4.4674,4.4747,4.4853,4.4832,4.4768,4.4711,4.4711,4.4732,4.4747,4.4747,4.4747,4.4747,4.4747,4.4874,4.5496,4.5645,4.6,4.651,4.7407,4.8274,4.8586,4.9113,4.9968,5.0805,5.054,5.0431,5.0437,5.0337,5.0377,5.0418,5.0377,5.0337,5.0337,5.0337,5.0337,5.0337,5.0337,5.0337,5.0337,5.0337,5.0337,5.0337,5.0337,5.0337,5.0418,5.0499,5.0499,5.0621,5.0621,5.0377,5.0337,5.0337,2.0045,1.9935,1.8936,1.9082,2.007,2.1127,2.1716,2.1879,2.2242,2.273,2.339,2.3928,2.4537,2.5167,2.5441,2.573,2.6006,2.6047,2.6171,2.7223,2.7264,2.7919,2.845,2.8803,2.9209,2.933,2.9816,3.0583,3.1131,3.0845,3.1162,3.1201,3.0719,3.1377,3.202,3.2286,3.227,3.2199,3.2179,3.2174,3.2611,3.2504,3.2575,3.2943,3.2601,3.2441,3.2441,3.2441,3.3561,3.543,3.5842,3.7371,3.9543,4.0766,4.1345,4.1757,4.2404,4.2772,4.3233,4.3584,4.4006,4.4312,4.4711,4.4711,4.4874,4.5065,4.4987,4.488,4.5193,4.515,4.4817,4.4768,4.4834,4.4834,4.5014,4.4978,4.5371,4.5961,4.682,4.7227,4.8155,4.93,4.966,4.9946,5.0862,5.1753,5.2824,5.2732,5.2362,5.1945,5.1266,5.1226,5.0964,5.0702,5.0337,5.0337,5.0337,5.0499,5.054,5.0762,5.0581,5.0337,5.0418,5.06,5.0499,5.0337,5.0337,5.0377,5.054,5.1005,5.1489,5.161,5.1287,5.1005,5.0883,2.149,2.161,2.1454,2.149,2.1732,2.1695,2.1952,2.2427,2.2768,2.3469,2.4519,2.48,2.5664,2.6472,2.6649,2.7129,2.7811,2.8097,2.8382,2.8518,2.8599,2.8721,2.929,2.9938,3.0543,3.0879,3.1482,3.2042,3.2401,3.2406,3.2167,3.2044,3.2182,3.251,3.3671,3.383,3.3775,3.3877,3.4386,3.4517,3.4606,3.431,3.4147,3.4169,3.3775,3.3617,3.3696,3.3696,3.4883,3.6544,3.693,3.833,4.0465,4.1566,4.2273,4.2903,4.3891,4.44,4.4617,4.4674,4.4638,4.4711,4.4747,4.4747,4.498,4.5639,4.6101,4.5241,4.5782,4.5788,4.5299,4.4862,4.4999,4.5158,4.5517,4.5725,4.6238,4.6819,4.8165,4.905,5.0301,5.1419,5.1372,5.1605,5.2683,5.3811,5.4846,5.5063,5.4676,5.4052,5.3155,5.2838,5.2366,5.1949,5.1328,5.0864,5.0702,5.0662,5.1045,5.1785,5.1865,5.2043,5.1625,5.0822,5.1064,5.1588,5.1126,5.054,5.1247,5.1949,5.2388,5.2446,5.2167,5.1887,5.1887,2.161,2.161,2.161,2.2491,2.386,2.3335,2.3175,2.3558,2.4914,2.6354,2.7557,2.7453,2.7702,2.7878,2.8042,2.8436,2.8843,2.9006,2.933,2.9762,3.0206,3.0503,3.1161,3.1682,3.1947,3.2122,3.2895,3.3411,3.345,3.3949,3.3919,3.3828,3.3994,3.4128,3.4618,3.4192,3.387,3.407,3.4678,3.5206,3.6139,3.6224,3.6346,3.623,3.5958,3.5803,3.5937,3.6014,3.7119,3.8424,3.9543,4.0764,4.2216,4.3396,4.3855,4.4146,4.4472,4.4674,4.4711,4.4747,4.4747,4.4747,4.4747,4.4711,4.5044,4.5867,4.6468,4.5815,4.6287,4.642,4.5878,4.6144,4.6354,4.662,4.694,4.7349,4.78,4.8705,4.9929,5.1153,5.256,5.3959,5.3882,5.3943,5.5132,5.651,5.7239,5.7315,5.6862,5.6001,5.5117,5.4543,5.3981,5.3177,5.2446,5.2464,5.2464,5.2503,5.3149,5.3599,5.3929,5.4777,5.4699,5.3166,5.2521,5.2759,5.2605,5.2189,5.2468,5.3002,5.2962,5.3081,5.2804,5.2645,5.2764,2.3746,2.3733,2.3746,2.4567,2.5836,2.5284,2.5349,2.6001,2.7258,2.8626,2.9826,2.9682,2.9814,3.0192,3.0327,3.0528,3.1011,3.1011,3.1587,3.2067,3.2266,3.2704,3.3022,3.3435,3.3395,3.3569,3.3925,3.4281,3.4304,3.4596,3.5045,3.5804,3.6362,3.6329,3.6342,3.629,3.6083,3.6203,3.6666,3.719,3.7894,3.8166,3.8157,3.8157,3.8081,3.8099,3.8308,3.8365,3.9524,4.0634,4.1231,4.2437,4.3834,4.4255,4.453,4.4638,4.4638,4.4747,4.4747,4.4747,4.4747,4.4747,4.4732,4.4865,4.5374,4.6362,4.6765,4.7243,4.7782,4.8496,4.7864,4.804,4.8364,4.8575,4.8937,4.9415,5.0181,5.1286,5.2505,5.3729,5.5077,5.6182,5.6253,5.6253,5.7616,5.8944,5.9374,5.9546,5.8759,5.799,5.7253,5.6672,5.5771,5.4924,5.4536,5.4342,5.4209,5.4862,5.5547,5.547,5.5393,5.64,5.6538,5.5301,5.4303,5.3644,5.3375,5.3555,5.4105,5.4823,5.4706,5.4043,5.3572,5.3335,5.3318,2.7376,2.757,2.7466,2.7431,2.7496,2.745,2.8111,2.8895,2.9441,3.0432,3.1332,3.1522,3.2269,3.2832,3.2967,3.3498,3.4697,3.4933,3.454,3.4579,3.4972,3.4618,3.4579,3.4658,3.4776,3.4792,3.4795,3.4851,3.5068,3.5446,3.6154,3.6665,3.8222,3.8595,3.8556,3.8405,3.8353,3.8447,3.9033,3.9675,4.0052,3.9995,3.977,3.9675,3.9354,3.9051,3.9108,3.9524,4.0484,4.1974,4.2269,4.3192,4.4291,4.4638,4.4711,4.4747,4.4747,4.4747,4.4747,4.4747,4.4747,4.4747,4.4774,4.5014,4.5793,4.6999,4.7846,4.8221,5.0022,5.0659,5.0615,5.0639,5.0945,5.1275,5.172,5.2152,5.2904,5.4047,5.5156,5.636,5.7279,5.8042,5.8263,5.8338,5.9461,6.0302,6.0763,6.0835,6.0168,5.996,5.9312,5.8474,5.7492,5.6978,5.6614,5.6714,5.6776,5.7304,5.814,5.7929,5.7481,5.7143,5.7655,5.6624,5.6001,5.4598,5.3746,5.5032,5.6134,5.6706,5.6554,5.5635,5.5017,5.4144,5.3797,2.8872,3.1323,3.0264,2.9868,2.9811,2.9742,2.9921,3.05,3.246,3.3341,3.3544,3.4412,3.4703,3.4602,3.4563,3.4776,3.5089,3.5011,3.5011,3.5011,3.5011,3.5073,3.5207,3.5129,3.5089,3.4972,3.5286,3.5232,3.5793,3.6842,3.7896,3.8563,3.9863,4.0448,4.0297,4.0146,3.9901,3.9788,4.0425,4.1304,4.2179,4.2269,4.231,4.233,4.2404,4.2477,4.2735,4.2642,4.2752,4.3725,4.3761,4.387,4.4509,4.4747,4.4747,4.4747,4.4747,4.4747,4.4906,4.4906,4.4747,4.4747,4.4796,4.5486,4.6356,4.8185,4.9511,5.0283,5.2232,5.2981,5.305,5.335,5.3683,5.4093,5.4538,5.5077,5.5758,5.6868,5.8005,5.8598,5.9037,5.9836,6.0109,6.0317,6.0789,6.1632,6.1918,6.1954,6.1892,6.1866,6.1098,6.0069,5.9361,5.8993,5.8771,5.8808,5.9287,5.9789,6.0758,6.0938,6.0588,6.0189,5.9214,5.8623,5.8139,5.6923,5.5611,5.691,5.8101,5.7914,5.7614,5.6896,5.6157,5.4775,5.4,3.1099,3.3244,3.2125,3.1853,3.211,3.2078,3.2193,3.2909,3.4714,3.5475,3.5669,3.6493,3.6588,3.6182,3.6049,3.6088,3.5997,3.5783,3.5762,3.6058,3.5817,3.5779,3.5907,3.6049,3.6105,3.6234,3.6119,3.5842,3.5997,3.7361,3.8755,3.8979,4.0721,4.198,4.1831,4.1772,4.1499,4.1241,4.1361,4.2001,4.2834,4.3408,4.3745,4.3803,4.3912,4.4058,4.4182,4.4385,4.4493,4.4638,4.4747,4.4747,4.4747,4.4747,4.4747,4.4747,4.4747,4.5014,4.5531,4.5653,4.6187,4.6422,4.6785,4.6736,4.7687,4.9555,5.1328,5.2323,5.4403,5.5601,5.5891,5.6426,5.6661,5.692,5.7435,5.78,5.8169,5.9451,6.0063,6.0443,6.0788,6.1164,6.1499,6.1535,6.1785,6.2238,6.2274,6.2309,6.2451,6.2566,6.2044,6.1349,6.1026,6.0773,6.052,6.0448,6.082,6.117,6.215,6.2221,6.2531,6.2257,6.1036,6.0179,5.9741,5.8993,5.8013,5.835,5.8957,5.8808,5.8586,5.8375,5.8039,5.6592,5.5272,3.3527,3.4097,3.3403,3.3527,3.4062,3.4205,3.4631,3.5305,3.6066,3.6875,3.7193,3.7463,3.7442,3.7309,3.7365,3.7386,3.7226,3.6792,3.668,3.6728,3.6451,3.6433,3.6977,3.7252,3.668,3.6574,3.6833,3.6542,3.7217,3.8378,3.8971,3.9621,4.1848,4.3144,4.3217,4.3453,4.3762,4.3026,4.2498,4.2351,4.2638,4.3472,4.3957,4.4234,4.4457,4.4674,4.4638,4.4638,4.4674,4.4747,4.4747,4.4747,4.4747,4.4747,4.4747,4.4747,4.4891,4.5302,4.6449,4.6603,4.7026,4.8281,4.8731,4.9076,4.9369,5.0659,5.2381,5.3811,5.6579,5.8115,5.8568,5.9309,5.9676,5.9758,5.9618,5.9714,5.9932,6.0534,6.1012,6.1405,6.1505,6.2018,6.2371,6.2486,6.2566,6.2566,6.2566,6.2531,6.2566,6.2566,6.2186,6.2079,6.1866,6.183,6.1687,6.1795,6.2044,6.2186,6.2495,6.2495,6.2566,6.246,6.1697,6.1206,6.117,6.0495,6.0011,5.9828,5.9803,5.9803,5.9619,5.9558,5.9558,5.8623,5.7315,3.4792,3.4934,3.4774,3.481,3.5041,3.5575,3.5967,3.6234,3.6911,3.7394,3.7501,3.7501,3.7501,3.7501,3.7501,3.754,3.7483,3.7397,3.706,3.6919,3.6672,3.6114,3.5898,3.5647,3.6044,3.6518,3.6354,3.7181,3.9082,4.0873,4.1771,4.2142,4.3283,4.4348,4.4276,4.4421,4.4487,4.4079,4.3549,4.3127,4.3127,4.3409,4.3804,4.4517,4.4638,4.4668,4.4747,4.4747,4.4747,4.4747,4.4819,4.4783,4.4747,4.4747,4.4747,4.4747,4.4747,4.5531,4.6555,4.7039,4.8004,4.959,4.9339,4.9395,4.9931,5.1313,5.2898,5.5941,5.832,5.9585,6.0428,6.0917,6.1055,6.1012,6.1048,6.109,6.1197,6.1418,6.1847,6.2016,6.2238,6.238,6.2486,6.2566,6.2566,6.2566,6.2566,6.2566,6.2566,6.2566,6.2566,6.2566,6.2566,6.2566,6.2566,6.2566,6.2566,6.2566,6.2566,6.2566,6.2566,6.2566,6.1866,6.117,6.1313,6.1769,6.2079,6.1973,6.1483,6.1026,6.0676,6.0411,6.0134,5.9413,5.8672,3.5415,3.57,3.5344,3.5593,3.6288,3.6733,3.6931,3.7056,3.7733,3.7893,3.7608,3.7501,3.7501,3.7655,3.8,3.8345,3.8237,3.8036,3.7817,3.7951,3.8029,3.7803,3.7579,3.7486,3.7322,3.7358,3.7521,3.8885,4.0586,4.2222,4.2715,4.3217,4.413,4.4711,4.4747,4.4726,4.442,4.3953,4.3536,4.3112,4.2715,4.319,4.384,4.4307,4.4371,4.4328,4.4541,4.4747,4.4747,4.4906,4.5388,4.5266,4.5409,4.5839,4.6705,4.64,4.6718,4.7562,4.8719,4.904,4.9723,5.1154,5.1588,5.1663,5.2067,5.2545,5.3993,5.6403,5.8449,6.0455,6.1496,6.1856,6.198,6.1989,6.1963,6.1999,6.2025,6.2141,6.2238,6.2345,6.2451,6.2495,6.2566,6.2566,6.2566,6.2566,6.2566,6.2566,6.2566,6.2566,6.2566,6.2566,6.2566,6.2566,6.2566,6.2566,6.2566,6.2566,6.2566,6.2566,6.2566,6.2566,6.2044,6.1483,6.183,6.2318,6.2531,6.2495,6.2531,6.2389,6.1694,6.1036,6.0735,6.0365,5.9841,3.6447,3.6802,3.6393,3.7047,3.8226,3.8392,3.8507,3.848,3.9217,3.8915,3.8285,3.8154,3.8345,3.8459,3.9259,3.9562,3.9468,3.9204,3.8997,3.924,3.9507,3.9458,3.9029,3.8841,3.958,4.0136,4.0408,4.0651,4.1509,4.2313,4.3396,4.351,4.4276,4.4711,4.4747,4.4668,4.4293,4.3614,4.3126,4.268,4.2375,4.2736,4.35,4.452,4.4201,4.4358,4.4907,4.5158,4.5194,4.5517,4.6625,4.6506,4.6528,4.8142,4.8639,4.8201,4.8362,4.9258,5.0651,5.1221,5.2307,5.363,5.3856,5.4081,5.4338,5.4621,5.4912,5.646,5.8215,6.0098,6.1425,6.1731,6.21,6.232,6.2311,6.2522,6.2469,6.2311,6.2126,6.2443,6.2531,6.2566,6.2566,6.2566,6.2566,6.2566,6.2566,6.2566,6.2566,6.2566,6.2566,6.2566,6.2566,6.2566,6.2566,6.2566,6.2566,6.2566,6.2566,6.2566,6.2566,6.2566,6.2566,6.2283,6.2389,6.2566,6.2566,6.2566,6.2592,6.2672,6.2253,6.1712,6.1694,6.1677,6.1118,3.9711,3.8883,3.9898,4.0866,4.1736,4.1717,4.166,4.1717,4.1949,4.1256,4.077,4.0655,4.0297,4.0617,4.0804,4.0917,4.0841,4.0664,4.0351,4.0288,4.0468,4.0197,3.9667,3.9828,4.06,4.2663,4.2682,4.3093,4.3603,4.4285,4.4239,4.4421,4.4674,4.4711,4.4689,4.4647,4.4201,4.3373,4.2715,4.2155,4.2027,4.2155,4.3012,4.4109,4.4301,4.5036,4.6006,4.6555,4.7026,4.8362,4.8697,4.8697,4.8938,4.9999,5.0381,4.9168,4.9385,5.0439,5.1679,5.2051,5.2668,5.4325,5.4517,5.4683,5.4879,5.5027,5.5279,5.6098,5.7094,5.8554,5.945,6.0466,6.1054,6.1352,6.2091,6.2487,6.2408,6.1695,6.1976,6.2399,6.2566,6.2566,6.2566,6.2566,6.2566,6.2566,6.2566,6.2566,6.2566,6.2566,6.2566,6.2566,6.2566,6.2566,6.2566,6.2566,6.2566,6.2566,6.2566,6.2566,6.2566,6.2566,6.2566,6.2566,6.2566,6.2566,6.2566,6.283,6.2909,6.2777,6.2782,6.3165,6.3115,6.2871,6.2684,4.0879,4.0392,4.0935,4.1687,4.249,4.2998,4.3194,4.3194,4.3175,4.2705,4.1998,4.1372,4.1216,4.129,4.1831,4.1737,4.1477,4.1811,4.1925,4.179,4.223,4.1997,4.1417,4.1861,4.2466,4.3718,4.4074,4.4229,4.4583,4.4653,4.4747,4.4747,4.4747,4.4747,4.4689,4.4187,4.3762,4.3224,4.2495,4.173,4.1432,4.1687,4.2452,4.2606,4.4276,4.562,4.6911,4.7609,4.8466,4.9327,5.0608,5.1479,5.1645,5.2068,5.2134,5.1546,5.1446,5.2076,5.2611,5.3125,5.3515,5.4721,5.4816,5.5006,5.5227,5.5322,5.5416,5.5806,5.6655,5.779,5.8944,5.9735,6.0263,6.0632,6.0816,6.1326,6.2337,6.2761,6.2896,6.2531,6.2557,6.2513,6.2566,6.2566,6.2601,6.2813,6.2813,6.2672,6.2637,6.2672,6.2637,6.2566,6.2566,6.2566,6.2566,6.2566,6.2566,6.2566,6.2566,6.2566,6.2566,6.2566,6.2566,6.2566,6.2566,6.2566,6.2909,6.3341,6.3552,6.3648,6.3971,6.46,6.4838,6.471,6.4481,4.1811,4.1626,4.1868,4.2441,4.3222,4.4174,4.4453,4.4312,4.4492,4.4127,4.3073,4.2333,4.2091,4.2128,4.294,4.2887,4.233,4.294,4.3348,4.3437,4.4385,4.4193,4.3896,4.4079,4.4553,4.4647,4.4726,4.4711,4.4689,4.4747,4.4747,4.4747,4.4747,4.4747,4.4583,4.389,4.3296,4.2893,4.2099,4.1283,4.0901,4.1809,4.2346,4.2132,4.4752,4.6701,4.7855,4.8984,4.9784,5.054,5.2068,5.3078,5.3111,5.3274,5.3241,5.3143,5.3306,5.363,5.3959,5.4088,5.4504,5.4922,5.5075,5.5233,5.5568,5.5568,5.5568,5.5784,5.6418,5.7124,5.8021,5.868,5.9706,6.0706,6.0879,6.1211,6.1938,6.2756,6.2783,6.2586,6.2308,6.2223,6.2513,6.2566,6.2813,6.2997,6.2953,6.2777,6.2777,6.2777,6.2707,6.2566,6.2566,6.2566,6.2566,6.2566,6.2566,6.2566,6.2566,6.2566,6.2566,6.2566,6.2566,6.2566,6.2619,6.2962,6.3367,6.3763,6.4334,6.4614,6.4894,6.5525,6.6139,6.6452,6.632,4.373,4.285,4.3912,4.4875,4.563,4.6711,4.6418,4.6067,4.6498,4.597,4.467,4.436,4.4,4.4327,4.4203,4.4421,4.4255,4.4276,4.4421,4.4457,4.4545,4.4626,4.4435,4.4626,4.4726,4.4747,4.4747,4.4747,4.4747,4.4747,4.4747,4.4689,4.4647,4.4668,4.452,4.367,4.2893,4.2163,4.1283,4.0636,4.0996,4.2279,4.331,4.3619,4.6542,4.8594,5.0127,5.0978,5.1603,5.2882,5.3266,5.3461,5.3461,5.3461,5.3461,5.3494,5.3695,5.3953,5.4088,5.4536,5.4948,5.5043,5.5353,5.5568,5.5568,5.5568,5.5568,5.5568,5.5674,5.6017,5.6491,5.7915,5.9275,6.0546,6.276,6.2596,6.1477,6.0182,6.0519,6.2267,6.1295,6.1393,6.2038,6.2672,6.2944,6.2957,6.2702,6.2801,6.3057,6.2892,6.2637,6.2566,6.2566,6.2566,6.2566,6.2566,6.2566,6.2566,6.2566,6.2566,6.2566,6.2566,6.2566,6.2751,6.3015,6.3393,6.3885,6.4519,6.4994,6.5458,6.637,6.6839,6.7161,6.7544,6.766,4.4421,4.4021,4.4493,4.4944,4.539,4.6324,4.6478,4.6223,4.6541,4.6202,4.5544,4.4987,4.4747,4.4747,4.4747,4.4747,4.4747,4.4747,4.4747,4.4747,4.4862,4.4898,4.4804,4.4747,4.4747,4.4747,4.4747,4.4762,4.4726,4.4747,4.4747,4.467,4.4165,4.4222,4.4564,4.2941,4.1738,4.1763,4.0486,4.0138,4.0785,4.1856,4.3132,4.5308,4.6411,4.8782,5.1124,5.2109,5.2817,5.3274,5.3461,5.3461,5.3461,5.3461,5.3461,5.3461,5.3598,5.3921,5.43,5.4619,5.4969,5.5317,5.5505,5.5568,5.5568,5.5568,5.5568,5.5568,5.5568,5.5568,5.5779,5.6412,5.7605,5.9173,6.1734,6.3476,6.3354,6.1889,6.1534,6.113,6.0843,6.086,6.2479,6.1744,6.2132,6.2715,6.2338,6.2521,6.3129,6.2838,6.2566,6.2566,6.2566,6.2566,6.2566,6.2566,6.2566,6.2566,6.2566,6.2566,6.2566,6.2566,6.2909,6.3446,6.3552,6.3938,6.5036,6.5896,6.6212,6.6818,6.7925,6.848,6.8481,6.8733,6.8706,4.4747,4.4747,4.4747,4.4747,4.4859,4.599,4.6371,4.6138,4.6371,4.6414,4.5884,4.5077,4.4859,4.505,4.5114,4.5241,4.5454,4.5263,4.5072,4.5166,4.6028,4.6615,4.6375,4.6099,4.5781,4.5395,4.5548,4.5199,4.49,4.5042,4.5029,4.4963,4.4129,4.4042,4.4454,4.2547,4.1755,4.2202,4.0917,4.0703,4.1581,4.2269,4.3659,4.5756,4.6766,4.8579,5.0785,5.2344,5.3037,5.3062,5.333,5.3566,5.3468,5.3688,5.372,5.3598,5.3727,5.4114,5.446,5.4741,5.5058,5.5411,5.5505,5.5568,5.5568,5.5568,5.5568,5.5568,5.5568,5.5568,5.5568,5.5674,5.6259,5.7452,5.9637,6.1836,6.2954,6.2828,6.1693,6.0695,6.0223,6.0667,6.154,6.1536,6.1539,6.186,6.1356,6.0845,6.1876,6.2052,6.1827,6.2038,6.2381,6.246,6.254,6.254,6.2566,6.2566,6.2566,6.2566,6.2566,6.2645,6.3314,6.4159,6.4202,6.5063,6.6186,6.6938,6.7571,6.7952,6.869,6.9032,6.923,6.9336,6.9218,4.4747,4.4747,4.4747,4.4819,4.4944,4.6628,4.6916,4.634,4.6994,4.6938,4.6207,4.5508,4.5427,4.5947,4.6209,4.6681,4.7203,4.6714,4.6338,4.7328,4.9285,5.0502,4.9551,4.8742,4.7703,4.678,4.6829,4.6419,4.5319,4.5513,4.5813,4.5587,4.455,4.4527,4.5007,4.3447,4.2785,4.3689,4.3043,4.2563,4.2888,4.4829,4.5889,4.5327,4.7956,4.971,5.0387,5.1268,5.1881,5.2173,5.3211,5.3664,5.3663,5.4139,5.4165,5.363,5.4382,5.4504,5.4408,5.4906,5.5348,5.5227,5.5443,5.5568,5.5568,5.5568,5.5568,5.5568,5.5568,5.5568,5.5568,5.5568,5.6101,5.7138,5.8069,5.9394,6.0973,6.0457,6.0249,6.0254,5.985,5.9733,6.0588,6.1471,6.1449,6.1212,6.0084,6.0013,6.0706,6.1066,6.0954,6.1326,6.1827,6.1959,6.2091,6.217,6.2566,6.2566,6.2566,6.2566,6.2566,6.2804,6.3288,6.4255,6.4983,6.6186,6.7149,6.7571,6.8098,6.861,6.8953,6.9243,6.9375,6.9375,6.9336,4.5143,4.4834,4.5653,4.5545,4.4925,4.6405,4.692,4.668,4.6986,4.7521,4.7924,4.7615,4.7705,4.7976,4.8043,4.8585,4.9484,4.9213,4.9166,4.974,5.0664,5.0427,4.9992,4.9433,4.8464,4.7372,4.6703,4.6164,4.5691,4.5781,4.5854,4.5714,4.4747,4.4765,4.5539,4.3865,4.3242,4.4015,4.3499,4.335,4.4188,4.5087,4.6079,4.7236,4.8442,4.9457,5.0092,4.9898,5.0554,5.1927,5.2432,5.3102,5.378,5.4107,5.4236,5.4236,5.4555,5.4752,5.4726,5.5043,5.5233,5.5385,5.5505,5.56,5.56,5.5568,5.5568,5.5568,5.56,5.5568,5.56,5.5568,5.5753,5.6291,5.7588,5.8954,5.9624,5.9566,5.9711,5.9798,5.8541,5.8521,5.9202,5.9852,5.8545,5.9624,5.8792,5.8439,5.9435,5.9787,5.9798,5.9999,6.0922,6.151,6.1616,6.2038,6.2487,6.2566,6.2592,6.2592,6.2856,6.3182,6.3753,6.4809,6.5906,6.7055,6.8083,6.8426,6.8531,6.89,6.9309,6.9414,6.9414,6.9414,6.9414,4.6812,4.7025,4.7629,4.7499,4.714,4.7911,4.8275,4.831,4.8333,4.8893,4.9726,4.9605,4.9652,4.9829,4.99,5.0464,5.1452,5.2174,5.2847,5.3294,5.2698,5.2258,5.1806,5.153,5.0771,4.9626,4.8242,4.7114,4.637,4.627,4.6213,4.5986,4.5042,4.5137,4.6045,4.4539,4.4106,4.4924,4.447,4.4552,4.5368,4.5509,4.6287,4.785,4.8043,4.8432,4.9174,4.8986,4.9671,5.121,5.1903,5.28,5.3978,5.4428,5.4555,5.4645,5.4773,5.4969,5.5075,5.5463,5.5931,5.617,5.6576,5.6699,5.6756,5.6848,5.6848,5.6791,5.6356,5.6139,5.6046,5.5855,5.6037,5.6726,5.8244,5.9364,5.9999,5.9971,5.9999,5.9913,5.8212,5.7488,5.8207,5.7485,5.6583,5.7638,5.7303,5.6972,5.7875,5.8245,5.8548,5.8733,6.0078,6.1001,6.1431,6.188,6.2355,6.2566,6.2592,6.2619,6.3261,6.3789,6.4624,6.5564,6.6686,6.7793,6.8821,6.9282,6.9164,6.9388,6.9414,6.9414,6.9414,6.9414,6.9414,4.9739,5.115,5.0604,5.06,5.1307,5.1401,5.1447,5.1447,5.1399,5.1443,5.1656,5.0741,5.0925,5.1438,5.1597,5.2027,5.3128,5.4716,5.6033,5.6948,5.7033,5.646,5.5461,5.5252,5.4663,5.3632,5.1959,4.9574,4.7231,4.7257,4.7191,4.673,4.5723,4.5752,4.6798,4.5657,4.5562,4.635,4.6518,4.6614,4.6813,4.67,4.6779,4.6943,4.7026,4.7222,4.7425,4.8579,4.9313,4.9811,5.1595,5.3364,5.4314,5.5069,5.5254,5.4868,5.5248,5.5348,5.5264,5.6368,5.7048,5.7288,5.8396,5.8865,5.8777,5.8837,5.8867,5.8661,5.8007,5.7348,5.7194,5.6545,5.6699,5.8748,5.9247,5.9971,6.0798,6.1192,6.0798,5.9769,5.9188,5.8214,5.6479,5.5725,5.5689,5.5973,5.59,5.5937,5.6175,5.6893,5.7321,5.7711,5.8819,6.0052,6.0896,6.1695,6.2117,6.2434,6.2276,6.2355,6.2804,6.445,6.5231,6.6038,6.7134,6.8241,6.9243,6.9414,6.9414,6.9414,6.9414,6.9414,6.9414,6.9414,6.9414,4.9351,5.0693,5.1352,5.2171,5.3167,5.4013,5.4397,5.4323,5.3565,5.3839,5.4439,5.3663,5.3335,5.3572,5.3623,5.4048,5.4777,5.5416,5.5988,5.6291,5.6039,5.5733,5.5415,5.5222,5.453,5.3453,5.2592,5.1444,4.9858,4.9026,4.8627,4.8489,4.7435,4.7159,4.7328,4.6851,4.663,4.6936,4.693,4.6867,4.6867,4.6867,4.6867,4.6927,4.7266,4.7552,4.7636,4.8054,4.8714,4.9769,5.0998,5.2291,5.3624,5.463,5.5196,5.5311,5.5474,5.5537,5.5573,5.6614,5.7351,5.7412,5.8543,5.9247,5.9247,5.9247,5.9247,5.9218,5.8809,5.8662,5.8572,5.8363,5.8422,5.9101,6.0086,6.0797,6.1219,6.1913,6.1691,6.0769,5.9913,5.8631,5.7103,5.6139,5.5725,5.5568,5.5568,5.5568,5.5568,5.5937,5.6154,5.6312,5.7684,5.8759,5.963,5.9999,6.0323,6.0877,6.0896,6.1212,6.1951,6.4255,6.5759,6.6475,6.7477,6.8584,6.919,6.9388,6.9414,6.9414,6.9414,6.9414,6.9414,6.9414,6.9414,5.0901,5.1696,5.3406,5.4943,5.6243,5.6758,5.6984,5.6831,5.5752,5.5824,5.6417,5.5459,5.4963,5.4989,5.4995,5.5217,5.5537,5.5568,5.5568,5.5568,5.5353,5.5201,5.5201,5.5064,5.4552,5.3847,5.346,5.2586,5.1343,5.0586,4.9956,4.94,4.9066,4.8553,4.7955,4.7939,4.78,4.744,4.7325,4.721,4.7238,4.721,4.721,4.7238,4.7718,4.7969,4.7941,4.8052,4.8504,4.9408,5.0389,5.1242,5.2208,5.3339,5.4245,5.4878,5.5357,5.5761,5.6267,5.7376,5.819,5.8751,5.9913,6.0683,6.0627,6.0656,6.0598,6.0513,6.0229,6.0143,6.0428,6.0627,6.0627,6.0656,6.1023,6.1359,6.186,6.2135,6.2299,6.1775,6.0769,5.9509,5.8159,5.6607,5.5979,5.6664,5.6541,5.6298,5.6175,5.5819,5.5647,5.5811,5.6576,5.7631,5.8443,5.8443,5.8891,5.9498,6.0236,6.0869,6.217,6.4466,6.5405,6.608,6.7307,6.8335,6.8558,6.8769,6.9414,6.9414,6.9414,6.9414,6.9414,6.9414,6.9414,5.4037,5.4293,5.6395,5.8469,6.0782,5.9713,5.9246,5.8947,5.787,5.7303,5.7118,5.6038,5.5568,5.5537,5.5505,5.5568,5.5568,5.5568,5.5568,5.5568,5.5568,5.5568,5.5568,5.5568,5.5568,5.5295,5.4421,5.3329,5.2092,5.1827,5.1052,4.9798,5.0549,5.006,4.8638,4.9124,4.8963,4.8141,4.7981,4.7851,4.7802,4.7802,4.7831,4.7857,4.8108,4.822,4.8274,4.8468,4.8605,4.8605,4.9764,5.0423,5.061,5.1633,5.2927,5.3986,5.5108,5.6175,5.7227,5.8544,5.9798,6.0995,6.1996,6.2895,6.2623,6.2623,6.2623,6.2895,6.1498,6.136,6.246,6.2542,6.265,6.265,6.197,6.1913,6.2815,6.2106,6.1941,6.249,6.1913,6.0881,5.9625,5.7279,5.7218,5.8184,5.8129,5.7412,5.7318,5.6576,5.6015,5.6098,5.6614,5.7332,5.7236,5.75,5.8476,5.9366,6.0157,6.1379,6.3015,6.4423,6.4957,6.5711,6.7017,6.7781,6.7887,6.8373,6.9111,6.9414,6.9414,6.9414,6.9414,6.9414,6.9414,5.3871,5.4247,5.6369,5.9162,6.2012,6.1774,6.1194,6.0263,5.9129,5.8133,5.7236,5.6127,5.5568,5.5568,5.5568,5.5568,5.5568,5.5568,5.5568,5.5568,5.5568,5.5568,5.5568,5.5568,5.5568,5.5515,5.5257,5.4904,5.45,5.3706,5.3067,5.2582,5.208,5.1533,5.0979,5.0987,5.0479,4.9438,4.9049,4.8577,4.7961,4.8165,4.8386,4.8386,4.8441,4.8468,4.8496,4.8578,4.8578,4.8605,4.9741,5.0716,5.1583,5.2746,5.3876,5.505,5.6199,5.6984,5.7321,5.9423,6.0854,6.1304,6.2297,6.3003,6.3003,6.3003,6.3003,6.2976,6.2598,6.2408,6.2976,6.3003,6.3003,6.2946,6.2758,6.2569,6.2895,6.2788,6.2598,6.2865,6.2653,6.2354,6.1748,5.9913,5.8482,5.9247,5.9015,5.8721,5.8633,5.8394,5.7795,5.7069,5.7102,5.7025,5.6317,5.6787,5.7368,5.8502,5.9999,6.1054,6.1563,6.3499,6.4624,6.472,6.6528,6.7465,6.7492,6.8426,6.9388,6.9414,6.9414,6.9414,6.9414,6.9414,6.9414,5.4566,5.4724,5.655,5.8555,6.027,6.0463,6.0033,5.9373,5.8654,5.8001,5.713,5.5067,5.414,5.4197,5.4113,5.4166,5.417,5.414,5.4408,5.4856,5.4883,5.5146,5.5542,5.5568,5.5568,5.5568,5.5568,5.5568,5.5494,5.4909,5.4329,5.3824,5.3665,5.2769,5.1507,5.1726,5.1034,4.9434,4.9156,4.8758,4.8243,4.8441,4.8578,4.8578,4.8578,4.8578,4.8578,4.8578,4.8817,4.9318,4.9951,5.0903,5.2058,5.2743,5.3639,5.4786,5.5542,5.6557,5.8014,6.0086,6.1443,6.1941,6.2569,6.3003,6.3003,6.3003,6.3003,6.3003,6.3003,6.3003,6.3003,6.3003,6.3003,6.3003,6.3003,6.2976,6.3003,6.2976,6.3003,6.3003,6.3003,6.2976,6.2731,6.1691,6.0881,6.0768,6.0314,6.0086,5.9971,5.9103,5.8278,5.7472,5.6893,5.6521,5.6561,5.7051,5.7895,5.8766,5.9973,6.1141,6.1616,6.2962,6.3631,6.3631,6.4983,6.6133,6.6871,6.7872,6.89,6.9414,6.9414,6.9414,6.9414,6.9414,6.9414,5.5257,5.5468,5.6418,5.7025,5.7077,5.7183,5.7156,5.7057,5.7025,5.7004,5.6391,5.3534,5.216,5.2081,5.216,5.2186,5.2186,5.2199,5.2869,5.3798,5.3968,5.4559,5.5532,5.5576,5.5532,5.5364,5.5337,5.5201,5.5072,5.5093,5.4702,5.3903,5.4751,5.3643,5.119,5.1636,5.0974,4.8815,4.8869,4.8869,4.879,4.8764,4.8711,4.8605,4.8578,4.8578,4.8578,4.8578,4.908,5.0056,5.0109,5.0689,5.1768,5.1923,5.2453,5.359,5.3696,5.5214,5.8537,6.0225,6.1476,6.2633,6.2707,6.2793,6.2946,6.3003,6.3003,6.3003,6.3003,6.3003,6.3,6.3003,6.3003,6.303,6.3056,6.3003,6.3003,6.3003,6.3003,6.3003,6.3003,6.3003,6.3003,6.2815,6.2785,6.2569,6.1858,6.133,6.119,5.9683,5.819,5.759,5.6391,5.6206,5.7057,5.7711,5.8845,6.0323,6.0896,6.1458,6.2091,6.254,6.2619,6.3015,6.3806,6.4852,6.5711,6.6833,6.7992,6.8769,6.9229,6.9414,6.9414,6.9414,6.9414,5.2901,5.298,5.4113,5.4619,5.4755,5.5568,5.5463,5.4672,5.465,5.4144,5.3244,5.245,5.2081,5.2081,5.2081,5.2081,5.2202,5.2938,5.3449,5.3779,5.4608,5.517,5.5447,5.5447,5.4963,5.4185,5.4098,5.3655,5.2964,5.2901,5.2773,5.2555,5.2743,5.2954,5.3063,5.2427,5.1399,5.0109,5.0845,5.0845,4.9977,4.9951,4.953,4.8657,4.8578,4.8578,4.8578,4.8578,4.8684,4.8975,4.9001,4.9529,5.0636,5.0742,5.124,5.2318,5.2506,5.3647,5.6262,5.836,6.0093,6.1331,6.1503,6.1895,6.2796,6.3003,6.3003,6.3003,6.3003,6.3056,6.322,6.314,6.3056,6.3273,6.3273,6.319,6.3056,6.3137,6.319,6.303,6.3003,6.3003,6.3003,6.3003,6.3003,6.3003,6.2788,6.2569,6.246,6.1358,5.9942,5.8808,5.6974,5.6296,5.7183,5.8634,5.9954,6.0632,6.1563,6.2144,6.2408,6.2566,6.2566,6.2672,6.3552,6.4308,6.4783,6.6223,6.7477,6.7978,6.861,6.9256,6.9203,6.9217,6.9322,5.2081,5.2189,5.2769,5.2743,5.2298,5.2905,5.2829,5.2192,5.1662,5.1082,5.0529,5.0474,5.0502,5.0502,5.0529,5.0787,5.1352,5.1885,5.2683,5.3647,5.4305,5.4885,5.5335,5.5391,5.5088,5.4477,5.4449,5.3912,5.2909,5.282,5.2585,5.211,5.2081,5.2427,5.3006,5.2954,5.2295,5.119,5.0713,5.0423,5.032,4.9847,4.9502,4.9397,4.8869,4.8578,4.8578,4.8578,4.8843,4.9398,4.9397,4.9924,5.103,5.1164,5.1399,5.2028,5.2081,5.2934,5.4755,5.6073,5.7801,6.0122,6.1307,6.1985,6.2078,6.2644,6.3003,6.3003,6.3003,6.3113,6.3357,6.341,6.349,6.3596,6.3652,6.3569,6.349,6.3573,6.349,6.322,6.3137,6.311,6.3003,6.3003,6.3003,6.3003,6.3003,6.2976,6.2949,6.1913,6.0741,5.9479,5.8184,5.7643,5.8144,5.9954,6.1273,6.159,6.2135,6.2513,6.2566,6.2566,6.2566,6.2619,6.3067,6.371,6.437,6.5416,6.6186,6.6686,6.7439,6.7702,6.7899,6.8229,6.8347,5.1583,5.158,5.1609,5.103,5.0111,5.0111,5.0083,5.0003,4.9026,4.8578,4.8578,4.8578,4.8578,4.8578,4.8578,4.9152,5.0066,5.0439,5.1568,5.3362,5.3732,5.4404,5.5345,5.5372,5.5319,5.5156,5.5101,5.4529,5.3506,5.3395,5.2885,5.1961,5.1975,5.1887,5.1744,5.2611,5.2769,5.2081,5.0081,4.9529,5.0296,4.9344,4.9344,5.0243,4.9212,4.8658,4.8789,4.8684,4.9212,5.0478,5.0557,5.1032,5.2031,5.2054,5.2031,5.1873,5.1689,5.2243,5.361,5.3754,5.517,5.8375,6.0959,6.1985,6.0908,6.1899,6.2674,6.2703,6.2913,6.3083,6.3357,6.3705,6.3924,6.395,6.4003,6.4003,6.3924,6.3977,6.3837,6.3516,6.3437,6.3383,6.322,6.3193,6.3193,6.3167,6.322,6.311,6.2949,6.2133,6.1051,5.9913,5.9508,5.9455,5.9576,6.1231,6.2487,6.2801,6.2924,6.3032,6.3032,6.2813,6.2566,6.2566,6.2645,6.3015,6.3789,6.4185,6.4835,6.55,6.599,6.6122,6.6201,6.6607,6.6792,4.9211,4.9184,4.9183,4.9107,4.8895,4.8896,4.8895,4.8896,0.0,0.0,0.0,4.8578,4.8578,4.8578,4.8578,4.8715,4.9043,5.0776,5.1817,5.2298,5.4064,5.5048,5.5231,5.5231,5.4734,5.383,5.3805,5.3222,5.2222,5.2222,5.1702,5.08,5.1505,5.1007,4.9373,4.945,5.0371,5.1975,5.1689,5.1109,5.0375,5.0164,5.0164,5.0348,4.9212,4.9054,5.0005,4.9107,4.9608,5.1633,5.1794,5.1844,5.2084,5.2081,5.1662,5.0689,4.9766,5.0136,5.2079,5.2256,5.2928,5.4427,5.7767,5.9664,5.948,6.0318,6.1031,6.1387,6.2344,6.3083,6.3357,6.3705,6.395,6.3946,6.413,6.4182,6.3999,6.413,6.4182,6.3894,6.3867,6.3841,6.3788,6.3762,6.3758,6.3758,6.3705,6.3679,6.3357,6.3086,6.2465,6.1191,6.0656,6.0484,6.0754,6.1844,6.3099,6.3775,6.4,6.4186,6.4035,6.3319,6.2672,6.2566,6.2566,6.2672,6.2909,6.3657,6.4397,6.4608,6.5289,6.5911,6.5858,6.5405,6.4915,4.8578,0.0,4.8578,4.8578,0.0,4.8578,4.9234,5.0277,5.025,5.0277,5.025,5.0276,5.0277,5.0304,5.0277,5.0512,5.1112,5.2187,5.2992,5.3616,5.4718,5.5227,5.5227,5.5227,5.4884,5.4348,5.4348,5.3787,5.2714,5.2689,5.2165,5.1144,5.1092,5.1125,5.1098,5.0033,4.9766,5.0318,5.0318,5.0344,5.0322,4.9766,4.9713,5.0296,4.924,0.0,0.0,0.0,0.0,0.0,0.0,0.0,0.0,0.0,0.0,5.1276,5.0658,5.1045,5.2703,5.2893,5.3358,5.4481,5.6843,5.8262,5.8115,5.9217,6.0338,6.1123,6.1441,6.1789,6.2353,6.2808,6.3339,6.4034,6.4286,6.4334,6.4364,6.4494,6.4407,6.4208,6.413,6.4078,6.3977,6.395,6.395,6.395,6.395,6.3815,6.349,6.3649,6.3516,6.252,6.2053,6.143,6.0487,6.1516,6.2784,6.2054,6.2317,6.2612,6.2651,6.2633,6.2566,6.2566,6.2566,6.2566,6.2645,6.3041,6.3446,6.3516,6.3876,6.4182,6.4219,6.3833,6.3473,4.8989,4.9071,4.9044,4.9152,4.918,4.9016,5.0065,5.1908,5.1908,5.1908,5.1908,5.1962,5.1959,5.1959,5.1987,5.2439,5.3239,5.3386,5.4005,5.4908,5.508,5.5227,5.5227,5.5227,5.5227,5.5227,5.5227,5.4688,5.3806,5.3558,5.2913,5.1883,5.104,5.1328,5.2534,0.0,0.0,0.0,4.8688,4.9054,4.9924,4.908,4.916,5.0269,4.9212,0.0,4.8896,4.8684,4.8817,4.9211,4.9237,0.0,0.0,0.0,0.0,0.0,0.0,0.0,0.0,0.0,0.0,0.0,5.5218,5.6073,5.5432,5.7132,5.8961,6.0516,6.0448,6.0492,6.107,6.1617,6.2375,6.3449,6.3597,6.3755,6.3928,6.4194,6.4271,6.4071,6.4233,6.4334,6.4156,6.4134,6.4134,6.413,6.4104,6.3942,6.3592,6.4021,6.4099,6.3569,6.3277,6.2351,6.0303,6.1995,6.2868,6.1003,6.0989,6.1282,6.1456,6.1858,6.1854,6.2223,6.2249,6.2276,6.2566,6.2566,6.2645,6.2592,6.2619,6.2566,6.2566,6.2804,6.2883,5.0411,5.0831,5.0805,5.1036,5.1396,5.0517,5.0805,5.1908,5.1908,5.1908,5.1908,5.214,5.2241,5.2241,5.2241,5.2316,5.2493,5.3136,5.3533,5.3757,5.4742,5.5227,5.5227,5.5227,5.5227,5.5227,5.5227,5.5103,5.4985,5.3957,5.2913,5.1934,5.1783,5.0885,4.9311,4.8981,4.9231,5.0093,4.9098,4.8657,4.8817,4.8685,4.9133,5.0214,4.9212,4.908,5.0058,4.9133,4.9555,5.1504,5.1662,5.1633,5.1636,5.0792,5.0831,0.0,4.7866,0.0,0.0,0.0,0.0,0.0,0.0,0.0,0.0,5.1929,5.5158,5.7801,5.9356,6.0226,6.0063,6.0556,6.0806,6.08,6.0996,6.1111,6.1221,6.2284,6.3046,6.2965,6.3984,6.467,6.4613,6.4588,6.4644,6.4593,6.4531,6.4336,6.4225,6.4251,6.426,6.392,6.3867,6.366,6.3349,6.4268,6.4875,6.4497,6.332,6.2697,6.2568,6.1047,5.9987,6.0893,6.12,6.1474,6.2434,6.2575,6.254,6.2566,6.2531,6.2522,6.2662,6.3375,6.3855,4.9853,4.9719,4.9719,5.0565,5.1834,5.1396,5.1466,5.191,5.191,5.191,5.191,5.2026,5.2049,5.2079,5.191,5.2309,5.3144,5.3438,5.4017,5.4848,5.5261,5.5408,5.5432,5.5268,5.5227,5.5227,5.5227,5.5227,5.5204,5.4688,5.386,5.2764,5.2187,5.1758,5.1501,5.1342,5.1242,5.1194,5.0146,4.9234,4.8606,4.8578,4.8815,4.9344,4.8869,4.8869,4.9344,4.8842,4.9079,5.0054,5.016,5.016,5.0135,4.8775,4.9208,0.0,0.0,0.0,0.0,0.0,0.0,0.0,0.0,0.0,0.0,0.0,5.3398,5.2464,5.5278,5.7284,5.7562,5.9294,6.0378,6.0257,6.0995,6.1265,6.0706,6.1215,6.1583,6.1583,6.2806,6.3666,6.3697,6.4281,6.4716,6.4716,6.4127,6.3641,6.3545,6.4107,6.4463,6.4208,6.4182,6.4156,6.4078,6.3745,6.3222,6.263,6.2385,6.2325,6.2323,6.1752,6.1501,6.1958,6.1432,6.1255,6.2405,6.2189,6.188,6.224,6.2063,6.1954,6.255,6.3202,6.3499,4.9843,4.9575,4.8534,4.9408,5.1428,5.1148,5.1359,5.1884,5.1884,5.1884,5.1884,5.1884,5.1927,5.1991,5.179,5.2355,5.3439,5.3323,5.4057,5.5434,5.5274,5.5205,5.5152,5.4997,5.4835,5.4765,5.4858,5.4812,5.4725,5.4562,5.4101,5.3431,5.2639,5.2644,5.3368,5.3238,5.2626,5.1553,5.0463,4.9504,4.8606,4.8578,4.8578,4.8578,4.8578,4.8578,4.8578,4.8578,4.8578,4.8606,4.8342,4.8078,4.7761,4.5766,0.0,0.0,0.0,0.0,0.0,0.0,0.0,0.0,0.0,4.0787,3.9424,0.0,5.0509,0.0,5.1141,5.4009,5.4977,5.7397,0.0,0.0,6.0079,6.0451,5.9325,5.9778,6.0054,5.9717,6.1215,6.2253,6.2253,6.315,6.3641,6.3328,6.2407,6.1909,6.2308,6.3175,6.3903,6.428,6.4132,6.3923,6.3585,6.2642,6.1799,6.1155,6.1462,6.1809,6.1867,6.214,6.2369,6.2621,6.1686,6.1326,6.2014,6.1808,6.1712,6.2355,6.2223,6.2034,6.2629,6.3161,6.3284,5.1644,5.2381,4.8458,4.8113,5.0128,4.898,4.9786,5.1884,5.1854,5.1884,5.1884,5.1884,5.2034,5.2258,5.2237,0.0,5.2389,5.2164,5.2693,5.4009,5.3987,5.3987,5.3965,5.3965,5.3809,5.3614,5.3831,5.3749,5.3402,5.2578,5.2589,5.3455,5.3386,5.2896,5.2106,5.2311,5.1749,5.0518,4.9315,4.8688,4.8578,4.8578,4.8578,4.8578,4.8578,4.8578,4.8578,4.8578,4.8578,4.8552,4.7577,4.6496,4.5364,0.0,0.0,0.0,0.0,0.0,0.0,0.0,0.0,0.0,0.0,0.0,0.0,0.0,0.0,4.4461,4.8353,0.0,5.2797,5.4199,0.0,0.0,0.0,5.6501,5.5256,5.7306,5.8327,5.7023,0.0,0.0,6.0822,6.0883,6.0539,5.9334,5.9057,5.9457,6.0662,6.0859,6.1866,6.4112,6.3641,6.275,6.2313,6.2465,6.2798,6.3353,6.2655,6.1865,6.1978,6.103,6.0332,6.1504,6.1311,6.1026,6.0671,6.1786,6.2672,6.2697,6.3556,6.399,6.2994,6.3623,6.4068,4.9694,4.8857,4.6381,4.5444,4.5531,4.4939,4.5758,4.7415,4.7434,4.7873,4.8617,4.8617,4.774,4.6354,4.72,0.0,0.0,0.0,4.9726,5.1842,5.1676,5.21,5.287,5.2749,5.2619,5.254,5.2641,5.2911,5.3374,5.2199,5.1514,5.1105,0.0,0.0,5.3806,5.3284,5.2752,5.2196,5.0542,4.9665,4.9638,4.8961,4.8578,4.8578,4.8578,4.8289,4.7577,4.8236,4.7973,4.6549,4.6022,4.4942,0.0,0.0,0.0,0.0,0.0,0.0,0.0,0.0,0.0,0.0,0.0,2.8343,2.7346,0.0,0.0,0.0,4.1784,4.4168,4.6379,5.0741,0.0,0.0,0.0,0.0,0.0,0.0,0.0,5.3064,5.6792,5.9157,5.8274,5.7506,5.6822,5.6323,5.6915,5.7575,5.8097,0.0,5.8857,6.0809,6.0648,6.0532,6.1098,6.2099,6.2622,6.2172,6.2173,6.2591,6.3429,6.2973,6.2584,6.2889,6.22,6.1635,6.2435,6.1663,6.1364,6.2609,6.165,6.092,6.1646,6.2236,6.2763,4.6024,0.0,0.0,0.0,0.0,4.1479,4.2063,4.3373,4.3342,4.3878,4.4703,4.4734,0.0,0.0,0.0,0.0,0.0,0.0,4.6882,4.8806,4.9845,5.0611,5.1253,5.1442,5.1448,5.1405,5.1499,5.1624,5.1738,4.9399,4.8293,4.8402,0.0,0.0,0.0,0.0,5.2965,5.1914,5.0888,5.02,4.9853,4.9043,4.8578,4.8578,4.8289,4.784,4.7392,4.7498,4.6812,4.5153,4.4153,0.0,0.0,0.0,0.0,0.0,0.0,0.0,0.0,0.0,0.0,0.0,0.0,0.0,0.0,0.0,0.0,0.0,0.0,0.0,4.0574,4.5857,4.937,0.0,0.0,0.0,0.0,0.0,0.0,0.0,0.0,0.0,5.4467,5.3782,5.3465,0.0,0.0,5.558,5.5971,5.6348,5.7176,5.8972,5.8965,0.0,6.0478,6.1208,6.1417,6.0761,6.1491,6.2499,6.3395,6.3251,6.3103,6.3098,6.2027,6.1174,6.1564,6.0492,6.0326,6.1505,5.9933,5.8674,6.0073,6.052,6.0844,0.0,0.0,0.0,0.0,0.0,0.0,0.0,0.0,4.0498,4.056,0.0,4.0605,0.0,0.0,0.0,0.0,0.0,4.3233,0.0,0.0,4.8602,4.9881,4.8814,4.9953,5.0447,5.0204,5.0324,4.9572,4.7746,4.2901,0.0,0.0,0.0,0.0,0.0,0.0,5.1709,4.8465,4.9673,4.9799,4.8743,4.8661,4.8579,4.8579,4.7524,4.7418,4.8367,4.6443,4.5205,4.5048,4.186,0.0,0.0,0.0,0.0,0.0,0.0,0.0,0.0,0.0,0.0,0.0,0.0,0.0,0.0,0.0,0.0,0.0,0.0,0.0,0.0,3.9131,0.0,0.0,0.0,0.0,0.0,0.0,0.0,0.0,0.0,0.0,4.9141,4.9962,5.0679,5.0659,0.0,0.0,0.0,0.0,5.7483,6.0085,5.9518,5.9119,6.0392,5.9617,5.9272,6.0423,0.0,0.0,6.0791,6.0385,6.0206,6.0366,6.0211,5.9179,5.6767,5.771,5.9082,5.9727,5.9157,5.9006,5.9096,5.8951,5.9089,0.0,0.0,0.0,0.0,0.0,0.0,0.0,0.0,0.0,3.5646,3.646,3.6491,0.0,0.0,0.0,0.0,0.0,0.0,0.0,0.0,4.3782,4.501,4.4787,4.6871,4.7367,0.0,4.5649,4.3524,0.0,0.0,0.0,0.0,0.0,0.0,0.0,0.0,5.0292,4.9129,5.0541,5.0857,4.9772,4.9719,4.9369,4.8606,4.821,4.7814,4.7471,4.5943,4.5101,0.0,0.0,0.0,0.0,0.0,0.0,0.0,0.0,0.0,0.0,0.0,0.0,0.0,0.0,0.0,0.0,0.0,0.0,0.0,0.0,0.0,0.0,0.0,3.8701,0.0,0.0,0.0,0.0,0.0,0.0,0.0,0.0,0.0,4.6201,4.7892,4.8948,4.8019,4.985,5.1447,5.1877,0.0,0.0,0.0,0.0,0.0,0.0,0.0,5.8512,5.8036,5.9447,6.0361,5.9525,5.9942,6.0324,6.0269,0.0,0.0,5.3766,5.3992,5.5009,5.5266,5.4231,5.3777,5.5363,5.5562,5.6172,0.0,0.0,0.0,0.0,0.0,0.0,0.0,0.0,0.0,3.0126,3.0985,0.0,0.0,0.0,0.0,0.0,0.0,0.0,0.0,0.0,0.0,0.0,4.0574,4.2769,0.0,0.0,0.0,0.0,0.0,0.0,0.0,0.0,0.0,0.0,0.0,0.0,4.8542,4.7797,5.0893,5.1789,5.0277,5.061,5.0331,4.9207,4.8806,4.8032,4.6865,0.0,0.0,0.0,0.0,0.0,0.0,0.0,0.0,0.0,0.0,0.0,0.0,0.0,0.0,0.0,0.0,0.0,0.0,0.0,0.0,0.0,0.0,0.0,0.0,0.0,3.3637,0.0,0.0,0.0,0.0,0.0,0.0,0.0,0.0,0.0,0.0,0.0,4.6201,4.7055,4.8764,5.0065,5.0495,5.1324,5.239,0.0,0.0,0.0,0.0,0.0,0.0,0.0,0.0,0.0,0.0,0.0,0.0,0.0,0.0,5.307,4.84,4.8715,4.9797,5.0259,0.0,0.0,0.0,0.0,0.0,0.0,0.0,0.0,0.0,0.0,0.0,0.0,0.0,0.0,0.0,2.4245,0.0,0.0,2.4276,0.0,0.0,0.0,0.0,0.0,0.0,0.0,0.0,0.0,0.0,0.0,0.0,0.0,0.0,0.0,0.0,0.0,0.0,0.0,0.0,0.0,0.0,4.6452,4.3998,5.0469,5.2577,5.0157,5.1262,5.1452,5.0384,4.9209,4.8092,4.6892,0.0,0.0,0.0,0.0,0.0,0.0,0.0,0.0,0.0,0.0,0.0,0.0,0.0,0.0,0.0,0.0,0.0,0.0,0.0,0.0,0.0,0.0,0.0,0.0,0.0,0.0,2.7121,3.1347,3.618,0.0,0.0,0.0,0.0,0.0,0.0,0.0,0.0,0.0,0.0,4.8445,4.8948,5.0311,5.2768,5.3926,5.2839,5.3751,5.458,5.458,5.3567,5.3545,0.0,0.0,0.0,0.0,0.0,0.0,0.0,0.0,0.0,0.0,0.0,0.0,0.0,0.0,0.0,0.0,0.0,0.0,0.0,0.0,0.0,0.0,0.0,0.0,0.0,0.0,0.0,0.0,0.0,0.0,0.0,0.0,0.0,0.0,0.0,0.0,0.0,0.0,0.0,0.0,0.0,0.0,0.0,0.0,0.0,0.0,0.0,0.0,0.0,0.0,0.0,0.0,0.0,0.0,4.4841,4.5265,5.0672,5.2744,5.1357,5.2402,5.2464,5.1448,4.9565,4.845,0.0,0.0,0.0,0.0,0.0,0.0,0.0,0.0,0.0,0.0,0.0,0.0,0.0,0.0,0.0,0.0,0.0,0.0,0.0,0.0,0.0,0.0,0.0,0.0,0.0,0.0,0.0,0.0,3.5574,3.8052,3.8346,0.0,0.0,0.0,0.0,0.0,0.0,0.0,0.0,0.0,0.0,4.6539,4.8875,5.0638,5.1949,5.2594,5.3014,5.326,5.326,5.2952,5.3238,5.4949,0.0,0.0,0.0,0.0,0.0,0.0,0.0,0.0,0.0,0.0,0.0,0.0,0.0,0.0,0.0,0.0,0.0,0.0,0.0,0.0,0.0,0.0,0.0,0.0,0.0,0.0,0.0,0.0,0.0,0.0,0.0,0.0,0.0,0.0,0.0,0.0,0.0,0.0,0.0,0.0,0.0,0.0,0.0,0.0,0.0,0.0,0.0,0.0,0.0,0.0,0.0,0.0,0.0,4.3481,4.4432,5.0382,5.2684,5.1149,5.2573,5.265,5.1065,4.9262,4.7939,0.0,0.0,0.0,0.0,0.0,0.0,0.0,0.0,0.0,0.0,0.0,0.0,0.0,0.0,0.0,0.0,0.0,0.0,0.0,0.0,0.0,0.0,0.0,0.0,0.0,0.0,0.0,0.0,3.3432,3.5642,3.4821,0.0,0.0,0.0,0.0,0.0,0.0,0.0,0.0,0.0,0.0,4.531,4.7473,4.9359,0.0,0.0,5.1509,5.1673,5.1171,5.113,5.1376,5.2195,5.1191,0.0,0.0,0.0,0.0,0.0,0.0,0.0,0.0,0.0,0.0,0.0,0.0,0.0,0.0,0.0,0.0,0.0,0.0,0.0,0.0,0.0,0.0,0.0,0.0,0.0,0.0,0.0,0.0,0.0,0.0,0.0,0.0,0.0,0.0,0.0,0.0,0.0,0.0,0.0,0.0,0.0,0.0,0.0,0.0,0.0,0.0,0.0,0.0,0.0,0.0,0.0,0.0,4.2323,4.2423,4.9796,5.2355,4.9809,5.2099,5.2218,4.9801,4.8489,4.6904,0.0,0.0,0.0,0.0,0.0,0.0,0.0,0.0,0.0,0.0,0.0,0.0,0.0,0.0,0.0,0.0,0.0,0.0,0.0,0.0,0.0,0.0,0.0,0.0,0.0,0.0,0.0,0.0,0.0,0.0,0.0,0.0,0.0,0.0,0.0,0.0,0.0,0.0,0.0,0.0,0.0,4.4708,4.6392,4.8756,4.9942,0.0,4.9624,4.9962,4.8679,4.8372,4.8341,4.8464,0.0,0.0,0.0,0.0,0.0,0.0,0.0,0.0,0.0,0.0,0.0,0.0,0.0,0.0,0.0,0.0,0.0,0.0,0.0,0.0,0.0,0.0,0.0,0.0,0.0,0.0,0.0,0.0,0.0,0.0,0.0,0.0,0.0,0.0,0.0,0.0,0.0,0.0,0.0,0.0,0.0,0.0,0.0,0.0,0.0,0.0,0.0,0.0,0.0,0.0,0.0,0.0,0.0,0.0,4.3923,4.9494,5.1588,5.0142,5.3295,5.3741,5.1073,4.9225,0.0,0.0,0.0,0.0,0.0,0.0,0.0,0.0,0.0,0.0,0.0,0.0,0.0,0.0,0.0,0.0,0.0,0.0,0.0,0.0,0.0,0.0,0.0,0.0,0.0,0.0,0.0,1.9335,0.0,0.0,0.0,0.0,0.0,0.0,0.0,0.0,0.0,0.0,0.0,0.0,0.0,0.0,4.1926,4.7338,4.8629,4.8987,0.0,0.0,4.8599,4.719,4.6183,4.5863,0.0,0.0,0.0,0.0,0.0,0.0,0.0,0.0,0.0,0.0,0.0,0.0,0.0,0.0,0.0,0.0,0.0,0.0,0.0,0.0,0.0,0.0,0.0,0.0,0.0,0.0,0.0,0.0,0.0,0.0,0.0,0.0,0.0,0.0,0.0,0.0,0.0,0.0,0.0,0.0,0.0,0.0,0.0,0.0,0.0,0.0,0.0,0.0,0.0,0.0,0.0,0.0,0.0,0.0,4.0395,4.2847,4.8283,5.0528,4.9462,5.2342,5.2683,4.9993,4.8019,4.5492,0.0,0.0,0.0,0.0,0.0,0.0,0.0,0.0,0.0,0.0,0.0,0.0,0.0,0.0,0.0,0.0,0.0,0.0,0.0,0.0,0.0,0.0,0.0,0.0,0.0,0.0,0.0,0.0,0.0,0.0,0.0,0.0,0.0,0.0,0.0,0.0,0.0,0.0,0.0,0.0,0.0,0.0,4.5468,4.7461,0.0,0.0,0.0,4.8783,4.676,0.0,0.0,0.0,0.0,0.0,0.0,0.0,0.0,0.0,0.0,0.0,0.0,0.0,0.0,0.0,0.0,0.0,0.0,0.0,0.0,0.0,0.0,0.0,0.0,0.0,0.0,0.0,0.0,0.0,0.0,0.0,0.0,0.0,0.0,0.0,0.0,0.0,0.0,0.0,0.0,0.0,0.0,0.0,0.0,0.0,0.0,0.0,0.0,0.0,0.0,0.0,0.0,0.0,0.0,0.0,0.0,0.0,4.0835,4.7087,4.9726,4.8495,5.0963,5.0929,4.7878,4.6292,4.411,0.0,0.0,0.0,0.0,0.0,0.0,0.0,0.0,0.0,0.0,0.0,0.0,0.0,0.0,0.0,0.0,0.0,0.0,0.0,0.0,0.0,0.0,0.0,0.0,0.0,0.0,0.0,0.0,0.0,0.0,0.0,0.0,0.0,0.0,0.0,0.0,0.0,0.0,0.0,0.0,0.0,4.255,4.2579,4.5894,4.7388,0.0,0.0,4.894,4.6392,4.5606,0.0,0.0,0.0,0.0,0.0,0.0,0.0,0.0,0.0,0.0,0.0,0.0,0.0,0.0,0.0,0.0,0.0,0.0,0.0,0.0,0.0,0.0,0.0,0.0,0.0,0.0,0.0,0.0,0.0,0.0,0.0,0.0,0.0,0.0,0.0,0.0,0.0,0.0,0.0,0.0,0.0,0.0,0.0,0.0,0.0,0.0,0.0,0.0,0.0,0.0,0.0,0.0,0.0,0.0,0.0,0.0,4.2152,4.8698,5.0987,4.8798,5.2963,5.2901,4.8029,4.7691,4.5089,0.0,0.0,0.0,0.0,0.0,0.0,0.0,0.0,0.0,0.0,0.0,0.0,0.0,0.0,0.0,0.0,0.0,0.0,0.0,0.0,0.0,0.0,0.0,0.0,0.0,0.0,0.0,0.0,0.0,0.0,0.0,0.0,0.0,0.0,0.0,0.0,0.0,0.0,0.0,0.0,0.0,3.8915,4.2096,4.5059,0.0,0.0,0.0,0.0,4.3584,4.0574,0.0,0.0,0.0,0.0,0.0,0.0,0.0,0.0,0.0,0.0,0.0,0.0,0.0,0.0,0.0,0.0,0.0,0.0,0.0,0.0,0.0,0.0,0.0,0.0,0.0,0.0,0.0,0.0,0.0,0.0,0.0,0.0,0.0,0.0,0.0,0.0,0.0,0.0,0.0,0.0,0.0,0.0,0.0,0.0,0.0,0.0,0.0,0.0,0.0,0.0,0.0,0.0,0.0,0.0,0.0,0.0,4.2554,4.7221,4.9269,4.8578,5.166,5.1595,4.7938,4.6472,4.3542,0.0,0.0,0.0,0.0,0.0,0.0,0.0,0.0,0.0,0.0,0.0,0.0,0.0,0.0,0.0,0.0,0.0,0.0,0.0,0.0,0.0,0.0,0.0,0.0,0.0,0.0,0.0,0.0,0.0,0.0,0.0,0.0,0.0,0.0,0.0,0.0,0.0,0.0,0.0,0.0,3.6556,3.773,4.0223,0.0,0.0,0.0,0.0,0.0,0.0,3.9177,3.7641,0.0,0.0,0.0,0.0,0.0,0.0,0.0,0.0,0.0,0.0,0.0,0.0,0.0,0.0,0.0,0.0,0.0,0.0,0.0,0.0,0.0,0.0,0.0,0.0,0.0,0.0,0.0,0.0,0.0,0.0,0.0,0.0,0.0,0.0,0.0,0.0,0.0,0.0,0.0,0.0,0.0,0.0,0.0,0.0,0.0,0.0,0.0,0.0,0.0,0.0,0.0,0.0,0.0,0.0,0.0,4.1834,4.5151,4.728,4.8239,4.9643,4.9675,4.818,4.4995,4.1523,3.7756,0.0,0.0,0.0,0.0,0.0,0.0,0.0,0.0,0.0,0.0,0.0,0.0,0.0,0.0,0.0,0.0,0.0,0.0,0.0,0.0,0.0,0.0,0.0,0.0,0.0,0.0,0.0,0.0,0.0,0.0,0.0,0.0,0.0,0.0,0.0,0.0,0.0,0.0,0.0,3.5349,3.6736,0.0,0.0,0.0,0.0,0.0,0.0,0.0,0.0,3.7473,0.0,0.0,0.0,0.0,0.0,0.0,0.0,0.0,0.0,0.0,0.0,0.0,0.0,0.0,0.0,0.0,0.0,0.0,0.0,0.0,0.0,0.0,0.0,0.0,0.0,0.0,0.0,0.0,0.0,0.0,0.0,0.0,0.0,0.0,0.0,0.0,0.0,0.0,0.0,0.0,0.0,0.0,0.0,0.0,0.0,0.0,0.0,0.0,0.0,0.0,0.0,0.0,0.0,0.0,0.0,0.0,4.5156,4.8353,4.8591,4.9841,5.0293,4.9747,4.5913,4.1502,3.6593,0.0,0.0,0.0,0.0,0.0,0.0,0.0,0.0,0.0,0.0,0.0,0.0,0.0,0.0,0.0,0.0,0.0,0.0,0.0,0.0,0.0,0.0,0.0,0.0,0.0,0.0,0.0,0.0,0.0,0.0,0.0,0.0,0.0,0.0,0.0,0.0,0.0,0.0,2.88,3.131,0.0,0.0,0.0,0.0,0.0,0.0,0.0,0.0,3.4158,0.0,0.0,0.0,0.0,0.0,0.0,0.0,0.0,0.0,0.0,0.0,0.0,0.0,0.0,0.0,0.0,0.0,0.0,0.0,0.0,0.0,0.0,0.0,0.0,0.0,0.0,0.0,0.0,0.0,0.0,0.0,0.0,0.0,0.0,0.0,0.0,0.0,0.0,0.0,0.0,0.0,0.0,0.0,0.0,0.0,0.0,0.0,0.0,0.0,0.0,0.0,0.0,0.0,0.0,0.0,0.0,0.0,0.0,4.6748,4.7403,4.8612,4.9206,4.8774,4.5064,4.0856,0.0,0.0,0.0,0.0,0.0,0.0,0.0,0.0,0.0,0.0,0.0,0.0,0.0,0.0,0.0,0.0,0.0,0.0,0.0,0.0,0.0,0.0,0.0,0.0,0.0,0.0,0.0,0.0,0.0,0.0,0.0,0.0,0.0,0.0,0.0,0.0,0.0,0.0,0.0,0.0,0.0,0.0,0.0,0.0,0.0,0.0,0.0,0.0,0.0,0.0,0.0,0.0,0.0,0.0,0.0,0.0,0.0,0.0,0.0,0.0,0.0,0.0,0.0,0.0,0.0,0.0,0.0,0.0,0.0,0.0,0.0,0.0,0.0,0.0,0.0,0.0,0.0,0.0,0.0,0.0,0.0,0.0,0.0,0.0,0.0,0.0,0.0,0.0,0.0,0.0,0.0,0.0,0.0,0.0,0.0,0.0,0.0,0.0,0.0,0.0,0.0,0.0,0.0,0.0,0.0,0.0,0.0,0.0,4.4772,4.628,4.7312,4.7887,4.7964,4.3771,3.9905,0.0,0.0,0.0,0.0,0.0,0.0,0.0,0.0,0.0,0.0,0.0,0.0,0.0,0.0,0.0,0.0,0.0,0.0,0.0,0.0,0.0,0.0,0.0,0.0,0.0,0.0,0.0,0.0,0.0,0.0,0.0,0.0,0.0,0.0,0.0,0.0,0.0,0.0,0.0,0.0,0.0,0.0,0.0,0.0,0.0,0.0,0.0,0.0,2.9633,0.0,0.0,0.0,0.0,0.0,0.0,0.0,0.0,0.0,0.0,0.0,0.0,0.0,0.0,0.0,0.0,0.0,0.0,0.0,0.0,0.0,0.0,0.0,0.0,0.0,0.0,0.0,0.0,0.0,0.0,0.0,0.0,0.0,0.0,0.0,0.0,0.0,0.0,0.0,0.0,0.0,0.0,0.0,0.0,0.0,0.0,0.0,0.0,0.0,0.0,0.0,0.0,0.0,0.0,0.0,0.0,0.0,0.0,0.0,4.3857,4.6336,4.6551,4.7214,4.8276,4.2476,3.8529,0.0,0.0,0.0,0.0,0.0,0.0,0.0,0.0,0.0,0.0,0.0,0.0,0.0,0.0,0.0,0.0,0.0,0.0,0.0,0.0,0.0,0.0,0.0,0.0,0.0,0.0,0.0,0.0,0.0,0.0,0.0,0.0,0.0,0.0,0.0,0.0,0.0,0.0,0.0,0.0,0.0,0.0,0.0,0.0,0.0,0.0,0.0,0.0,0.0,0.0,0.0,0.0,0.0,0.0,0.0,0.0,0.0,0.0,0.0,0.0,0.0,0.0,0.0,0.0,0.0,0.0,0.0,0.0,0.0,0.0,0.0,0.0,0.0,0.0,0.0,0.0,0.0,0.0,0.0,0.0,0.0,0.0,0.0,0.0,0.0,0.0,0.0,0.0,0.0,0.0,0.0,0.0,0.0,0.0,0.0,0.0,0.0,0.0,0.0,0.0,0.0,0.0,0.0,0.0,0.0,0.0,0.0,0.0,4.1817,4.2922,4.4488,4.4475,4.2803,4.081,3.789,0.0,0.0,0.0,0.0,0.0,0.0,0.0,0.0,0.0,0.0,0.0,0.0,0.0,0.0,0.0,0.0,0.0,0.0,0.0,0.0,0.0,0.0,0.0,0.0,0.0,0.0,0.0,0.0,0.0,0.0,0.0,0.0,0.0,0.0,0.0,0.0,0.0,0.0,0.0,0.0,0.0,0.0,0.0,0.0,0.0,0.0,0.0,0.0,0.0,0.0,0.0,0.0,0.0,0.0,0.0,0.0,0.0,0.0,0.0,0.0,0.0,0.0,0.0,0.0,0.0,0.0,0.0,0.0,0.0,0.0,0.0,0.0,0.0,0.0,0.0,0.0,0.0,0.0,0.0,0.0,0.0,0.0,0.0,0.0,0.0,0.0,0.0,0.0,0.0,0.0,0.0,0.0,0.0,0.0,0.0,0.0,0.0,0.0,0.0,0.0,0.0,0.0,0.0,0.0,0.0,0.0,0.0,0.0,0.0,3.996,4.1512,4.0959,3.8071,3.8471,3.6503,0.0,0.0,0.0,0.0,0.0,0.0,0.0,0.0,0.0,0.0,0.0,0.0,0.0,0.0,0.0,0.0,0.0,0.0,0.0,0.0,0.0,0.0,0.0,0.0,0.0,0.0,0.0,0.0,0.0,0.0,0.0,0.0,0.0,0.0,0.0,0.0,0.0,0.0,0.0,0.0,0.0,0.0,0.0,0.0,0.0,0.0,0.0,0.0,0.0,0.0,0.0,0.0,0.0,0.0,0.0,0.0,0.0,0.0,0.0,0.0,0.0,0.0,0.0,0.0,0.0,0.0,0.0,0.0,0.0,0.0,0.0,0.0,0.0,0.0,0.0,0.0,0.0,0.0,0.0,0.0,0.0,0.0,0.0,0.0,0.0,0.0,0.0,0.0,0.0,0.0,0.0,0.0,0.0,0.0,0.0,0.0,0.0,0.0,0.0,0.0,0.0,0.0,0.0,0.0,0.0,0.0,0.0,0.0,0.0,3.8609,3.7411,3.6766,3.643,3.5287,3.3737,0.0,0.0,0.0,0.0,0.0,0.0,0.0,0.0,0.0,0.0,0.0,0.0,0.0,0.0,0.0,0.0,0.0,0.0,0.0,0.0,0.0,0.0,0.0,0.0,0.0,0.0,0.0,0.0,0.0,0.0,0.0,0.0,0.0,0.0,0.0,0.0,0.0,0.0,0.0,0.0,0.0,0.0,0.0,0.0,0.0,0.0,0.0,0.0,0.0,0.0,0.0,0.0,0.0,0.0,0.0,0.0,0.0,0.0,0.0,0.0,0.0,0.0,0.0,0.0,0.0,0.0,0.0,0.0,0.0,0.0,0.0,0.0,0.0,0.0,0.0,0.0,0.0,0.0,0.0,0.0,0.0,0.0,0.0,0.0,0.0,0.0,0.0,0.0,0.0,0.0,0.0,0.0,0.0,0.0,0.0,0.0,0.0,0.0,0.0,0.0,0.0,0.0,0.0,0.0,0.0,0.0,0.0,0.0,0.0,3.468,3.5693,3.5953,3.5141,3.4594,3.325,3.0898,0.0,0.0,0.0,0.0,0.0,0.0,0.0,0.0,0.0,0.0,0.0,0.0,0.0,0.0,0.0,0.0,0.0,0.0,0.0,0.0,0.0,0.0,0.0,0.0,0.0,0.0,0.0,0.0,0.0,0.0,0.0,0.0,0.0,0.0,0.0,0.0,0.0,0.0,0.0,0.0,0.0,0.0,0.0,0.0,0.0,0.0,0.0,0.0,0.0,0.0,0.0,0.0,0.0,0.0,0.0,0.0,0.0,0.0,0.0,0.0,0.0,0.0,0.0,0.0,0.0,0.0,0.0,0.0,0.0,0.0,0.0,0.0,0.0,0.0,0.0,0.0,0.0,0.0,0.0,0.0,0.0,0.0,0.0,0.0,0.0,0.0,0.0,0.0,0.0,0.0,0.0,0.0,0.0,0.0,0.0,0.0,0.0,0.0,0.0,0.0,0.0,0.0,0.0,0.0,0.0,0.0,0.0,0.0,3.2274,3.4557,3.5294,3.4465,3.3947,3.2414,0.0,0.0,0.0,0.0,0.0,0.0,0.0,0.0,0.0,0.0,0.0,0.0,0.0,0.0,0.0,0.0,0.0,0.0,0.0,0.0,0.0,0.0,0.0,0.0,0.0,0.0,0.0,0.0,0.0,0.0,0.0,0.0,0.0,0.0,0.0,0.0,0.0,0.0,0.0,0.0,0.0,0.0,0.0,0.0,0.0,0.0,0.0,0.0,0.0,0.0,0.0,0.0,0.0,0.0,0.0,0.0,0.0,0.0,0.0,0.0,0.0,0.0,0.0,0.0,0.0,0.0,0.0,0.0,0.0,0.0,0.0,0.0,0.0,0.0,0.0,0.0,0.0,0.0,0.0,0.0,0.0,0.0,0.0,0.0,0.0,0.0,0.0,0.0,0.0,0.0,0.0,0.0,0.0,0.0,0.0,0.0,0.0,0.0,0.0,0.0,0.0,0.0,0.0,0.0,0.0,0.0,0.0,0.0,2.8277,3.2046,3.3623,3.4404,3.436,3.3058,3.112,0.0,0.0,0.0,0.0,0.0,0.0,0.0,0.0,0.0,0.0,0.0,0.0,0.0,0.0,0.0,0.0,0.0,0.0,0.0,0.0,0.0,0.0,0.0,0.0,0.0,0.0,0.0,0.0,0.0,0.0,0.0,0.0,0.0,0.0,0.0,0.0,0.0,0.0,0.0,0.0,0.0,0.0,0.0,0.0,0.0,0.0,0.0,0.0,0.0,0.0,0.0,0.0,0.0,0.0,0.0,0.0,0.0,0.0,0.0,0.0,0.0,0.0,0.0,0.0,0.0,0.0,0.0,0.0,0.0,0.0,0.0,0.0,0.0,0.0,0.0,0.0,0.0,0.0,0.0,0.0,0.0,0.0,0.0,0.0,0.0,0.0,0.0,0.0,0.0,0.0,0.0,0.0,0.0,0.0,0.0,0.0,0.0,0.0,0.0,0.0,0.0,0.0,0.0,0.0,0.0,0.0,0.0,0.0,0.0,2.8185,0.0,3.3395,3.4298,3.301,3.142,0.0,0.0,0.0,0.0,0.0,0.0,0.0,0.0,0.0,0.0,0.0,0.0,0.0,0.0,0.0,0.0,0.0,0.0,0.0,0.0,0.0,0.0,0.0,0.0,0.0,0.0,0.0,0.0,0.0,0.0,0.0,0.0,0.0,0.0,0.0,0.0,0.0,0.0,0.0,0.0,0.0,0.0,0.0,0.0,0.0,0.0,0.0,0.0,0.0,0.0,0.0,0.0,0.0,0.0,0.0,0.0,0.0,0.0,0.0,0.0,0.0,0.0,0.0,0.0,0.0,0.0,0.0,0.0,0.0,0.0,0.0,0.0,0.0,0.0,0.0,0.0,0.0,0.0,0.0,0.0,0.0,0.0,0.0,0.0,0.0,0.0,0.0,0.0,0.0,0.0,0.0,0.0,0.0,0.0,0.0,0.0,0.0,0.0,0.0,0.0,0.0,0.0,0.0,0.0,0.0,0.0,0.0,0.0,0.0,2.833,3.0008,3.1734,3.347,3.2299,3.0911,0.0,0.0,0.0,0.0,0.0,0.0,0.0,0.0,0.0,0.0,0.0,0.0,0.0,0.0,0.0,0.0,0.0,0.0,0.0,0.0,0.0,0.0,0.0,0.0,0.0,0.0,0.0,0.0,0.0,0.0,0.0,0.0,0.0,0.0,0.0,0.0,0.0,0.0,0.0,0.0,0.0,0.0,0.0,0.0,0.0,0.0,0.0,0.0,0.0,0.0,0.0,0.0,0.0,0.0,0.0,0.0,0.0,0.0,0.0,0.0,0.0,0.0,0.0,0.0,0.0,0.0,0.0,0.0,0.0,0.0,0.0,0.0,0.0,0.0,0.0,0.0,0.0,0.0,0.0,0.0,0.0,0.0,0.0,0.0,0.0,0.0,0.0,0.0,0.0,0.0,0.0,0.0,0.0,0.0,0.0,0.0,0.0,0.0,0.0,0.0,0.0,0.0,0.0,0.0,0.0,0.0,0.0,0.0,0.0,3.1427,2.9505,2.9517,3.1949,3.0887,2.9574,0.0,0.0,0.0,0.0,0.0,0.0,0.0,0.0,0.0,0.0,0.0,0.0,0.0,0.0,0.0,0.0,0.0,0.0,0.0,0.0,0.0,0.0,0.0,0.0,0.0,0.0,0.0,0.0,0.0,0.0,0.0,0.0,0.0,0.0,0.0,0.0,0.0,0.0,0.0,0.0,0.0,0.0,0.0,0.0,0.0,0.0,0.0,0.0,0.0,0.0,0.0,0.0,0.0,0.0,0.0,0.0,0.0,0.0,0.0,0.0,0.0,0.0,0.0,0.0,0.0,0.0,0.0,0.0,0.0,0.0,0.0,0.0,0.0,0.0,0.0,0.0,0.0,0.0,0.0,0.0,0.0,0.0,0.0,0.0,0.0,0.0,0.0,0.0,0.0,0.0,0.0,0.0,0.0,0.0,0.0,0.0,0.0,0.0,0.0,0.0,0.0,0.0,0.0,0.0,0.0,0.0,0.0,0.0,0.0,0.0,2.6711,2.7696,2.9309,2.9029,2.8103,2.6654,0.0,0.0,0.0,0.0,0.0,0.0,0.0,0.0,0.0,0.0,0.0,0.0,0.0,0.0,0.0,0.0,0.0,0.0,0.0,0.0,0.0,0.0,0.0,0.0,0.0,0.0,0.0,0.0,0.0,0.0,0.0,0.0,0.0,0.0,0.0,0.0,0.0,0.0,0.0,0.0,0.0,0.0,0.0,0.0,0.0,0.0,0.0,0.0,0.0,0.0,0.0,0.0,0.0,0.0,0.0,0.0,0.0,0.0,0.0,0.0,0.0,0.0,0.0,0.0,0.0,0.0,0.0,0.0,0.0,0.0,0.0,0.0,0.0,0.0,0.0,0.0,0.0,0.0,0.0,0.0,0.0,0.0,0.0,0.0,0.0,0.0,0.0,0.0,0.0,0.0,0.0,0.0,0.0,0.0,0.0,0.0,0.0,0.0,0.0,0.0,0.0,0.0,0.0,0.0,0.0,0.0,0.0,0.0,0.0,0.0,2.6384,2.833,2.7731,2.6885,0.0,0.0,0.0,0.0,0.0,0.0,0.0,0.0,0.0,0.0,0.0,0.0,0.0,0.0,0.0,0.0,0.0,0.0,0.0,0.0,0.0,0.0,0.0,0.0,0.0,0.0,0.0,0.0,0.0,0.0,0.0,0.0,0.0,0.0,0.0,0.0,0.0,0.0,0.0,0.0,0.0,0.0,0.0,0.0,0.0,0.0,0.0,0.0,0.0,0.0,0.0,0.0,0.0,0.0,0.0,0.0,0.0,0.0,0.0,0.0,0.0,0.0,0.0,0.0,0.0,0.0,0.0,0.0,0.0,0.0,0.0,0.0,0.0,0.0,0.0,0.0,0.0,0.0,0.0,0.0,0.0,0.0,0.0,0.0,0.0,0.0,0.0,0.0,0.0,0.0,0.0,0.0,0.0,0.0,0.0,0.0,0.0,0.0,0.0,0.0,0.0,0.0,0.0,0.0,0.0,0.0,0.0,0.0,0.0,0.0,0.0,2.5575,2.7889,2.6998,0.0,2.5188,0.0,0.0,0.0,0.0,0.0,0.0,0.0,0.0,0.0,0.0,0.0,0.0,0.0,0.0,0.0,0.0,0.0,0.0,0.0,0.0,0.0,0.0,0.0,0.0,0.0,0.0,0.0,0.0,0.0,0.0,0.0,0.0,0.0,0.0,0.0,0.0,0.0,0.0,0.0,0.0,0.0,0.0,0.0,0.0,0.0,0.0,0.0,0.0,0.0,0.0,0.0,0.0,0.0,0.0,0.0,0.0,0.0,0.0,0.0,0.0,0.0,0.0,0.0,0.0,0.0,0.0,0.0,0.0,0.0,0.0,0.0,0.0,0.0,0.0,0.0,0.0,0.0,0.0,0.0,0.0,0.0,0.0,0.0,0.0,0.0,0.0,0.0,0.0,0.0,0.0,0.0,0.0,0.0,0.0,0.0,0.0,0.0,0.0,0.0,0.0,0.0,0.0,0.0,0.0,0.0,0.0,0.0,0.0,0.0,0.0,0.0,0.0,2.6948,2.6779,2.4509,0.0,0.0,0.0,0.0,0.0,0.0,0.0,0.0,0.0,0.0,0.0,0.0,0.0,0.0,0.0,0.0,0.0,0.0,0.0,0.0,0.0,0.0,0.0,0.0,0.0,0.0,0.0,0.0,0.0,0.0,0.0,0.0,0.0,0.0,0.0,0.0,0.0,0.0,0.0,0.0,0.0,0.0,0.0,0.0,0.0,0.0,0.0,0.0,0.0,0.0,0.0,0.0,0.0,0.0,0.0,0.0,0.0,0.0,0.0,0.0,0.0,0.0,0.0,0.0,0.0,0.0,0.0,0.0,0.0,0.0,0.0,0.0,0.0,0.0,0.0,0.0,0.0,0.0,0.0,0.0,0.0,0.0,0.0,0.0,0.0,0.0,0.0,0.0,0.0,0.0,0.0,0.0,0.0,0.0,0.0,0.0,0.0,0.0,0.0,0.0,0.0,0.0,0.0,0.0,0.0,0.0,0.0,0.0,0.0,0.0,2.5616,2.4409,2.6292,2.6394,2.4321,0.0,0.0,0.0,0.0,0.0,0.0,0.0,0.0,0.0,0.0,0.0,0.0,0.0,0.0,0.0,0.0,0.0,0.0,0.0,0.0,0.0,0.0,0.0,0.0,0.0,0.0,0.0,0.0,0.0,0.0,0.0,0.0,0.0,0.0,0.0,0.0,0.0,0.0,0.0,0.0,0.0,0.0,0.0,0.0,0.0,0.0,0.0,0.0,0.0,0.0,0.0,0.0,0.0,0.0,0.0,0.0,0.0,0.0,0.0,0.0,0.0,0.0,0.0,0.0,0.0,0.0,0.0,0.0,0.0,0.0,0.0,0.0,0.0,0.0,0.0,0.0,0.0,0.0,0.0,0.0,0.0,0.0,0.0,0.0,0.0,0.0,0.0,0.0,0.0,0.0,0.0,0.0,0.0,0.0,0.0,0.0,0.0,0.0,0.0,0.0,0.0,0.0,0.0,0.0,0.0,0.0,0.0,0.0,0.0,0.0,0.0,0.0,0.0,0.0,2.4644,0.0,0.0,0.0,0.0,0.0,0.0,0.0,0.0,0.0,0.0,0.0,0.0,0.0,0.0,0.0,0.0,0.0,0.0,0.0,0.0,0.0,0.0,0.0,0.0,0.0,0.0,0.0,0.0,0.0,0.0,0.0,0.0,0.0,0.0,0.0,0.0,0.0,0.0,0.0,0.0,0.0,0.0,0.0,0.0,0.0,0.0,0.0,0.0,0.0,0.0,0.0,0.0,0.0,0.0,0.0,0.0,0.0,0.0,0.0,0.0,0.0,0.0,0.0,0.0,0.0,0.0,0.0,0.0,0.0,0.0,0.0,0.0,0.0,0.0,0.0,0.0,0.0,0.0,0.0,0.0,0.0,0.0,0.0,0.0,0.0,0.0,0.0,0.0,0.0,0.0,0.0,0.0,0.0,0.0,0.0,0.0,0.0,0.0,0.0,0.0,0.0,0.0,0.0,0.0,0.0,0.0,0.0,0.0,0.0,0.0,0.0,0.0,0.0,0.0,0.0,0.0,0.0,0.0,0.0,0.0,0.0,0.0,0.0,0.0,0.0,0.0,0.0,0.0,0.0,0.0,0.0,0.0,0.0,0.0,0.0,0.0,0.0,0.0,0.0,0.0,0.0,0.0,0.0,0.0,0.0,0.0,0.0,0.0,0.0,0.0,0.0,0.0,0.0,0.0,0.0,0.0,0.0,0.0,0.0,0.0,0.0,0.0,0.0,0.0,0.0,0.0,0.0,0.0,0.0,0.0,0.0,0.0,0.0,0.0,0.0,0.0,0.0,0.0,0.0,0.0,0.0,0.0,0.0,0.0,0.0,0.0,0.0,0.0,0.0,0.0,0.0,0.0,0.0,0.0,0.0,0.0,0.0,0.0,0.0,0.0,0.0,0.0,0.0,0.0,0.0,0.0,0.0,0.0,0.0,0.0,0.0,0.0,0.0,0.0,0.0,0.0,0.0,0.0,0.0,0.0,0.0,0.0,0.0,0.0,0.0,0.0,0.0,0.0,0.0,0.0,0.0,0.0,0.0,0.0,0.0,0.0,0.0,0.0,0.0,0.0,0.0,0.0,0.0,0.0,0.0,0.0,0.0,0.0,0.0,0.0,0.0,0.0,0.0,0.0,0.0,0.0,0.0,0.0,0.0,0.0,0.0,0.0,0.0,0.0,0.0,0.0,0.0,0.0,0.0,0.0,0.0,0.0,0.0,0.0,0.0,0.0,0.0,0.0,0.0,0.0,0.0,0.0,0.0,0.0,0.0,0.0,0.0,0.0,0.0,0.0,0.0,0.0,0.0,0.0,0.0,0.0,0.0,0.0,0.0,0.0,0.0,0.0,0.0,0.0,0.0,0.0,0.0,0.0,0.0,0.0,0.0,0.0,0.0,0.0,0.0,0.0,0.0,0.0,0.0,0.0,0.0,0.0,0.0,0.0,0.0,0.0,0.0,0.0,0.0,0.0,0.0,0.0,0.0,0.0,0.0,0.0,0.0,0.0,0.0,0.0,0.0,0.0,0.0,0.0,0.0,0.0,0.0,0.0,0.0,0.0,0.0,0.0,0.0,0.0,0.0,0.0,0.0,0.0,0.0,0.0,0.0,0.0,0.0,0.0,0.0,0.0,0.0,0.0,0.0,0.0,0.0,0.0,0.0,0.0,0.0,0.0,0.0,0.0,0.0,0.0,0.0,0.0,0.0,0.0,0.0,0.0,0.0,0.0,0.0,0.0,0.0,0.0,0.0,0.0,0.0,0.0,0.0,0.0,0.0,0.0,0.0,0.0,0.0,0.0,0.0,0.0,0.0,0.0,0.0,0.0,0.0,0.0,0.0,0.0,0.0,0.0,0.0,0.0,0.0,0.0,0.0,0.0,0.0,0.0,0.0,0.0,0.0,0.0,0.0,0.0,0.0,0.0,0.0,0.0,0.0,0.0,0.0,0.0,0.0,0.0,0.0,0.0,0.0,0.0,0.0,0.0,0.0,0.0,0.0,0.0,0.0,0.0,0.0,0.0,0.0,0.0,0.0,0.0,0.0,0.0,0.0,0.0,0.0,0.0,0.0,0.0,0.0,0.0,0.0,0.0,0.0,0.0,0.0,0.0,0.0,0.0,0.0,0.0,0.0,0.0,0.0,0.0,0.0,0.0,0.0,0.0,0.0,0.0,0.0,0.0,0.0,0.0,0.0,0.0,0.0,0.0,0.0,0.0,0.0,0.0,0.0,0.0,0.0,0.0,0.0,0.0,0.0,0.0,0.0,0.0,0.0,0.0,0.0,0.0,0.0,0.0,0.0,0.0,0.0,0.0,0.0,0.0,0.0,0.0,0.0,0.0,0.0,0.0,0.0,0.0,0.0,0.0,0.0,0.0,0.0,0.0,0.0,0.0,0.0,0.0,0.0,0.0,0.0,0.0,0.0,0.0,0.0,0.0,0.0,0.0,0.0,0.0,0.0,0.0,0.0,0.0,0.0,0.0,0.0,0.0,0.0,0.0,0.0,0.0,0.0,0.0,0.0,0.0,0.0,0.0,0.0,0.0,0.0,0.0,0.0,0.0,0.0,0.0,0.0,0.0,0.0,0.0,0.0,0.0,0.0,0.0,0.0,0.0,0.0,0.0,0.0,0.0,0.0,0.0,0.0,0.0,0.0,0.0,0.0,0.0,0.0,0.0,0.0,0.0,0.0,0.0,0.0,0.0,0.0,0.0,0.0,0.0,0.0,0.0,0.0,0.0,0.0,0.0,0.0,0.0,0.0,0.0,0.0,0.0,0.0,0.0,0.0,0.0,0.0,0.0,0.0,0.0,0.0,0.0,0.0,0.0,0.0,0.0,0.0,0.0,0.0,0.0,0.0,0.0,0.0,0.0,0.0,0.0,0.0,0.0,0.0,0.0,0.0,0.0,0.0,0.0,0.0,0.0,0.0,0.0,0.0,0.0,0.0,0.0,0.0,0.0,0.0,0.0,0.0,0.0,0.0,0.0,0.0,0.0,0.0,0.0,0.0,0.0,0.0,0.0,0.0,0.0,0.0,0.0,0.0,0.0,0.0,0.0,0.0,0.0,0.0,0.0,0.0,0.0,0.0,0.0,0.0,0.0,0.0,0.0,0.0,0.0,0.0,0.0,0.0,0.0,0.0,0.0,0.0,0.0,0.0,0.0,0.0,0.0,0.0,0.0,0.0,0.0,0.0,0.0,0.0,0.0,0.0,0.0,0.0,0.0,0.0,0.0,0.0,0.0,0.0,0.0,0.0,0.0,0.0,0.0,0.0,0.0,0.0,0.0,0.0,0.0,0.0,0.0,0.0,0.0,0.0,0.0,0.0,0.0,0.0,0.0,0.0,0.0,0.0,0.0,0.0,0.0,0.0,0.0,0.0,0.0,0.0,0.0,0.0,0.0,0.0,0.0,0.0,0.0,0.0,0.0,0.0,0.0,0.0,0.0,0.0,0.0,0.0,0.0,0.0,0.0,0.0,0.0,0.0,0.0,0.0,0.0,0.0,0.0,0.0,0.0,0.0,0.0,0.0,0.0,0.0,0.0,0.0,0.0,0.0,0.0,0.0,0.0,0.0,0.0,0.0,0.0,0.0,0.0,0.0,0.0,0.0,0.0,0.0,0.0,0.0,0.0,0.0,0.0,0.0,0.0,0.0,0.0,0.0,0.0,0.0,0.0,0.0,0.0,0.0,0.0,0.0,0.0,0.0,0.0,0.0,0.0,0.0,0.0,0.0,0.0,0.0,0.0,0.0,0.0,0.0,0.0,0.0,0.0,0.0,0.0,0.0,0.0,0.0,0.0,0.0,0.0,0.0,0.0,0.0,0.0,0.0,0.0,0.0,0.0,0.0,0.0,0.0,0.0,0.0,0.0,0.0,0.0,0.0,0.0,0.0,0.0,0.0,0.0,0.0,0.0,0.0,0.0,0.0,0.0,0.0,0.0,0.0,0.0,0.0,0.0,0.0,0.0,0.0,0.0,0.0,0.0,0.0,0.0,0.0,0.0,0.0,0.0,0.0,0.0,0.0,0.0,0.0,0.0,0.0,0.0,0.0,0.0,0.0,0.0,0.0,0.0,0.0,0.0,0.0,0.0,0.0,0.0,0.0,0.0,0.0,0.0,0.0,0.0,0.0,0.0,0.0,0.0,0.0,0.0,0.0,0.0,0.0,0.0,0.0,0.0,0.0,0.0,0.0,0.0,0.0,0.0,0.0,0.0,0.0,0.0,0.0,0.0,0.0,0.0,0.0,0.0,0.0,0.0,0.0,0.0,0.0,0.0,0.0,0.0,0.0,0.0,0.0,0.0,0.0,0.0,0.0,0.0,0.0,0.0,0.0,0.0,0.0,0.0,0.0,0.0,0.0,0.0,0.0,0.0,0.0,0.0]}],[{"header":{"parameterUnit":"kt","parameterCategory":2,"dx":1,"dy":1,"la1":29.587661999999998,"la2":31.0,"lo1":-88.76705300000003,"lo2":-86.6583820000003,"nx":115,"ny":88,"refTime":"2022-10-24T12:00:00:Z","depth":0,"parameterNumber":2,"parameterNumberName":"V-component_of_WINDS"},"data":[6.9154,6.9148,6.9028,6.9009,6.8979,6.9009,6.9013,6.8982,6.901,6.8997,6.9009,6.9004,6.9266,6.9567,7.1058,7.2674,7.4546,7.5949,7.7463,7.8262,7.8041,7.7987,7.7912,7.7677,7.6621,7.5829,7.5235,7.4704,7.3217,7.3624,7.4136,7.3752,7.1998,7.1214,7.1157,7.0519,7.0136,7.1162,7.2065,7.3365,7.3856,7.4963,7.5803,7.5952,7.5939,7.5898,7.5857,7.5779,7.5774,7.576,7.564,7.5399,7.5137,7.4786,7.4437,7.42,7.3871,7.3372,7.2976,7.2923,7.2402,7.1521,7.1325,7.112,7.0941,7.0584,7.0386,7.0365,7.0509,7.0509,6.9999,6.9999,6.9957,6.9822,6.9695,6.9481,6.933,6.8959,6.8671,6.8671,6.8527,6.8325,6.8303,6.837,6.8772,6.8605,6.7658,6.7285,6.7119,6.6738,6.6359,6.6548,6.6818,6.6569,6.7048,6.7577,6.7703,6.8332,6.9018,6.9685,7.0284,7.0793,7.1296,7.1983,7.1731,7.1228,7.117,7.1516,7.1894,7.2487,7.2743,7.3089,7.3876,7.4222,7.3844,6.9046,6.904,6.8976,6.8976,6.8982,6.9013,6.9013,6.8976,6.8982,6.8982,6.8949,6.8986,6.9917,7.1032,7.2395,7.3899,7.5238,7.6374,7.7009,7.7578,7.7552,7.75,7.7459,7.7338,7.7,7.6318,7.5348,7.4015,7.288,7.2589,7.2517,7.1572,7.0485,6.9412,6.8882,6.8352,6.8111,6.9375,7.1397,7.2517,7.3814,7.514,7.5672,7.5802,7.5676,7.5514,7.534,7.5163,7.4872,7.4887,7.4912,7.4683,7.4401,7.4025,7.3694,7.3305,7.2959,7.2569,7.2203,7.198,7.1477,7.1014,7.0807,7.0685,7.0672,7.0406,7.0137,7.0158,7.0399,7.0233,6.9459,6.9058,6.897,6.886,6.875,6.8627,6.8582,6.8503,6.838,6.8358,6.7972,6.744,6.7253,6.7025,6.719,6.7378,6.7104,6.669,6.6401,6.6335,6.6765,6.7262,6.7734,6.8773,6.9628,6.9754,6.9534,7.0063,7.0346,7.1133,7.1799,7.2114,7.2586,7.3121,7.3305,7.2959,7.2869,7.268,7.3278,7.3935,7.3939,7.3907,7.4627,7.4627,7.4627,6.9013,6.9013,6.9013,6.9013,6.9013,6.9013,6.9013,6.9013,6.9013,6.8881,6.876,6.9304,6.9466,6.9432,7.2866,7.4483,7.4058,7.6279,7.7049,7.7221,7.7225,7.707,7.689,7.6724,7.6724,7.6543,7.5507,7.497,7.4367,7.3298,7.2408,7.241,7.0279,6.9074,6.8954,6.8448,6.8075,6.7882,7.1289,7.3043,7.4273,7.4752,7.5153,7.5225,7.5098,7.5023,7.4907,7.4846,7.4625,7.4625,7.4547,7.4277,7.3699,7.3202,7.2744,7.2329,7.2014,7.1617,7.1288,7.1106,7.0994,7.0774,7.057,7.0604,7.053,7.0399,7.0129,6.9631,6.9876,6.9545,6.8782,6.8537,6.8415,6.8303,6.819,6.7995,6.7857,6.7705,6.7487,6.7463,6.7229,6.681,6.6738,6.6529,6.6672,6.6889,6.6754,6.6384,6.6335,6.6262,6.7394,6.8275,6.915,7.0132,7.095,7.1139,7.1233,7.1453,7.1611,7.2366,7.3116,7.3435,7.3687,7.3876,7.4092,7.4092,7.4123,7.3966,7.4375,7.4533,7.4596,7.4627,7.4627,7.4627,7.4627,6.8946,6.9,6.9013,6.9013,6.9013,6.9013,6.9013,6.9,6.8839,6.8751,6.8991,6.9717,7.0001,7.0555,7.3621,7.4631,7.4258,7.6196,7.6912,7.6865,7.6712,7.6566,7.6528,7.6325,7.6117,7.6006,7.6006,7.5771,7.5176,7.4165,7.3334,7.2155,7.0566,6.8544,6.8207,6.8659,6.8539,6.8645,7.1525,7.3787,7.3973,7.4104,7.461,7.4641,7.4448,7.4468,7.4389,7.4325,7.4244,7.4228,7.4196,7.3801,7.3114,7.2303,7.1676,7.1215,7.0948,7.0854,7.0659,7.0713,7.0672,7.057,7.053,7.053,7.0427,7.0316,6.9982,6.9406,6.897,6.857,6.8209,6.8131,6.8063,6.7926,6.7788,6.7463,6.7167,6.681,6.6432,6.6384,6.6384,6.6335,6.6335,6.6349,6.6444,6.6601,6.6727,6.6979,6.7199,6.7828,6.915,7.0069,7.0855,7.1259,7.1794,7.2177,7.2617,7.2869,7.2932,7.3588,7.4375,7.4285,7.4128,7.4474,7.4627,7.4501,7.447,7.4596,7.4596,7.4596,7.4627,7.4627,7.4627,7.4627,7.4627,6.8686,6.9,6.9013,6.9,6.9006,6.8935,6.8966,6.8915,6.8279,6.8694,6.9827,7.0155,7.1511,7.281,7.4135,7.4996,7.5375,7.5873,7.6329,7.6117,7.6169,7.6183,7.6179,7.6047,7.602,7.6006,7.5993,7.5966,7.556,7.3947,7.1732,6.9411,6.8796,6.8264,6.7565,6.8153,6.9151,6.9601,7.1807,7.3415,7.3049,7.3697,7.4625,7.4484,7.4196,7.3917,7.3801,7.3548,7.3237,7.3079,7.2954,7.2775,7.2369,7.184,7.1227,7.08,7.0645,7.0489,7.044,7.0365,7.0406,7.0365,7.0509,7.0303,6.9822,6.9481,6.8881,6.8277,6.8255,6.7912,6.7472,6.7323,6.7229,6.7143,6.7016,6.6882,6.669,6.6522,6.6262,6.6262,6.6325,6.6569,6.6538,6.6262,6.6381,6.7853,6.8389,6.8804,6.9276,7.0063,7.1102,7.202,7.2397,7.2676,7.3053,7.3337,7.3872,7.4123,7.4218,7.4627,7.4596,7.4627,7.4627,7.4627,7.4627,7.4627,7.4627,7.4627,7.4627,7.4627,7.4627,7.4627,7.4627,7.4627,7.4627,6.8512,6.8686,6.8894,6.8867,6.8648,6.8381,6.8291,6.82,6.7706,6.8349,6.9835,7.0632,7.1578,7.3156,7.4624,7.5188,7.5286,7.5643,7.6006,7.6006,7.601,7.6006,7.6006,7.602,7.5943,7.6006,7.5979,7.5802,7.4932,7.3056,7.0599,6.8302,6.7056,6.6923,6.7454,6.8446,6.9855,7.0754,7.129,7.1683,7.2005,7.2408,7.3088,7.3319,7.3513,7.3411,7.3359,7.3272,7.2989,7.2737,7.2646,7.2313,7.1739,7.1545,7.1076,7.0638,7.0427,7.0295,7.0024,6.9982,6.9673,6.9383,6.9188,6.9254,6.8915,6.8448,6.782,6.741,6.741,6.7308,6.6858,6.6481,6.6408,6.6311,6.6286,6.6262,6.6262,6.6262,6.6262,6.6262,6.6538,6.6821,6.6853,6.6444,6.6853,6.871,6.9906,7.0284,7.0882,7.1794,7.2743,7.3278,7.3588,7.3777,7.4092,7.4312,7.4375,7.4438,7.4627,7.4627,7.4627,7.4627,7.4627,7.4627,7.4627,7.4627,7.4627,7.4627,7.4627,7.4627,7.4627,7.4627,7.4627,7.4627,7.4627,6.8157,6.8275,6.8514,6.8512,6.8208,6.7819,6.7572,6.7553,6.7776,6.8669,7.0151,7.1475,7.2559,7.2806,7.4923,7.5094,7.5202,7.532,7.5862,7.6006,7.6006,7.6006,7.5952,7.5857,7.5779,7.5774,7.5598,7.532,7.4521,7.2468,7.0004,6.7875,6.6959,6.6917,6.7783,6.9281,7.0683,7.1534,7.1077,7.1793,7.2402,7.235,7.2541,7.2941,7.3167,7.3167,7.3184,7.3096,7.3024,7.2719,7.2591,7.2239,7.1486,7.1136,7.0814,7.0391,7.0024,6.9801,6.9373,6.9243,6.9069,6.8694,6.8063,6.7949,6.7556,6.7135,6.6738,6.6746,6.6818,6.6786,6.6505,6.6384,6.6335,6.6286,6.6286,6.6262,6.6262,6.6262,6.6262,6.6444,6.7161,6.7602,6.871,6.8395,6.8622,7.0195,7.1233,7.1574,7.2172,7.3274,7.4096,7.4159,7.4344,7.4249,7.4564,7.4627,7.4627,7.4627,7.4627,7.4627,7.4627,7.4627,7.4627,7.4627,7.4627,7.4627,7.4627,7.4627,7.4627,7.4627,7.4627,7.4627,7.4627,7.4627,7.4627,6.753,6.7846,6.7883,6.791,6.7809,6.744,6.6973,6.6676,6.8207,6.9761,7.1303,7.2736,7.3997,7.5392,7.579,7.5826,7.5826,7.5862,7.5979,7.5966,7.5898,7.5834,7.5774,7.5549,7.5421,7.5231,7.5053,7.4882,7.4494,7.2432,7.0228,6.8283,6.7466,6.7643,6.8315,6.9671,7.1113,7.1793,7.15,7.1621,7.2298,7.2506,7.2575,7.2922,7.3079,7.3079,7.3079,7.3025,7.3007,7.272,7.2554,7.2167,7.156,7.0774,7.0191,6.9578,6.8937,6.8705,6.8515,6.8493,6.8313,6.7949,6.7167,6.6594,6.6401,6.6497,6.6384,6.6408,6.6432,6.6335,6.6262,6.6262,6.6262,6.6262,6.6262,6.6262,6.6262,6.6538,6.6538,6.6979,6.7759,6.8861,7.0,7.0567,7.0572,7.1756,7.2228,7.2591,7.3256,7.4419,7.4564,7.46,7.46,7.46,7.4627,7.4627,7.4627,7.4627,7.4627,7.4627,7.4627,7.4627,7.4627,7.4627,7.4627,7.4627,7.4627,7.4627,7.46,7.4627,7.4627,7.4627,7.4627,7.4627,7.4627,6.7317,6.748,6.7706,6.7715,6.741,6.694,6.666,6.6846,6.8303,6.988,7.1433,7.3022,7.4562,7.5645,7.6006,7.6006,7.6006,7.5957,7.5916,7.5642,7.5664,7.5435,7.5231,7.4999,7.4902,7.4857,7.4672,7.4405,7.4042,7.2511,7.0964,6.955,6.8624,6.877,6.9551,7.0119,7.1222,7.1292,7.1187,7.098,7.1569,7.1846,7.2141,7.28,7.3079,7.3079,7.3079,7.2954,7.272,7.1944,7.139,7.0861,6.9999,6.9373,6.9047,6.8893,6.8493,6.8222,6.7857,6.7774,6.7542,6.7205,6.6666,6.6311,6.6262,6.6419,6.6388,6.6293,6.6286,6.6286,6.6318,6.6262,6.6262,6.6262,6.6262,6.6262,6.6451,6.7451,6.7671,6.8118,6.8873,7.0284,7.1485,7.1778,7.1879,7.2535,7.3064,7.3708,7.4242,7.4513,7.4627,7.46,7.4572,7.46,7.4627,7.4627,7.4627,7.4627,7.4627,7.4627,7.4627,7.4627,7.4627,7.4627,7.4627,7.4627,7.4627,7.4572,7.4517,7.4517,7.4434,7.4434,7.46,7.4627,7.4627,6.6998,6.7031,6.7281,6.7239,6.6951,6.6625,6.6835,6.7461,6.858,7.0218,7.2119,7.3781,7.51,7.5491,7.576,7.5662,7.5528,7.5514,7.5471,7.5178,7.5163,7.4923,7.4723,7.4547,7.4389,7.4341,7.4147,7.3834,7.3564,7.2778,7.1774,7.0804,6.9813,7.0061,7.0979,7.1359,7.1325,7.1065,7.0407,6.9991,7.1044,7.1427,7.1895,7.2812,7.3008,7.3079,7.3079,7.3079,7.2487,7.155,7.1302,7.047,6.9274,6.8606,6.8303,6.8141,6.7696,6.7463,6.7214,6.7033,6.6802,6.6553,6.6286,6.6286,6.6451,6.6734,6.6695,6.6538,6.6923,6.686,6.6444,6.6293,6.6157,6.6157,6.6035,6.6059,6.648,6.7503,6.8203,6.8476,6.9496,7.0735,7.1502,7.158,7.2051,7.2722,7.2042,7.2579,7.2987,7.3331,7.3899,7.3927,7.4154,7.4379,7.4627,7.4627,7.4627,7.4517,7.449,7.4292,7.4462,7.4627,7.4572,7.4403,7.4517,7.4627,7.4627,7.46,7.449,7.4126,7.379,7.3706,7.3931,7.4126,7.4209,6.6509,6.651,6.6521,6.6509,6.639,6.6522,6.7437,6.864,6.9047,7.0655,7.3146,7.4933,7.5605,7.5406,7.5384,7.5172,7.4882,7.4775,7.4667,7.4656,7.4625,7.4578,7.4357,7.4098,7.3851,7.3752,7.3497,7.3254,7.3096,7.2679,7.2037,7.1135,7.0822,7.1132,7.2311,7.2446,7.243,7.234,7.1889,7.1363,7.1446,7.1631,7.1793,7.2245,7.243,7.2503,7.2467,7.2467,7.1818,7.0859,7.0659,6.9866,6.8696,6.808,6.7733,6.7425,6.6786,6.6449,6.6303,6.6311,6.6335,6.6286,6.6262,6.6262,6.6608,6.7583,6.8187,6.7073,6.7716,6.7804,6.708,6.6276,6.609,6.5936,6.5689,6.5683,6.6112,6.6864,6.7214,6.7511,6.8995,7.0529,7.1033,7.152,7.2098,7.1735,7.0995,7.0875,7.1174,7.1649,7.2411,7.2642,7.3077,7.3421,7.3903,7.4268,7.4379,7.4407,7.4098,7.3444,7.3387,7.3215,7.3557,7.4206,7.4039,7.3675,7.4042,7.449,7.3959,7.3421,7.3108,7.302,7.322,7.3418,7.3418,6.651,6.651,6.651,6.6137,6.5777,6.7292,6.8271,6.8782,6.9271,7.0604,7.226,7.4165,7.4963,7.4938,7.4877,7.4687,7.4531,7.4468,7.4341,7.4128,7.3948,7.3868,7.3634,7.3411,7.3254,7.3219,7.2917,7.2682,7.2664,7.239,7.1817,7.1524,7.1571,7.155,7.2073,7.2192,7.1714,7.103,7.0905,7.1195,6.9701,7.0427,7.1046,7.1106,7.1243,7.1322,7.1297,7.1258,7.0646,6.9858,6.9187,6.8519,6.7724,6.7064,6.681,6.6618,6.6401,6.6311,6.6286,6.6262,6.6262,6.6262,6.6262,6.6286,6.6702,6.7841,6.881,6.7923,6.8382,6.8659,6.8017,6.6131,6.5287,6.5284,6.5054,6.4946,6.5415,6.6729,6.6863,6.689,6.873,7.048,7.0778,7.0779,7.0725,6.9629,6.9129,6.9067,6.944,7.0088,7.0785,7.1324,7.1798,7.2442,7.302,7.296,7.296,7.2932,7.2321,7.1941,7.1647,7.0905,7.0964,7.2261,7.2872,7.27,7.2905,7.325,7.3051,7.2617,7.2646,7.2559,7.2762,7.2877,7.279,6.5576,6.554,6.5576,6.5273,6.4862,6.63,6.7575,6.8627,6.9199,7.041,7.234,7.3465,7.4025,7.3913,7.3899,7.3816,7.3614,7.3614,7.341,7.3202,7.3114,7.2919,7.2776,7.2629,7.2648,7.2609,7.2443,7.2276,7.2223,7.2126,7.1655,7.0938,7.0697,7.1012,7.1134,7.1032,7.0627,7.001,7.0154,7.0222,6.8893,6.9567,7.0004,7.0004,7.0045,7.0079,7.0008,7.002,6.9329,6.864,6.8283,6.7585,6.6778,6.6546,6.6408,6.6335,6.6335,6.6262,6.6262,6.6262,6.6262,6.6262,6.6318,6.6594,6.735,6.8653,6.9251,6.9386,6.9523,6.9259,6.8357,6.6274,6.462,6.4462,6.4283,6.4109,6.4956,6.6837,6.743,6.6946,6.8395,6.9845,6.9934,6.9934,6.8816,6.7732,6.7406,6.7305,6.7893,6.8501,6.9069,6.9595,7.0271,7.0935,7.1233,7.1382,7.1531,7.0935,7.0303,7.0364,7.0424,6.9571,6.9508,7.0544,7.1412,7.2002,7.2297,7.221,7.1799,7.1205,7.1294,7.1799,7.2151,7.2326,7.2385,6.4104,6.3979,6.4024,6.4039,6.4094,6.4279,6.6226,6.8697,6.9043,7.0725,7.2818,7.3149,7.2906,7.2779,7.276,7.2558,7.2035,7.1921,7.211,7.2091,7.1902,7.2073,7.2091,7.2054,7.1997,7.2031,7.1439,7.1454,7.1602,7.1288,7.0292,6.8867,6.9579,6.9807,6.9915,6.9912,6.9637,6.9628,6.9432,6.9155,6.8937,6.8926,6.9144,6.9155,6.9382,6.9553,6.9565,6.9329,6.8729,6.7829,6.7645,6.715,6.6522,6.6335,6.6286,6.6262,6.6262,6.6262,6.6262,6.6262,6.6262,6.6262,6.6381,6.6814,6.7891,6.9597,7.0353,7.0327,6.9806,6.9486,6.8246,6.6518,6.4987,6.4533,6.4226,6.3973,6.4535,6.6445,6.7058,6.6945,6.7362,6.8108,6.8368,6.8305,6.743,6.6679,6.6311,6.6245,6.675,6.6885,6.741,6.8088,6.882,6.9197,6.9447,6.9414,6.9413,6.8977,6.8224,6.8353,6.8731,6.9012,6.8634,6.9536,7.0088,7.1234,7.1974,7.0995,7.0176,6.9714,6.9838,7.0572,7.1055,7.177,7.2125,6.3444,6.2483,6.2919,6.315,6.3387,6.6218,6.78,6.8706,7.011,7.1501,7.2244,7.2045,7.1947,7.2038,7.2057,7.1997,7.1844,7.1883,7.1883,7.1883,7.1883,7.181,7.1787,7.1825,7.1844,7.1902,7.0774,6.9994,6.9965,6.9933,6.9887,6.9391,6.8871,6.8838,6.8926,6.8926,6.885,6.8915,6.8543,6.815,6.7747,6.7645,6.771,6.7742,6.7696,6.7649,6.7487,6.7501,6.7431,6.685,6.6826,6.6754,6.6376,6.6262,6.6262,6.6262,6.6262,6.6262,6.6108,6.6108,6.6262,6.6262,6.6412,6.6494,6.7923,6.8735,6.9331,7.0413,6.9788,6.9125,6.8208,6.6325,6.5123,6.4536,6.421,6.3849,6.3861,6.5059,6.5779,6.6015,6.6437,6.6894,6.6904,6.6768,6.6339,6.566,6.5391,6.5357,6.5363,6.5336,6.5951,6.6787,6.7317,6.7639,6.7832,6.78,6.7381,6.6988,6.6161,6.5995,6.6265,6.6628,6.7446,6.796,6.8374,6.9439,7.0542,6.9499,6.8556,6.8714,6.8966,6.9559,7.0206,7.1385,7.2068,6.2976,6.2688,6.2459,6.2684,6.3532,6.5498,6.6836,6.7755,6.9531,7.0764,7.1346,7.1142,7.1136,7.13,7.1325,7.1306,7.1224,7.0609,7.0662,7.1151,7.0677,7.0696,7.1142,7.1325,7.134,7.1018,7.0224,6.9128,6.8147,6.8276,6.8587,6.8459,6.8191,6.8004,6.8095,6.7998,6.772,6.7299,6.7002,6.6648,6.6433,6.6603,6.6882,6.689,6.6818,6.6722,6.6594,6.6505,6.6432,6.6335,6.6262,6.6262,6.6262,6.6262,6.6262,6.6262,6.6262,6.6035,6.5633,6.5502,6.5127,6.5006,6.4839,6.5295,6.6014,6.7047,6.8425,6.9672,6.8933,6.8509,6.8027,6.5993,6.5038,6.4407,6.3999,6.3772,6.3899,6.4526,6.5047,6.5315,6.5617,6.5734,6.5733,6.57,6.5464,6.5086,6.5052,6.5018,6.4882,6.4718,6.5167,6.5717,6.6018,6.625,6.6482,6.6548,6.6156,6.5884,6.5065,6.4997,6.4752,6.4963,6.5956,6.6689,6.7081,6.779,6.868,6.8394,6.7822,6.795,6.8142,6.8273,6.8559,6.9807,7.0905,6.3054,6.4127,6.2905,6.3054,6.4231,6.4671,6.5476,6.6838,6.8368,6.9443,7.0693,7.055,7.0604,7.0632,7.0645,7.0591,7.0289,6.9745,6.9718,6.9993,6.9281,6.9248,6.9819,7.006,6.9718,6.9517,6.9638,6.8545,6.7662,6.7404,6.7414,6.7431,6.7461,6.7316,6.7269,6.7072,6.5961,6.5083,6.4975,6.4981,6.5111,6.5835,6.6333,6.6514,6.6456,6.6311,6.6335,6.6335,6.6311,6.6262,6.6262,6.6262,6.6262,6.6262,6.6262,6.6262,6.6164,6.5838,6.4894,6.4736,6.4429,6.3637,6.3293,6.3026,6.3904,6.5354,6.7045,6.8336,6.7802,6.7446,6.7153,6.5581,6.4628,6.4294,6.4424,6.4387,6.4339,6.5128,6.5356,6.5561,6.5311,6.5139,6.5012,6.4848,6.4718,6.4718,6.4718,6.4752,6.4718,6.4718,6.5031,6.5133,6.5336,6.5369,6.5504,6.5403,6.5167,6.5031,6.4787,6.4787,6.4718,6.4821,6.5443,6.5851,6.5884,6.6453,6.6942,6.7105,6.7077,6.7077,6.724,6.7244,6.7244,6.796,6.9067,6.552,6.5789,6.5487,6.5554,6.599,6.6996,6.7733,6.8236,6.9511,7.0328,7.053,7.053,7.053,7.053,7.053,7.0509,7.0496,7.0241,6.9517,6.9162,6.8519,6.7741,6.7426,6.713,6.7434,6.7697,6.757,6.7422,6.7437,6.7523,6.7419,6.7277,6.673,6.6529,6.6577,6.6481,6.6345,6.5659,6.51,6.4468,6.4468,6.4737,6.5249,6.6233,6.6335,6.6223,6.6262,6.6262,6.6262,6.6262,6.6213,6.6237,6.6262,6.6262,6.6262,6.6262,6.6262,6.5633,6.4817,6.4373,6.3704,6.2623,6.2868,6.2728,6.2983,6.3578,6.5178,6.6007,6.5702,6.5382,6.6308,6.5756,6.5473,6.5356,6.5323,6.544,6.534,6.5289,6.5458,6.5351,6.5086,6.495,6.4848,6.4718,6.4718,6.4718,6.4718,6.4718,6.4718,6.4718,6.4718,6.4718,6.4718,6.4718,6.4718,6.4718,6.4718,6.4718,6.4718,6.4718,6.4718,6.4718,6.5336,6.5884,6.5751,6.5375,6.5133,6.5234,6.5644,6.6018,6.6288,6.658,6.6933,6.7524,6.8469,6.6694,6.723,6.656,6.7029,6.8337,6.9175,6.9457,6.9692,7.0965,7.1267,7.0731,7.053,7.053,7.0448,7.0262,7.0075,6.9787,6.9421,6.9021,6.8818,6.7906,6.6901,6.6591,6.6426,6.6387,6.6367,6.6319,6.6761,6.7297,6.7406,6.7455,6.7269,6.6674,6.6286,6.6262,6.623,6.5933,6.524,6.4697,6.4067,6.3328,6.4107,6.4996,6.5688,6.5783,6.572,6.6034,6.6262,6.6262,6.6108,6.5732,6.5862,6.5763,6.5465,6.4803,6.4975,6.4747,6.4129,6.3206,6.291,6.2371,6.1302,6.0938,6.0824,6.0829,6.1319,6.1975,6.2987,6.3023,6.4266,6.5372,6.5397,6.5385,6.5323,6.5296,6.5262,6.5289,6.5126,6.5086,6.4984,6.4882,6.4787,6.4718,6.4718,6.4718,6.4718,6.4718,6.4718,6.4718,6.4718,6.4718,6.4718,6.4718,6.4718,6.4718,6.4718,6.4718,6.4718,6.4718,6.4718,6.4718,6.4718,6.5167,6.5644,6.5369,6.4957,6.4752,6.4787,6.4752,6.4889,6.5654,6.6318,6.6645,6.7338,6.8461,6.739,6.8492,6.7203,6.8144,7.0312,7.0525,7.0462,7.0779,7.1761,7.158,7.0237,7.0179,7.0075,7.0012,6.9567,6.9395,6.9142,6.8506,6.8144,6.8223,6.7321,6.6159,6.5928,6.5775,6.5953,6.6061,6.594,6.6013,6.6509,6.69,6.7064,6.708,6.6577,6.6286,6.6262,6.6223,6.5744,6.4736,6.4012,6.3351,6.2824,6.3359,6.4492,6.6003,6.5531,6.5379,6.5878,6.5936,6.5912,6.5689,6.4767,6.4899,6.493,6.3742,6.3316,6.3603,6.3528,6.2836,6.1718,6.1246,6.0372,5.9302,5.9097,5.8891,5.8654,5.8702,5.9468,6.0413,6.1682,6.3192,6.4446,6.4415,6.4377,6.4534,6.4595,6.4814,6.4759,6.4595,6.4404,6.4732,6.4752,6.4718,6.4718,6.4718,6.4718,6.4718,6.4718,6.4718,6.4718,6.4718,6.4718,6.4718,6.4718,6.4718,6.4718,6.4718,6.4718,6.4718,6.4718,6.4718,6.4718,6.4718,6.4718,6.4991,6.4889,6.4718,6.4718,6.4718,6.4746,6.4828,6.5387,6.6106,6.7106,6.82,6.9158,6.8608,6.9342,6.85,6.9032,7.0414,7.0558,7.0636,7.0646,7.0862,7.0477,6.8956,6.876,6.8926,6.8782,6.8671,6.8605,6.8562,6.8181,6.7572,6.73,6.6526,6.5757,6.4969,6.4915,6.4973,6.4686,6.4946,6.5494,6.6112,6.6434,6.6602,6.6481,6.6311,6.6286,6.6255,6.6192,6.5531,6.4303,6.3328,6.2423,6.2234,6.2423,6.3768,6.5318,6.5371,6.5375,6.5022,6.4817,6.4429,6.3528,6.332,6.332,6.3133,6.2297,6.1939,6.3003,6.2785,6.1941,6.091,6.0542,6.0057,5.8769,5.8591,5.8384,5.8148,5.8113,5.8188,5.8665,5.9446,6.0834,6.1764,6.2683,6.3223,6.3463,6.4227,6.4636,6.4555,6.3818,6.3968,6.4405,6.4718,6.4718,6.4718,6.4718,6.4718,6.4718,6.4718,6.4718,6.4718,6.4718,6.4718,6.4718,6.4718,6.4718,6.4718,6.4718,6.4718,6.4718,6.4718,6.4718,6.4718,6.4718,6.4718,6.4718,6.4718,6.4718,6.4718,6.4991,6.5073,6.4937,6.5512,6.6562,6.7756,6.9064,7.0001,6.8627,6.8915,6.855,6.9294,7.0627,7.1385,7.171,7.171,7.1677,7.0897,6.9638,6.8686,6.8425,6.838,6.8095,6.8109,6.8267,6.8063,6.7502,6.696,6.6368,6.5526,6.4545,6.4846,6.5314,6.5352,6.5342,6.5649,6.6097,6.6279,6.6262,6.6262,6.6262,6.6262,6.6255,6.5586,6.4957,6.4083,6.2927,6.1794,6.1354,6.1731,6.2864,6.2943,6.3824,6.4551,6.4419,6.4047,6.3449,6.2782,6.1803,6.1079,6.0939,6.0628,6.0571,6.1023,6.1107,6.0571,6.0057,5.9653,5.9304,5.8297,5.8207,5.8028,5.7817,5.7727,5.7636,5.7788,5.8604,5.9778,6.1038,6.1858,6.2404,6.2786,6.2977,6.3435,6.42,6.3519,6.3171,6.433,6.4568,6.4664,6.4718,6.4718,6.4684,6.4479,6.4479,6.4616,6.465,6.4616,6.465,6.4718,6.4718,6.4718,6.4718,6.4718,6.4718,6.4718,6.4718,6.4718,6.4718,6.4718,6.4718,6.4718,6.4718,6.4718,6.5073,6.5448,6.5666,6.5837,6.6317,6.7188,6.8325,6.985,7.0988,6.8063,6.8177,6.8073,6.8835,7.036,7.1646,7.201,7.1695,7.1986,7.0961,6.9605,6.841,6.7935,6.7912,6.7402,6.7481,6.7742,6.7402,6.723,6.7128,6.6505,6.5673,6.5233,6.5659,6.6209,6.6192,6.623,6.6286,6.6255,6.6262,6.6262,6.6262,6.6262,6.6262,6.6097,6.5146,6.4264,6.3666,6.2415,6.1133,6.0567,6.1189,6.1327,6.0875,6.2092,6.3113,6.3578,6.305,6.2517,6.1858,6.0628,5.9796,5.9767,5.9622,5.9651,5.9739,5.9593,5.9302,5.8951,5.8833,5.8448,5.8003,5.791,5.776,5.7543,5.7543,5.7543,5.7703,5.8358,5.9154,6.0082,6.0765,6.1357,6.1707,6.1749,6.2221,6.2891,6.2075,6.1831,6.2997,6.3752,6.4363,6.4664,6.4718,6.4479,6.4246,6.4342,6.4513,6.4513,6.4513,6.4582,6.4718,6.4718,6.4718,6.4718,6.4718,6.4718,6.4718,6.4718,6.4718,6.4718,6.4718,6.4718,6.4718,6.4773,6.5128,6.5475,6.5885,6.6547,6.691,6.7273,6.8299,6.9393,7.0717,7.1981,6.6937,6.7504,6.6818,6.7319,6.8777,7.0156,7.0213,6.9353,7.0251,6.9371,6.7409,6.6704,6.6714,6.6497,6.6626,6.6481,6.6546,6.6577,6.6481,6.6456,6.6352,6.616,6.5877,6.616,6.623,6.6262,6.6262,6.6262,6.6262,6.6262,6.6262,6.6255,6.6192,6.6223,6.6003,6.4744,6.3666,6.2509,6.1133,6.0104,5.9859,6.0032,6.037,6.0382,6.1763,6.2198,6.1901,6.1498,6.1024,5.997,5.968,5.9505,5.9505,5.9505,5.9505,5.9476,5.9243,5.9008,5.8833,5.8418,5.803,5.794,5.7697,5.7543,5.7543,5.7543,5.7543,5.7543,5.7652,5.8007,5.8498,5.9973,6.0451,6.0151,6.1204,6.1045,6.0019,5.8627,5.8443,5.9803,6.1765,6.3159,6.4172,6.4616,6.4192,6.3164,6.3737,6.3906,6.4027,6.4349,6.465,6.4718,6.4718,6.4718,6.4718,6.4718,6.4718,6.4718,6.4718,6.4718,6.4718,6.4718,6.4718,6.4909,6.5182,6.5503,6.6083,6.6738,6.723,6.7784,6.8803,6.9669,7.0464,7.1566,7.2082,6.6481,6.6746,6.6432,6.6632,6.7293,6.8678,6.8987,6.8609,6.9081,6.8578,6.7602,6.6695,6.6262,6.6262,6.6262,6.6262,6.6262,6.6262,6.6262,6.6262,6.6276,6.6251,6.6269,6.6262,6.6262,6.6262,6.6262,6.6206,6.623,6.6262,6.6262,6.5993,6.5555,6.5562,6.5836,6.3587,6.188,6.1771,6.0023,5.8606,5.8112,5.8142,5.8623,5.965,6.0144,6.0985,6.113,6.0542,6.0027,5.9622,5.9505,5.9505,5.9505,5.9505,5.9505,5.9505,5.9331,5.9038,5.8741,5.8444,5.8115,5.7784,5.7603,5.7543,5.7543,5.7543,5.7543,5.7543,5.7543,5.7543,5.7761,5.8416,5.9004,5.9109,5.9097,5.8293,5.6732,5.671,5.7318,5.852,6.0446,6.2406,6.1599,6.2763,6.2539,6.217,6.2816,6.3276,6.3475,6.4295,6.4718,6.4718,6.4718,6.4718,6.4718,6.4718,6.4718,6.4718,6.4718,6.4718,6.4718,6.4718,6.5073,6.5557,6.5666,6.6138,6.7347,6.8311,6.8639,6.9268,7.0415,7.1146,7.1303,7.1956,7.2086,6.6262,6.6262,6.6262,6.6262,6.6507,6.8263,6.8829,6.8483,6.8829,6.8892,6.8105,6.6909,6.6507,6.679,6.6884,6.7073,6.7388,6.7105,6.6821,6.6804,6.6582,6.6265,6.5923,6.5607,6.5459,6.5589,6.4973,6.5078,6.533,6.4401,6.4085,6.4363,6.3464,6.3709,6.3931,6.1188,6.0259,6.041,5.8436,5.6867,5.6322,5.6284,5.6705,5.7523,5.7881,5.8605,5.9527,5.9229,5.8968,5.8996,5.9164,5.936,5.9448,5.9301,5.9271,5.9331,5.9214,5.8861,5.8593,5.8382,5.8083,5.7694,5.7603,5.7543,5.7543,5.7543,5.7543,5.7543,5.7543,5.7543,5.7543,5.7652,5.8195,5.8783,5.7717,5.5922,5.4545,5.4978,5.5854,5.6045,5.8094,5.9163,5.9299,6.0012,6.0606,6.0658,6.149,6.2527,6.2418,6.2938,6.3954,6.4172,6.4527,6.4609,6.4691,6.4691,6.4718,6.4718,6.4718,6.4718,6.4718,6.48,6.5421,6.6294,6.6411,6.7374,6.8612,6.9468,7.0124,7.0443,7.1208,7.1563,7.1847,7.1956,7.2069,6.6262,6.6262,6.6262,6.6213,6.6632,6.8885,6.9149,6.8622,6.9508,6.918,6.8024,6.6525,6.6718,6.7879,6.7471,6.816,6.9734,6.8368,6.7659,6.7435,6.668,6.5667,6.4722,6.3954,6.3882,6.4092,6.2498,6.2093,6.2807,6.1158,5.9503,6.0153,6.069,6.0519,6.0067,5.9051,5.8218,5.778,5.6221,5.5345,5.5142,5.5297,5.5114,5.4198,5.535,5.6187,5.6702,5.7189,5.7556,5.7753,5.8452,5.9015,5.9272,5.8889,5.8917,5.9302,5.8509,5.8448,5.8537,5.8175,5.7754,5.7817,5.7664,5.7543,5.7543,5.7543,5.7543,5.7543,5.7543,5.7543,5.7543,5.7543,5.8031,5.8718,5.6878,5.4544,5.2191,5.2961,5.3598,5.3191,5.3418,5.4735,5.6995,5.7385,5.8185,5.8983,6.0346,6.0737,6.0905,6.1938,6.2844,6.3435,6.3954,6.4091,6.4227,6.4309,6.4718,6.4718,6.4718,6.4718,6.4718,6.4964,6.5394,6.6465,6.7292,6.8612,6.9687,7.0124,7.0671,7.1126,7.1481,7.1782,7.1918,7.1918,7.1956,6.5992,6.6157,6.5502,6.5577,6.637,6.6505,6.6468,6.6127,6.6561,6.6087,6.5136,6.4421,6.4543,6.4909,6.5001,6.5734,6.6721,6.6356,6.5917,6.5485,6.4483,6.3752,6.3273,6.2988,6.2876,6.2087,6.059,6.0095,6.036,5.9528,5.9087,5.8908,5.8646,5.8537,5.8947,5.736,5.6738,5.691,5.5676,5.4682,5.4204,5.4151,5.4011,5.3863,5.4215,5.4988,5.5693,5.5357,5.5839,5.7105,5.7723,5.8397,5.9012,5.8918,5.88,5.88,5.8504,5.8267,5.824,5.794,5.776,5.7667,5.7603,5.7512,5.7512,5.7543,5.7543,5.7543,5.7512,5.7543,5.7512,5.7543,5.7734,5.8164,5.5794,5.3844,5.31,5.3165,5.3002,5.2905,5.4292,5.4871,5.5086,5.5447,5.7532,5.7894,5.9114,5.9729,6.0614,6.1172,6.1585,6.2131,6.3087,6.3626,6.3736,6.4172,6.4636,6.4718,6.4746,6.4746,6.5019,6.5284,6.5947,6.7038,6.8248,6.9514,7.0579,7.0935,7.1044,7.1426,7.1771,7.188,7.188,7.188,7.188,6.51,6.5321,6.4221,6.4412,6.5331,6.4674,6.4355,6.4329,6.4359,6.3935,6.3289,6.2853,6.2912,6.3208,6.3297,6.4013,6.4974,6.3857,6.34,6.3373,6.2733,6.221,6.1945,6.2027,6.1522,6.0202,5.8587,5.7794,5.7712,5.7012,5.6814,5.6851,5.6247,5.6365,5.6608,5.5433,5.471,5.5415,5.461,5.3806,5.3119,5.3049,5.313,5.3318,5.3298,5.3612,5.4374,5.3929,5.4384,5.5703,5.6767,5.7747,5.8521,5.8622,5.8504,5.8472,5.8352,5.8115,5.791,5.7433,5.6978,5.6848,5.6391,5.6267,5.6263,5.617,5.617,5.6175,5.6664,5.6879,5.6971,5.7211,5.7086,5.6294,5.4611,5.3334,5.2676,5.2709,5.2676,5.2832,5.47,5.5515,5.4816,5.5573,5.7454,5.7638,5.8184,5.8932,5.9801,6.0183,6.0629,6.082,6.2213,6.3168,6.3545,6.4009,6.45,6.4718,6.4746,6.4773,6.5366,6.5912,6.6847,6.7893,6.9131,7.0279,7.1344,7.1744,7.17,7.1853,7.188,7.188,7.188,7.188,7.188,6.352,6.3661,6.2491,6.2836,6.407,6.4044,6.3958,6.3958,6.3899,6.3669,6.3153,6.2381,6.2329,6.3379,6.3152,6.4319,6.4449,6.1845,6.1016,6.1876,6.1901,6.1346,6.0459,6.0495,5.9851,5.853,5.6148,5.5239,5.5423,5.3591,5.2583,5.2587,5.3416,5.3391,5.2375,5.3222,5.3053,5.262,5.2522,5.2284,5.2106,5.2208,5.2239,5.2193,5.217,5.2044,5.1756,5.2552,5.3114,5.3532,5.545,5.7226,5.8054,5.7968,5.7845,5.8263,5.7902,5.7754,5.773,5.6491,5.5696,5.5504,5.4336,5.394,5.4037,5.3915,5.3883,5.4107,5.4807,5.5441,5.5655,5.6422,5.6267,5.4069,5.3464,5.2709,5.1811,5.1403,5.1811,5.2937,5.3586,5.4643,5.6541,5.7391,5.7479,5.752,5.7697,5.7925,5.8171,5.885,5.9228,5.9696,6.0842,6.2185,6.3059,6.3818,6.4254,6.4582,6.4418,6.45,6.4964,6.6594,6.7475,6.8385,6.9596,7.0743,7.1782,7.188,7.188,7.188,7.188,7.188,7.188,7.188,7.188,6.1697,6.2322,6.1335,6.2382,6.4712,6.4157,6.3832,6.3745,6.2994,6.2209,6.133,6.0191,5.9822,6.0221,6.0277,6.0356,6.0107,5.9102,5.8613,5.9059,5.9246,5.9117,5.8843,5.9024,5.8476,5.7196,5.6337,5.5591,5.483,5.3327,5.2662,5.2686,5.2107,5.1691,5.1536,5.1919,5.2016,5.1842,5.195,5.2109,5.2109,5.2109,5.2109,5.2004,5.1695,5.1329,5.1251,5.1588,5.2011,5.2791,5.445,5.5891,5.6879,5.7442,5.7847,5.7842,5.7633,5.7573,5.7485,5.6245,5.5384,5.5321,5.4235,5.3464,5.3464,5.3464,5.3464,5.3496,5.3889,5.4049,5.4203,5.4484,5.442,5.3625,5.2578,5.1754,5.1312,5.0473,5.0685,5.1787,5.2774,5.4139,5.5749,5.6879,5.7391,5.7543,5.7543,5.7543,5.7543,5.7925,5.8085,5.8249,5.9669,6.0847,6.1748,6.2131,6.2398,6.2971,6.3059,6.3387,6.4152,6.6465,6.8021,6.8913,6.9951,7.1099,7.1727,7.1853,7.188,7.188,7.188,7.188,7.188,7.188,7.188,6.0126,6.0796,6.0166,6.1694,6.4345,6.3382,6.2872,6.2703,6.158,6.0589,5.9777,5.8697,5.8173,5.82,5.8143,5.7933,5.7573,5.7543,5.7543,5.7543,5.7697,5.779,5.779,5.8025,5.7674,5.6929,5.6459,5.5718,5.4698,5.3951,5.3396,5.3033,5.2617,5.1953,5.1369,5.1747,5.1824,5.1433,5.159,5.1747,5.1721,5.1747,5.1747,5.1721,5.1227,5.0992,5.1018,5.0914,5.1113,5.1668,5.3041,5.4116,5.4716,5.5841,5.6603,5.689,5.7324,5.7303,5.6699,5.5468,5.4501,5.3953,5.2716,5.1828,5.1895,5.1919,5.1928,5.2027,5.2414,5.2512,5.2183,5.1895,5.1952,5.1919,5.1546,5.1145,5.0598,5.026,5.0056,5.0641,5.1787,5.3172,5.4591,5.636,5.7089,5.6356,5.6479,5.6668,5.6791,5.73,5.7624,5.7731,5.8522,5.9614,6.0519,6.0519,6.0984,6.1612,6.2376,6.3032,6.4309,6.6684,6.7729,6.8503,6.9851,7.0917,7.1071,7.129,7.188,7.188,7.188,7.188,7.188,7.188,7.188,5.8777,5.8799,5.9169,6.0811,6.301,6.2037,6.1485,6.151,6.0123,5.9404,5.9212,5.8092,5.7543,5.7573,5.7603,5.7543,5.7543,5.7543,5.7543,5.7543,5.7543,5.7543,5.7543,5.7543,5.7543,5.7384,5.6539,5.5587,5.4774,5.4555,5.4033,5.3285,5.4089,5.3507,5.1874,5.2564,5.2506,5.1456,5.1397,5.1258,5.1149,5.1149,5.1069,5.1097,5.0861,5.0702,5.0704,5.0465,5.0387,5.0387,5.1589,5.2272,5.2408,5.3584,5.4868,5.5904,5.6879,5.6791,5.5566,5.4177,5.2847,5.1579,5.0371,4.9305,4.959,4.959,4.959,4.9305,5.0978,5.1203,4.9794,4.9692,4.9556,4.9556,5.0463,5.0473,4.9408,5.0236,5.0439,4.9818,5.0473,5.1654,5.3042,5.5677,5.5739,5.4674,5.4622,5.5321,5.5473,5.6391,5.7001,5.7398,5.8115,5.9111,5.9205,5.9478,6.0487,6.1475,6.2295,6.349,6.5182,6.6567,6.7265,6.812,6.955,7.0343,7.0452,7.088,7.1645,7.188,7.188,7.188,7.188,7.188,7.188,5.6645,5.6916,5.8563,6.1197,6.4145,6.3899,6.3299,6.2404,6.1229,6.0133,5.9205,5.8058,5.7543,5.7543,5.7543,5.7543,5.7543,5.7543,5.7543,5.7543,5.7543,5.7543,5.7543,5.7543,5.7543,5.7488,5.7157,5.6917,5.6621,5.5857,5.5313,5.4988,5.4523,5.3891,5.337,5.3729,5.3426,5.2268,5.2426,5.2035,5.1208,5.0755,5.0544,5.0544,5.0491,5.0465,5.0439,5.0359,5.0359,5.0387,5.1453,5.2517,5.3474,5.462,5.5851,5.6882,5.6445,5.5815,5.5415,5.3212,5.1745,5.127,4.9999,4.9168,4.9168,4.9168,4.9168,4.9202,4.9682,4.992,4.9202,4.9168,4.9168,4.9179,4.9419,4.9658,4.9305,4.9442,4.9682,4.9282,4.9613,4.9988,5.0675,5.2716,5.4356,5.3464,5.3664,5.3985,5.4081,5.4394,5.5086,5.5837,5.6237,5.6962,5.7874,5.8741,5.9341,6.0515,6.2131,6.3223,6.3681,6.5612,6.6847,6.7019,6.8967,7.0015,7.0042,7.0935,7.1853,7.188,7.188,7.188,7.188,7.188,7.188,5.6505,5.6669,5.8495,6.0569,6.2344,6.2474,6.2098,6.1416,6.0738,5.9996,5.9095,5.7024,5.6125,5.6122,5.6097,5.6152,5.6095,5.6125,5.6341,5.6805,5.6832,5.7106,5.7515,5.7543,5.7543,5.7543,5.7543,5.7543,5.7403,5.686,5.6259,5.5797,5.5633,5.4704,5.3337,5.3916,5.3369,5.1696,5.1856,5.1605,5.0838,5.0491,5.0359,5.0359,5.0359,5.0359,5.0359,5.0359,5.0551,5.107,5.1725,5.2654,5.3966,5.4676,5.5605,5.6609,5.6028,5.5276,5.4634,5.2578,5.1045,5.0439,4.9658,4.9168,4.9168,4.9168,4.9168,4.9168,4.9168,4.9168,4.9168,4.9168,4.9168,4.9168,4.9168,4.9202,4.9168,4.9202,4.9168,4.9168,4.9168,4.9202,4.9453,5.0685,5.1596,5.1729,5.2257,5.252,5.2651,5.3567,5.4464,5.5258,5.5909,5.6768,5.8061,5.9014,5.9887,6.0788,6.2103,6.3244,6.3736,6.5128,6.5748,6.5748,6.7292,6.8557,6.9322,7.0361,7.1426,7.188,7.188,7.188,7.188,7.188,7.188,5.7157,5.7376,5.8358,5.8986,5.9041,5.915,5.9123,5.8955,5.8986,5.8901,5.8331,5.5496,5.4131,5.4049,5.4131,5.4158,5.4158,5.3935,5.4449,5.5346,5.5339,5.5823,5.6571,5.674,5.6943,5.6895,5.6867,5.6789,5.6966,5.7051,5.6584,5.5879,5.6696,5.5549,5.3009,5.3529,5.2901,5.0605,5.0606,5.0606,5.0524,5.0497,5.0442,5.0387,5.0359,5.0359,5.0359,5.0359,5.0824,5.1835,5.1889,5.249,5.3665,5.3885,5.4376,5.5494,5.5604,5.4853,5.323,5.1722,5.0228,4.921,4.8992,4.9004,4.9179,4.9168,4.9168,4.9168,4.9168,4.9168,4.911,4.9168,4.9168,4.9133,4.9099,4.9168,4.9168,4.9168,4.9168,4.9168,4.9168,4.9168,4.9168,4.9408,4.9385,4.9658,5.054,5.1121,5.1288,5.292,5.4501,5.519,5.6576,5.7823,5.8955,5.9696,6.087,6.2398,6.3059,6.3572,6.4227,6.4691,6.4773,6.5182,6.6001,6.7156,6.812,6.9359,7.0562,7.129,7.1689,7.188,7.188,7.188,7.188,5.484,5.4922,5.6097,5.6559,5.6639,5.7543,5.7433,5.6614,5.653,5.6068,5.5196,5.4432,5.4049,5.4049,5.4049,5.4049,5.388,5.2996,5.2696,5.2848,5.1991,5.1672,5.1932,5.1988,5.2444,5.3248,5.3336,5.3889,5.4726,5.484,5.4648,5.4541,5.4676,5.4895,5.4948,5.4349,5.3283,5.1889,5.2709,5.2709,5.1753,5.1725,5.1234,5.0441,5.0359,5.0359,5.0359,5.0359,5.0468,5.0715,5.0742,5.1289,5.2436,5.2545,5.3119,5.4295,5.4431,5.3414,5.1048,4.8754,4.7586,4.7917,4.7943,4.8304,4.9062,4.9168,4.9168,4.9168,4.9168,4.9099,4.895,4.9054,4.9099,4.8881,4.8881,4.8927,4.9099,4.8996,4.8927,4.9133,4.9168,4.9168,4.9168,4.9168,4.9168,4.9168,4.9442,4.9658,4.9794,5.1087,5.2684,5.3947,5.5988,5.7789,5.915,6.0651,6.2016,6.2786,6.3681,6.4282,6.4555,6.4718,6.4718,6.4828,6.5666,6.652,6.7011,6.8576,6.9951,7.047,7.1126,7.1717,7.1662,7.1754,7.1864,5.4049,5.4103,5.4704,5.4676,5.4156,5.4784,5.4646,5.4047,5.3556,5.2955,5.2381,5.2381,5.2354,5.2354,5.2381,5.2078,5.1521,5.0821,5.0488,5.0411,4.987,4.9854,5.0318,5.0369,5.0701,5.1246,5.1276,5.1949,5.3024,5.3167,5.3452,5.4021,5.4049,5.4349,5.495,5.4895,5.4212,5.3009,5.2572,5.2272,5.2108,5.1562,5.1261,5.1152,5.0606,5.0359,5.0359,5.0359,5.0578,5.1098,5.1152,5.1698,5.29,5.2982,5.3283,5.3994,5.4049,5.3107,5.106,4.9609,4.877,4.8523,4.8439,4.8374,4.8501,4.8888,4.9168,4.9168,4.9168,4.9088,4.8835,4.8766,4.8662,4.8524,4.8512,4.8558,4.8662,4.8616,4.8662,4.895,4.8996,4.903,4.9168,4.9168,4.9168,4.9168,4.9168,4.9202,4.9237,5.0473,5.1878,5.3263,5.4674,5.677,5.9752,6.2016,6.3381,6.3708,6.4343,6.4664,6.4718,6.4718,6.4718,6.4773,6.5237,6.583,6.6512,6.7666,6.8612,6.9131,6.9988,7.0261,7.0388,7.0808,7.0853,5.3474,5.353,5.3502,5.29,5.1835,5.1835,5.1862,5.178,5.0824,5.0359,5.0359,5.0359,5.0359,5.0359,5.0359,4.9799,4.8826,4.8496,4.8299,4.8312,4.7957,4.8344,4.9343,4.9313,4.9429,4.9554,4.9558,5.0186,5.1221,5.1282,5.197,5.3107,5.3412,5.3497,5.3583,5.454,5.4704,5.4049,5.1917,5.1289,5.2026,5.1097,5.1097,5.1971,5.0961,5.0387,5.0578,5.0468,5.0961,5.2272,5.2354,5.2845,5.3939,5.4022,5.3939,5.3775,5.3583,5.2989,5.177,5.1346,5.0499,4.9091,4.8815,4.8374,4.7533,4.8361,4.8911,4.8934,4.9098,4.9065,4.8835,4.8443,4.828,4.8245,4.8175,4.8175,4.828,4.821,4.8269,4.8628,4.8732,4.8801,4.895,4.8985,4.8985,4.9019,4.895,4.903,4.9237,5.0202,5.1512,5.2774,5.323,5.5261,5.8865,6.2309,6.331,6.3906,6.3892,6.4212,6.4212,6.4479,6.4718,6.4718,6.48,6.5182,6.5912,6.6321,6.7066,6.7902,6.8484,6.8621,6.8703,6.9049,6.924,5.1015,5.0988,5.1042,5.0852,5.0687,5.0633,5.0687,5.0633,0.0,0.0,0.0,5.0359,5.0359,5.0359,5.0359,5.0227,4.9907,4.7922,4.6964,4.6883,4.5014,4.423,4.4427,4.4427,4.4919,4.5823,4.5852,4.6469,4.7591,4.7591,4.8266,4.9541,5.0558,5.1007,5.1016,5.1207,5.2217,5.394,5.3583,5.2982,5.2108,5.1889,5.1889,5.208,5.0961,5.0797,5.1726,5.0852,5.137,5.3584,5.3693,5.3803,5.3993,5.4049,5.3556,5.249,5.1534,5.0908,5.0623,4.873,4.7033,4.5822,4.6363,4.672,4.6523,4.7178,4.7683,4.7907,4.8654,4.9065,4.8835,4.8443,4.8245,4.8187,4.7943,4.7873,4.8117,4.7943,4.7873,4.8257,4.8292,4.8326,4.8396,4.8431,4.8373,4.8373,4.8443,4.8477,4.8835,4.9122,4.991,5.1346,5.1977,5.3218,5.6037,5.8816,6.0141,6.0256,6.167,6.2732,6.2995,6.3874,6.4616,6.4718,6.4718,6.4828,6.5073,6.5775,6.6539,6.6758,6.7683,6.8402,6.8347,6.7729,6.7148,5.0359,0.0,5.0359,5.0359,0.0,5.0359,4.9611,4.8499,4.8473,4.8499,4.8473,4.8445,4.8499,4.8472,4.8499,4.8144,4.7507,4.6324,4.5459,4.484,4.3671,4.3148,4.3148,4.3148,4.3462,4.401,4.401,4.4635,4.5723,4.5752,4.6406,4.764,4.8857,4.9479,4.9507,5.0637,5.1534,5.2163,5.2163,5.219,5.2053,5.1534,5.148,5.2026,5.0934,0.0,0.0,0.0,0.0,0.0,0.0,0.0,0.0,0.0,0.0,5.1221,5.0658,4.9997,4.9308,4.815,4.6948,4.5817,4.6598,4.6656,4.5558,4.6058,4.6719,4.738,4.7092,4.7199,4.7899,4.749,4.7351,4.7817,4.7732,4.7605,4.7627,4.7451,4.7442,4.7838,4.7943,4.8012,4.821,4.8245,4.8245,4.8245,4.8245,4.8361,4.8662,4.8454,4.8628,4.9842,5.0362,5.1947,5.5487,5.7616,5.8483,5.986,6.1439,6.2543,6.2719,6.3805,6.4718,6.4718,6.4718,6.4718,6.48,6.521,6.5557,6.5701,6.6145,6.6535,6.65,6.6029,6.5584,4.9906,4.9826,4.9853,4.9746,4.9665,4.988,4.8718,4.6636,4.6636,4.6636,4.6636,4.6633,4.6579,4.6579,4.6605,4.6038,4.517,4.4995,4.437,4.3432,4.3275,4.3148,4.3148,4.3148,4.3148,4.3148,4.3148,4.3647,4.4552,4.4791,4.5492,4.6664,4.7752,4.8443,4.8989,0.0,0.0,0.0,5.0253,5.0797,5.1698,5.0824,5.0906,5.1998,5.0961,0.0,5.0633,5.0468,5.0551,5.1015,5.1042,0.0,0.0,0.0,0.0,0.0,0.0,0.0,0.0,0.0,0.0,0.0,4.5823,4.5559,4.3503,4.4286,4.5396,4.6488,4.5448,4.5326,4.6702,4.6168,4.6103,4.695,4.7005,4.6854,4.6553,4.664,4.6856,4.7194,4.7422,4.7605,4.7908,4.8,4.8,4.7943,4.7978,4.8129,4.8466,4.8025,4.792,4.8558,4.8939,5.0717,5.4956,5.5576,5.6421,5.8653,6.046,6.1617,6.1658,6.281,6.3981,6.4363,6.4391,6.4418,6.4718,6.4718,6.48,6.4746,6.4773,6.4718,6.4718,6.454,6.441,4.8469,4.7974,4.8002,4.7644,4.7199,4.8359,4.8002,4.6636,4.6636,4.6636,4.6636,4.6434,4.632,4.632,4.632,4.6235,4.6035,4.5232,4.482,4.4611,4.3641,4.3148,4.3148,4.3148,4.3148,4.3148,4.3148,4.3245,4.3395,4.4429,4.5492,4.6608,4.6831,4.7972,5.0069,5.0445,4.9988,4.8852,4.9799,5.0441,5.0551,5.0415,5.0879,5.1999,5.0961,5.0824,5.178,5.0879,5.1316,5.3392,5.3556,5.3584,5.3529,5.2654,5.1557,0.0,4.6731,0.0,0.0,0.0,0.0,0.0,0.0,0.0,0.0,4.0526,4.2804,4.4352,4.4627,4.4922,4.5518,4.486,4.4585,4.5041,4.4775,4.4553,4.4531,4.52,4.5701,4.5747,4.6541,4.7147,4.716,4.7195,4.7182,4.7253,4.7208,4.7281,4.7687,4.7652,4.7767,4.8222,4.8292,4.8628,4.9773,5.1121,5.2184,5.217,5.5165,5.7514,5.7711,5.986,6.1983,6.285,6.3029,6.345,6.4582,6.4657,6.4691,6.4718,6.4541,6.4391,6.4254,6.3444,6.3231,4.9151,4.9126,4.9126,4.6589,4.2587,4.3174,4.309,4.2554,4.2554,4.2554,4.2554,4.2412,4.2384,4.2408,4.2554,4.2786,4.3083,4.284,4.2967,4.3385,4.2981,4.2854,4.2823,4.3035,4.3148,4.3148,4.3148,4.3148,4.3178,4.3647,4.4547,4.5665,4.6324,4.7479,4.9033,4.7929,4.7367,4.7531,4.8744,4.9665,5.0333,5.0359,5.0605,5.1097,5.0606,5.0606,5.1097,5.0632,5.0878,5.1889,5.1999,5.1999,5.1917,4.9797,4.8994,0.0,0.0,0.0,0.0,0.0,0.0,0.0,0.0,0.0,0.0,0.0,4.0421,3.9579,4.095,4.2388,4.3475,4.4076,4.4525,4.4689,4.5031,4.4921,4.4207,4.4475,4.4743,4.4743,4.5579,4.6203,4.6226,4.6649,4.7019,4.7019,4.6538,4.6238,4.6434,4.6952,4.7429,4.7838,4.7873,4.7908,4.8012,4.9636,5.0968,5.1456,5.3518,5.5262,5.5321,5.7083,5.8682,5.9247,6.0172,6.1054,6.1728,6.2803,6.4009,6.4241,6.3087,6.1482,6.0602,6.0967,6.1588,4.8238,4.8241,4.8217,4.4929,3.9685,3.9425,3.9276,3.9275,3.9275,3.9275,3.9275,3.9275,3.9219,3.9134,3.9337,3.9722,4.0178,4.0456,4.1059,4.182,4.2031,4.2121,4.2129,4.2392,4.2602,4.2691,4.2572,4.2632,4.2804,4.3013,4.3712,4.4883,4.5809,4.6781,4.7737,4.674,4.6458,4.7085,4.8361,4.945,5.0333,5.0359,5.0359,5.0359,5.0359,5.0359,5.0359,5.0359,5.0359,5.0333,5.006,4.9786,4.9512,4.642,0.0,0.0,0.0,0.0,0.0,0.0,0.0,0.0,0.0,3.1226,3.032,0.0,3.7502,0.0,3.7412,3.9601,4.11,4.2617,0.0,0.0,4.4355,4.4426,4.3201,4.3481,4.3682,4.3436,4.4475,4.5178,4.5178,4.5881,4.6238,4.5958,4.5289,4.4876,4.5166,4.5846,4.6588,4.7294,4.7239,4.7139,4.7212,4.8394,4.971,5.0975,5.232,5.3199,5.3132,5.4496,5.5727,5.6014,5.721,5.826,5.8913,6.0277,6.1779,6.2424,6.0285,5.7784,5.7138,5.8131,5.9337,4.3527,4.2276,4.217,4.164,4.0775,3.984,3.9381,3.9275,3.9252,3.9275,3.9275,3.9275,3.9077,3.8713,3.8741,0.0,3.8854,3.9219,3.9842,4.0745,4.0775,4.0775,4.0804,4.0804,4.101,4.1326,4.098,4.115,4.1723,4.2577,4.3641,4.4854,4.4995,4.5629,4.6813,4.8727,4.9323,4.8413,4.9585,5.0253,5.0359,5.0359,5.0359,5.0359,5.0359,5.0359,5.0359,5.0359,5.0359,5.0332,4.9321,4.8253,4.713,0.0,0.0,0.0,0.0,0.0,0.0,0.0,0.0,0.0,0.0,0.0,0.0,0.0,0.0,3.2974,3.5372,0.0,3.8492,3.9469,0.0,0.0,0.0,4.1145,4.0146,4.1587,4.2377,4.1525,0.0,0.0,4.424,4.4285,4.3984,4.3059,4.2858,4.3148,4.4073,4.4318,4.5,4.6687,4.6238,4.5591,4.5481,4.5853,4.668,4.7902,4.9671,5.0771,5.0694,5.2182,5.379,5.4414,5.5144,5.5797,5.7073,5.699,5.7429,5.7514,5.6106,5.532,5.6224,5.5857,5.5694,4.0466,3.6858,3.6156,3.5505,3.4897,3.4483,3.4599,3.5045,3.5019,3.5384,3.5974,3.5974,3.5245,3.3988,3.4569,0.0,0.0,0.0,3.6964,3.8317,3.8413,3.8861,3.948,3.9704,3.9877,4.0043,3.9848,4.0371,4.1326,4.1104,4.093,4.0833,0.0,0.0,4.4552,4.6166,4.6774,4.6485,4.8278,4.9287,4.9315,4.9987,5.0359,5.0359,5.0359,5.0005,4.9321,4.995,4.9677,4.8308,4.7761,4.664,0.0,0.0,0.0,0.0,0.0,0.0,0.0,0.0,0.0,0.0,0.0,2.1748,2.0677,0.0,0.0,0.0,3.0462,3.209,3.3697,3.6865,0.0,0.0,0.0,0.0,0.0,0.0,0.0,3.8642,4.1262,4.298,4.2387,4.1829,4.1284,4.0874,4.1351,4.1927,4.2307,0.0,4.2811,4.4129,4.3963,4.3929,4.4441,4.5066,4.5445,4.5482,4.6692,4.7649,4.8178,4.9144,5.0005,5.0474,5.1559,5.2351,5.1811,5.0718,5.0304,5.1898,5.133,5.0723,5.1157,5.2049,5.3016,3.612,0.0,0.0,0.0,0.0,3.0171,3.0595,3.144,3.1418,3.1843,3.2516,3.2538,0.0,0.0,0.0,0.0,0.0,0.0,3.4297,3.546,3.6548,3.7237,3.7709,3.8283,3.8593,3.8649,3.8588,3.899,3.9655,3.7777,3.6973,3.7266,0.0,0.0,0.0,0.0,4.4788,4.4732,4.7246,4.8743,4.9097,4.9907,5.0359,5.0359,5.0005,4.9594,4.913,4.9239,4.8528,4.6911,4.5871,0.0,0.0,0.0,0.0,0.0,0.0,0.0,0.0,0.0,0.0,0.0,0.0,0.0,0.0,0.0,0.0,0.0,0.0,0.0,2.9479,3.3317,3.591,0.0,0.0,0.0,0.0,0.0,0.0,0.0,0.0,0.0,3.9618,3.9075,3.88,0.0,0.0,4.0474,4.0712,4.1033,4.1636,4.2846,4.2792,0.0,4.3939,4.4419,4.452,4.4196,4.4676,4.5356,4.6059,4.6643,4.6907,4.685,4.8135,4.8606,4.6868,4.5895,4.6237,4.7569,4.7726,4.7355,4.7305,4.8573,5.01,0.0,0.0,0.0,0.0,0.0,0.0,0.0,0.0,2.939,2.9435,0.0,2.9501,0.0,0.0,0.0,0.0,0.0,3.1375,0.0,0.0,3.5352,3.6241,3.5384,3.6335,3.6947,3.7149,3.6857,3.6598,3.6061,3.2145,0.0,0.0,0.0,0.0,0.0,0.0,4.4506,4.3878,4.6933,4.9152,5.02,5.028,5.0305,5.0305,4.9266,4.921,5.0141,4.8146,4.6914,4.6802,4.3442,0.0,0.0,0.0,0.0,0.0,0.0,0.0,0.0,0.0,0.0,0.0,0.0,0.0,0.0,0.0,0.0,0.0,0.0,0.0,0.0,2.843,0.0,0.0,0.0,0.0,0.0,0.0,0.0,0.0,0.0,0.0,3.558,3.6258,3.6821,3.6848,0.0,0.0,0.0,0.0,4.186,4.3704,4.3193,4.2903,4.3928,4.3315,4.3015,4.395,0.0,0.0,4.4218,4.4835,4.5265,4.4924,4.5321,4.4798,4.2826,4.4283,4.5798,4.552,4.5701,4.6205,4.6275,4.6213,4.653,0.0,0.0,0.0,0.0,0.0,0.0,0.0,0.0,0.0,2.5928,2.6551,2.6573,0.0,0.0,0.0,0.0,0.0,0.0,0.0,0.0,3.1846,3.2739,3.2465,3.4054,3.4533,0.0,3.328,3.1877,0.0,0.0,0.0,0.0,0.0,0.0,0.0,0.0,4.2716,4.2613,4.5657,4.7946,4.9125,4.9179,4.9585,5.0333,4.9923,4.9567,4.9212,4.7679,4.6856,0.0,0.0,0.0,0.0,0.0,0.0,0.0,0.0,0.0,0.0,0.0,0.0,0.0,0.0,0.0,0.0,0.0,0.0,0.0,0.0,0.0,0.0,0.0,2.8118,0.0,0.0,0.0,0.0,0.0,0.0,0.0,0.0,0.0,3.349,3.4716,3.5522,3.4928,3.6218,3.7379,3.7691,0.0,0.0,0.0,0.0,0.0,0.0,0.0,4.2511,4.2262,4.329,4.3905,4.3248,4.3901,4.4535,4.4546,0.0,0.0,3.9739,4.0135,4.1311,4.1978,4.1145,4.08,4.229,4.2779,4.3542,0.0,0.0,0.0,0.0,0.0,0.0,0.0,0.0,0.0,2.1963,2.259,0.0,0.0,0.0,0.0,0.0,0.0,0.0,0.0,0.0,0.0,0.0,2.9479,3.1109,0.0,0.0,0.0,0.0,0.0,0.0,0.0,0.0,0.0,0.0,0.0,0.0,4.0015,4.0374,4.3998,4.6427,4.7399,4.7765,4.8498,4.9692,4.9341,4.8931,4.8583,0.0,0.0,0.0,0.0,0.0,0.0,0.0,0.0,0.0,0.0,0.0,0.0,0.0,0.0,0.0,0.0,0.0,0.0,0.0,0.0,0.0,0.0,0.0,0.0,0.0,2.4495,0.0,0.0,0.0,0.0,0.0,0.0,0.0,0.0,0.0,0.0,0.0,3.349,3.4188,3.5388,3.6374,3.6687,3.7289,3.802,0.0,0.0,0.0,0.0,0.0,0.0,0.0,0.0,0.0,0.0,0.0,0.0,0.0,0.0,3.972,3.5692,3.5842,3.6932,3.8088,0.0,0.0,0.0,0.0,0.0,0.0,0.0,0.0,0.0,0.0,0.0,0.0,0.0,0.0,0.0,1.7656,0.0,0.0,1.7678,0.0,0.0,0.0,0.0,0.0,0.0,0.0,0.0,0.0,0.0,0.0,0.0,0.0,0.0,0.0,0.0,0.0,0.0,0.0,0.0,0.0,0.0,3.6497,3.7165,4.1974,4.4658,4.5063,4.6106,4.7251,4.8443,4.7365,4.726,4.8452,0.0,0.0,0.0,0.0,0.0,0.0,0.0,0.0,0.0,0.0,0.0,0.0,0.0,0.0,0.0,0.0,0.0,0.0,0.0,0.0,0.0,0.0,0.0,0.0,0.0,0.0,1.9705,2.2801,2.6226,0.0,0.0,0.0,0.0,0.0,0.0,0.0,0.0,0.0,0.0,3.5117,3.5522,3.6553,3.8338,3.9135,3.8434,3.9052,3.9655,3.9655,3.8918,3.8948,0.0,0.0,0.0,0.0,0.0,0.0,0.0,0.0,0.0,0.0,0.0,0.0,0.0,0.0,0.0,0.0,0.0,0.0,0.0,0.0,0.0,0.0,0.0,0.0,0.0,0.0,0.0,0.0,0.0,0.0,0.0,0.0,0.0,0.0,0.0,0.0,0.0,0.0,0.0,0.0,0.0,0.0,0.0,0.0,0.0,0.0,0.0,0.0,0.0,0.0,0.0,0.0,0.0,0.0,3.4798,3.5365,4.0036,4.2854,4.3573,4.4805,4.601,4.7143,4.6881,4.6839,0.0,0.0,0.0,0.0,0.0,0.0,0.0,0.0,0.0,0.0,0.0,0.0,0.0,0.0,0.0,0.0,0.0,0.0,0.0,0.0,0.0,0.0,0.0,0.0,0.0,0.0,0.0,0.0,2.4851,2.5939,2.6048,0.0,0.0,0.0,0.0,0.0,0.0,0.0,0.0,0.0,0.0,3.3735,3.5429,3.6749,3.7786,3.8255,3.8517,3.8695,3.8695,3.8472,3.8724,3.9923,0.0,0.0,0.0,0.0,0.0,0.0,0.0,0.0,0.0,0.0,0.0,0.0,0.0,0.0,0.0,0.0,0.0,0.0,0.0,0.0,0.0,0.0,0.0,0.0,0.0,0.0,0.0,0.0,0.0,0.0,0.0,0.0,0.0,0.0,0.0,0.0,0.0,0.0,0.0,0.0,0.0,0.0,0.0,0.0,0.0,0.0,0.0,0.0,0.0,0.0,0.0,0.0,0.0,3.2952,3.352,3.8616,4.1162,4.1143,4.2763,4.3983,4.4783,4.4355,4.4508,0.0,0.0,0.0,0.0,0.0,0.0,0.0,0.0,0.0,0.0,0.0,0.0,0.0,0.0,0.0,0.0,0.0,0.0,0.0,0.0,0.0,0.0,0.0,0.0,0.0,0.0,0.0,0.0,2.3409,2.4353,2.3737,0.0,0.0,0.0,0.0,0.0,0.0,0.0,0.0,0.0,0.0,3.2844,3.4452,3.5861,0.0,0.0,3.7423,3.7585,3.7178,3.7105,3.7284,3.7835,3.715,0.0,0.0,0.0,0.0,0.0,0.0,0.0,0.0,0.0,0.0,0.0,0.0,0.0,0.0,0.0,0.0,0.0,0.0,0.0,0.0,0.0,0.0,0.0,0.0,0.0,0.0,0.0,0.0,0.0,0.0,0.0,0.0,0.0,0.0,0.0,0.0,0.0,0.0,0.0,0.0,0.0,0.0,0.0,0.0,0.0,0.0,0.0,0.0,0.0,0.0,0.0,0.0,3.1139,3.1896,3.7567,3.9722,3.8177,4.043,4.1629,4.1649,4.0732,4.1179,0.0,0.0,0.0,0.0,0.0,0.0,0.0,0.0,0.0,0.0,0.0,0.0,0.0,0.0,0.0,0.0,0.0,0.0,0.0,0.0,0.0,0.0,0.0,0.0,0.0,0.0,0.0,0.0,0.0,0.0,0.0,0.0,0.0,0.0,0.0,0.0,0.0,0.0,0.0,0.0,0.0,3.2445,3.3744,3.5464,3.6285,0.0,3.6013,3.6258,3.5246,3.5023,3.5001,3.509,0.0,0.0,0.0,0.0,0.0,0.0,0.0,0.0,0.0,0.0,0.0,0.0,0.0,0.0,0.0,0.0,0.0,0.0,0.0,0.0,0.0,0.0,0.0,0.0,0.0,0.0,0.0,0.0,0.0,0.0,0.0,0.0,0.0,0.0,0.0,0.0,0.0,0.0,0.0,0.0,0.0,0.0,0.0,0.0,0.0,0.0,0.0,0.0,0.0,0.0,0.0,0.0,0.0,0.0,3.2169,3.6959,3.8786,3.7486,4.0619,4.1658,4.0263,4.1626,0.0,0.0,0.0,0.0,0.0,0.0,0.0,0.0,0.0,0.0,0.0,0.0,0.0,0.0,0.0,0.0,0.0,0.0,0.0,0.0,0.0,0.0,0.0,0.0,0.0,0.0,0.0,1.4015,0.0,0.0,0.0,0.0,0.0,0.0,0.0,0.0,0.0,0.0,0.0,0.0,0.0,0.0,3.0461,3.4314,3.525,3.5469,0.0,0.0,3.5228,3.4325,3.3515,3.3245,0.0,0.0,0.0,0.0,0.0,0.0,0.0,0.0,0.0,0.0,0.0,0.0,0.0,0.0,0.0,0.0,0.0,0.0,0.0,0.0,0.0,0.0,0.0,0.0,0.0,0.0,0.0,0.0,0.0,0.0,0.0,0.0,0.0,0.0,0.0,0.0,0.0,0.0,0.0,0.0,0.0,0.0,0.0,0.0,0.0,0.0,0.0,0.0,0.0,0.0,0.0,0.0,0.0,0.0,2.9788,3.113,3.585,3.7731,3.6683,3.9488,4.0106,3.8188,3.9277,3.8983,0.0,0.0,0.0,0.0,0.0,0.0,0.0,0.0,0.0,0.0,0.0,0.0,0.0,0.0,0.0,0.0,0.0,0.0,0.0,0.0,0.0,0.0,0.0,0.0,0.0,0.0,0.0,0.0,0.0,0.0,0.0,0.0,0.0,0.0,0.0,0.0,0.0,0.0,0.0,0.0,0.0,0.0,3.2883,3.4404,0.0,0.0,0.0,3.5362,3.4012,0.0,0.0,0.0,0.0,0.0,0.0,0.0,0.0,0.0,0.0,0.0,0.0,0.0,0.0,0.0,0.0,0.0,0.0,0.0,0.0,0.0,0.0,0.0,0.0,0.0,0.0,0.0,0.0,0.0,0.0,0.0,0.0,0.0,0.0,0.0,0.0,0.0,0.0,0.0,0.0,0.0,0.0,0.0,0.0,0.0,0.0,0.0,0.0,0.0,0.0,0.0,0.0,0.0,0.0,0.0,0.0,0.0,2.9702,3.4723,3.6837,3.5884,3.8099,3.8334,3.6202,3.6086,3.5959,0.0,0.0,0.0,0.0,0.0,0.0,0.0,0.0,0.0,0.0,0.0,0.0,0.0,0.0,0.0,0.0,0.0,0.0,0.0,0.0,0.0,0.0,0.0,0.0,0.0,0.0,0.0,0.0,0.0,0.0,0.0,0.0,0.0,0.0,0.0,0.0,0.0,0.0,0.0,0.0,0.0,2.9449,3.0723,3.3267,3.4311,0.0,0.0,3.5598,3.3744,3.3211,0.0,0.0,0.0,0.0,0.0,0.0,0.0,0.0,0.0,0.0,0.0,0.0,0.0,0.0,0.0,0.0,0.0,0.0,0.0,0.0,0.0,0.0,0.0,0.0,0.0,0.0,0.0,0.0,0.0,0.0,0.0,0.0,0.0,0.0,0.0,0.0,0.0,0.0,0.0,0.0,0.0,0.0,0.0,0.0,0.0,0.0,0.0,0.0,0.0,0.0,0.0,0.0,0.0,0.0,0.0,0.0,3.0731,3.5544,3.7172,3.5535,3.9101,3.9503,3.6316,3.7808,3.7459,0.0,0.0,0.0,0.0,0.0,0.0,0.0,0.0,0.0,0.0,0.0,0.0,0.0,0.0,0.0,0.0,0.0,0.0,0.0,0.0,0.0,0.0,0.0,0.0,0.0,0.0,0.0,0.0,0.0,0.0,0.0,0.0,0.0,0.0,0.0,0.0,0.0,0.0,0.0,0.0,0.0,2.795,3.0549,3.2737,0.0,0.0,0.0,0.0,3.1666,2.9479,0.0,0.0,0.0,0.0,0.0,0.0,0.0,0.0,0.0,0.0,0.0,0.0,0.0,0.0,0.0,0.0,0.0,0.0,0.0,0.0,0.0,0.0,0.0,0.0,0.0,0.0,0.0,0.0,0.0,0.0,0.0,0.0,0.0,0.0,0.0,0.0,0.0,0.0,0.0,0.0,0.0,0.0,0.0,0.0,0.0,0.0,0.0,0.0,0.0,0.0,0.0,0.0,0.0,0.0,0.0,0.0,3.0953,3.4347,3.592,3.5578,3.8052,3.8396,3.6247,3.6594,3.5814,0.0,0.0,0.0,0.0,0.0,0.0,0.0,0.0,0.0,0.0,0.0,0.0,0.0,0.0,0.0,0.0,0.0,0.0,0.0,0.0,0.0,0.0,0.0,0.0,0.0,0.0,0.0,0.0,0.0,0.0,0.0,0.0,0.0,0.0,0.0,0.0,0.0,0.0,0.0,0.0,2.5301,2.6603,2.9123,0.0,0.0,0.0,0.0,0.0,0.0,2.8496,2.738,0.0,0.0,0.0,0.0,0.0,0.0,0.0,0.0,0.0,0.0,0.0,0.0,0.0,0.0,0.0,0.0,0.0,0.0,0.0,0.0,0.0,0.0,0.0,0.0,0.0,0.0,0.0,0.0,0.0,0.0,0.0,0.0,0.0,0.0,0.0,0.0,0.0,0.0,0.0,0.0,0.0,0.0,0.0,0.0,0.0,0.0,0.0,0.0,0.0,0.0,0.0,0.0,0.0,0.0,0.0,3.0394,3.2804,3.4588,3.5655,3.6566,3.6842,3.6306,3.4722,3.3363,3.214,0.0,0.0,0.0,0.0,0.0,0.0,0.0,0.0,0.0,0.0,0.0,0.0,0.0,0.0,0.0,0.0,0.0,0.0,0.0,0.0,0.0,0.0,0.0,0.0,0.0,0.0,0.0,0.0,0.0,0.0,0.0,0.0,0.0,0.0,0.0,0.0,0.0,0.0,0.0,2.404,2.5307,0.0,0.0,0.0,0.0,0.0,0.0,0.0,0.0,2.7288,0.0,0.0,0.0,0.0,0.0,0.0,0.0,0.0,0.0,0.0,0.0,0.0,0.0,0.0,0.0,0.0,0.0,0.0,0.0,0.0,0.0,0.0,0.0,0.0,0.0,0.0,0.0,0.0,0.0,0.0,0.0,0.0,0.0,0.0,0.0,0.0,0.0,0.0,0.0,0.0,0.0,0.0,0.0,0.0,0.0,0.0,0.0,0.0,0.0,0.0,0.0,0.0,0.0,0.0,0.0,0.0,3.2732,3.505,3.5303,3.6295,3.6835,3.6937,3.4519,3.2534,3.1046,0.0,0.0,0.0,0.0,0.0,0.0,0.0,0.0,0.0,0.0,0.0,0.0,0.0,0.0,0.0,0.0,0.0,0.0,0.0,0.0,0.0,0.0,0.0,0.0,0.0,0.0,0.0,0.0,0.0,0.0,0.0,0.0,0.0,0.0,0.0,0.0,0.0,0.0,1.9153,2.1873,0.0,0.0,0.0,0.0,0.0,0.0,0.0,0.0,2.4875,0.0,0.0,0.0,0.0,0.0,0.0,0.0,0.0,0.0,0.0,0.0,0.0,0.0,0.0,0.0,0.0,0.0,0.0,0.0,0.0,0.0,0.0,0.0,0.0,0.0,0.0,0.0,0.0,0.0,0.0,0.0,0.0,0.0,0.0,0.0,0.0,0.0,0.0,0.0,0.0,0.0,0.0,0.0,0.0,0.0,0.0,0.0,0.0,0.0,0.0,0.0,0.0,0.0,0.0,0.0,0.0,0.0,0.0,3.3964,3.4678,3.5725,3.6327,3.6463,3.3689,3.1634,0.0,0.0,0.0,0.0,0.0,0.0,0.0,0.0,0.0,0.0,0.0,0.0,0.0,0.0,0.0,0.0,0.0,0.0,0.0,0.0,0.0,0.0,0.0,0.0,0.0,0.0,0.0,0.0,0.0,0.0,0.0,0.0,0.0,0.0,0.0,0.0,0.0,0.0,0.0,0.0,0.0,0.0,0.0,0.0,0.0,0.0,0.0,0.0,0.0,0.0,0.0,0.0,0.0,0.0,0.0,0.0,0.0,0.0,0.0,0.0,0.0,0.0,0.0,0.0,0.0,0.0,0.0,0.0,0.0,0.0,0.0,0.0,0.0,0.0,0.0,0.0,0.0,0.0,0.0,0.0,0.0,0.0,0.0,0.0,0.0,0.0,0.0,0.0,0.0,0.0,0.0,0.0,0.0,0.0,0.0,0.0,0.0,0.0,0.0,0.0,0.0,0.0,0.0,0.0,0.0,0.0,0.0,0.0,3.2679,3.409,3.4929,3.5556,3.5898,3.2946,3.1002,0.0,0.0,0.0,0.0,0.0,0.0,0.0,0.0,0.0,0.0,0.0,0.0,0.0,0.0,0.0,0.0,0.0,0.0,0.0,0.0,0.0,0.0,0.0,0.0,0.0,0.0,0.0,0.0,0.0,0.0,0.0,0.0,0.0,0.0,0.0,0.0,0.0,0.0,0.0,0.0,0.0,0.0,0.0,0.0,0.0,0.0,0.0,0.0,2.148,0.0,0.0,0.0,0.0,0.0,0.0,0.0,0.0,0.0,0.0,0.0,0.0,0.0,0.0,0.0,0.0,0.0,0.0,0.0,0.0,0.0,0.0,0.0,0.0,0.0,0.0,0.0,0.0,0.0,0.0,0.0,0.0,0.0,0.0,0.0,0.0,0.0,0.0,0.0,0.0,0.0,0.0,0.0,0.0,0.0,0.0,0.0,0.0,0.0,0.0,0.0,0.0,0.0,0.0,0.0,0.0,0.0,0.0,0.0,3.1937,3.382,3.3977,3.4421,3.5155,3.2704,3.0785,0.0,0.0,0.0,0.0,0.0,0.0,0.0,0.0,0.0,0.0,0.0,0.0,0.0,0.0,0.0,0.0,0.0,0.0,0.0,0.0,0.0,0.0,0.0,0.0,0.0,0.0,0.0,0.0,0.0,0.0,0.0,0.0,0.0,0.0,0.0,0.0,0.0,0.0,0.0,0.0,0.0,0.0,0.0,0.0,0.0,0.0,0.0,0.0,0.0,0.0,0.0,0.0,0.0,0.0,0.0,0.0,0.0,0.0,0.0,0.0,0.0,0.0,0.0,0.0,0.0,0.0,0.0,0.0,0.0,0.0,0.0,0.0,0.0,0.0,0.0,0.0,0.0,0.0,0.0,0.0,0.0,0.0,0.0,0.0,0.0,0.0,0.0,0.0,0.0,0.0,0.0,0.0,0.0,0.0,0.0,0.0,0.0,0.0,0.0,0.0,0.0,0.0,0.0,0.0,0.0,0.0,0.0,0.0,3.0417,3.1221,3.236,3.2313,3.1062,3.044,2.9139,0.0,0.0,0.0,0.0,0.0,0.0,0.0,0.0,0.0,0.0,0.0,0.0,0.0,0.0,0.0,0.0,0.0,0.0,0.0,0.0,0.0,0.0,0.0,0.0,0.0,0.0,0.0,0.0,0.0,0.0,0.0,0.0,0.0,0.0,0.0,0.0,0.0,0.0,0.0,0.0,0.0,0.0,0.0,0.0,0.0,0.0,0.0,0.0,0.0,0.0,0.0,0.0,0.0,0.0,0.0,0.0,0.0,0.0,0.0,0.0,0.0,0.0,0.0,0.0,0.0,0.0,0.0,0.0,0.0,0.0,0.0,0.0,0.0,0.0,0.0,0.0,0.0,0.0,0.0,0.0,0.0,0.0,0.0,0.0,0.0,0.0,0.0,0.0,0.0,0.0,0.0,0.0,0.0,0.0,0.0,0.0,0.0,0.0,0.0,0.0,0.0,0.0,0.0,0.0,0.0,0.0,0.0,0.0,0.0,2.9033,3.0126,2.9724,2.7692,2.8047,2.7134,0.0,0.0,0.0,0.0,0.0,0.0,0.0,0.0,0.0,0.0,0.0,0.0,0.0,0.0,0.0,0.0,0.0,0.0,0.0,0.0,0.0,0.0,0.0,0.0,0.0,0.0,0.0,0.0,0.0,0.0,0.0,0.0,0.0,0.0,0.0,0.0,0.0,0.0,0.0,0.0,0.0,0.0,0.0,0.0,0.0,0.0,0.0,0.0,0.0,0.0,0.0,0.0,0.0,0.0,0.0,0.0,0.0,0.0,0.0,0.0,0.0,0.0,0.0,0.0,0.0,0.0,0.0,0.0,0.0,0.0,0.0,0.0,0.0,0.0,0.0,0.0,0.0,0.0,0.0,0.0,0.0,0.0,0.0,0.0,0.0,0.0,0.0,0.0,0.0,0.0,0.0,0.0,0.0,0.0,0.0,0.0,0.0,0.0,0.0,0.0,0.0,0.0,0.0,0.0,0.0,0.0,0.0,0.0,0.0,2.8051,2.718,2.6712,2.6528,2.5903,2.4936,0.0,0.0,0.0,0.0,0.0,0.0,0.0,0.0,0.0,0.0,0.0,0.0,0.0,0.0,0.0,0.0,0.0,0.0,0.0,0.0,0.0,0.0,0.0,0.0,0.0,0.0,0.0,0.0,0.0,0.0,0.0,0.0,0.0,0.0,0.0,0.0,0.0,0.0,0.0,0.0,0.0,0.0,0.0,0.0,0.0,0.0,0.0,0.0,0.0,0.0,0.0,0.0,0.0,0.0,0.0,0.0,0.0,0.0,0.0,0.0,0.0,0.0,0.0,0.0,0.0,0.0,0.0,0.0,0.0,0.0,0.0,0.0,0.0,0.0,0.0,0.0,0.0,0.0,0.0,0.0,0.0,0.0,0.0,0.0,0.0,0.0,0.0,0.0,0.0,0.0,0.0,0.0,0.0,0.0,0.0,0.0,0.0,0.0,0.0,0.0,0.0,0.0,0.0,0.0,0.0,0.0,0.0,0.0,0.0,2.5255,2.5992,2.6151,2.559,2.5308,2.438,2.2837,0.0,0.0,0.0,0.0,0.0,0.0,0.0,0.0,0.0,0.0,0.0,0.0,0.0,0.0,0.0,0.0,0.0,0.0,0.0,0.0,0.0,0.0,0.0,0.0,0.0,0.0,0.0,0.0,0.0,0.0,0.0,0.0,0.0,0.0,0.0,0.0,0.0,0.0,0.0,0.0,0.0,0.0,0.0,0.0,0.0,0.0,0.0,0.0,0.0,0.0,0.0,0.0,0.0,0.0,0.0,0.0,0.0,0.0,0.0,0.0,0.0,0.0,0.0,0.0,0.0,0.0,0.0,0.0,0.0,0.0,0.0,0.0,0.0,0.0,0.0,0.0,0.0,0.0,0.0,0.0,0.0,0.0,0.0,0.0,0.0,0.0,0.0,0.0,0.0,0.0,0.0,0.0,0.0,0.0,0.0,0.0,0.0,0.0,0.0,0.0,0.0,0.0,0.0,0.0,0.0,0.0,0.0,0.0,2.3529,2.5165,2.5701,2.5098,2.4778,2.3658,0.0,0.0,0.0,0.0,0.0,0.0,0.0,0.0,0.0,0.0,0.0,0.0,0.0,0.0,0.0,0.0,0.0,0.0,0.0,0.0,0.0,0.0,0.0,0.0,0.0,0.0,0.0,0.0,0.0,0.0,0.0,0.0,0.0,0.0,0.0,0.0,0.0,0.0,0.0,0.0,0.0,0.0,0.0,0.0,0.0,0.0,0.0,0.0,0.0,0.0,0.0,0.0,0.0,0.0,0.0,0.0,0.0,0.0,0.0,0.0,0.0,0.0,0.0,0.0,0.0,0.0,0.0,0.0,0.0,0.0,0.0,0.0,0.0,0.0,0.0,0.0,0.0,0.0,0.0,0.0,0.0,0.0,0.0,0.0,0.0,0.0,0.0,0.0,0.0,0.0,0.0,0.0,0.0,0.0,0.0,0.0,0.0,0.0,0.0,0.0,0.0,0.0,0.0,0.0,0.0,0.0,0.0,0.0,2.0568,2.339,2.4513,2.5053,2.505,2.4128,2.2662,0.0,0.0,0.0,0.0,0.0,0.0,0.0,0.0,0.0,0.0,0.0,0.0,0.0,0.0,0.0,0.0,0.0,0.0,0.0,0.0,0.0,0.0,0.0,0.0,0.0,0.0,0.0,0.0,0.0,0.0,0.0,0.0,0.0,0.0,0.0,0.0,0.0,0.0,0.0,0.0,0.0,0.0,0.0,0.0,0.0,0.0,0.0,0.0,0.0,0.0,0.0,0.0,0.0,0.0,0.0,0.0,0.0,0.0,0.0,0.0,0.0,0.0,0.0,0.0,0.0,0.0,0.0,0.0,0.0,0.0,0.0,0.0,0.0,0.0,0.0,0.0,0.0,0.0,0.0,0.0,0.0,0.0,0.0,0.0,0.0,0.0,0.0,0.0,0.0,0.0,0.0,0.0,0.0,0.0,0.0,0.0,0.0,0.0,0.0,0.0,0.0,0.0,0.0,0.0,0.0,0.0,0.0,0.0,0.0,2.0501,0.0,2.4375,2.5005,2.4066,2.2959,0.0,0.0,0.0,0.0,0.0,0.0,0.0,0.0,0.0,0.0,0.0,0.0,0.0,0.0,0.0,0.0,0.0,0.0,0.0,0.0,0.0,0.0,0.0,0.0,0.0,0.0,0.0,0.0,0.0,0.0,0.0,0.0,0.0,0.0,0.0,0.0,0.0,0.0,0.0,0.0,0.0,0.0,0.0,0.0,0.0,0.0,0.0,0.0,0.0,0.0,0.0,0.0,0.0,0.0,0.0,0.0,0.0,0.0,0.0,0.0,0.0,0.0,0.0,0.0,0.0,0.0,0.0,0.0,0.0,0.0,0.0,0.0,0.0,0.0,0.0,0.0,0.0,0.0,0.0,0.0,0.0,0.0,0.0,0.0,0.0,0.0,0.0,0.0,0.0,0.0,0.0,0.0,0.0,0.0,0.0,0.0,0.0,0.0,0.0,0.0,0.0,0.0,0.0,0.0,0.0,0.0,0.0,0.0,0.0,2.056,2.1802,2.3109,2.4401,2.3494,2.2562,0.0,0.0,0.0,0.0,0.0,0.0,0.0,0.0,0.0,0.0,0.0,0.0,0.0,0.0,0.0,0.0,0.0,0.0,0.0,0.0,0.0,0.0,0.0,0.0,0.0,0.0,0.0,0.0,0.0,0.0,0.0,0.0,0.0,0.0,0.0,0.0,0.0,0.0,0.0,0.0,0.0,0.0,0.0,0.0,0.0,0.0,0.0,0.0,0.0,0.0,0.0,0.0,0.0,0.0,0.0,0.0,0.0,0.0,0.0,0.0,0.0,0.0,0.0,0.0,0.0,0.0,0.0,0.0,0.0,0.0,0.0,0.0,0.0,0.0,0.0,0.0,0.0,0.0,0.0,0.0,0.0,0.0,0.0,0.0,0.0,0.0,0.0,0.0,0.0,0.0,0.0,0.0,0.0,0.0,0.0,0.0,0.0,0.0,0.0,0.0,0.0,0.0,0.0,0.0,0.0,0.0,0.0,0.0,0.0,2.2886,2.1461,2.1445,2.3265,2.2466,2.1561,0.0,0.0,0.0,0.0,0.0,0.0,0.0,0.0,0.0,0.0,0.0,0.0,0.0,0.0,0.0,0.0,0.0,0.0,0.0,0.0,0.0,0.0,0.0,0.0,0.0,0.0,0.0,0.0,0.0,0.0,0.0,0.0,0.0,0.0,0.0,0.0,0.0,0.0,0.0,0.0,0.0,0.0,0.0,0.0,0.0,0.0,0.0,0.0,0.0,0.0,0.0,0.0,0.0,0.0,0.0,0.0,0.0,0.0,0.0,0.0,0.0,0.0,0.0,0.0,0.0,0.0,0.0,0.0,0.0,0.0,0.0,0.0,0.0,0.0,0.0,0.0,0.0,0.0,0.0,0.0,0.0,0.0,0.0,0.0,0.0,0.0,0.0,0.0,0.0,0.0,0.0,0.0,0.0,0.0,0.0,0.0,0.0,0.0,0.0,0.0,0.0,0.0,0.0,0.0,0.0,0.0,0.0,0.0,0.0,0.0,1.9429,2.0076,2.1343,2.1212,2.0677,1.97,0.0,0.0,0.0,0.0,0.0,0.0,0.0,0.0,0.0,0.0,0.0,0.0,0.0,0.0,0.0,0.0,0.0,0.0,0.0,0.0,0.0,0.0,0.0,0.0,0.0,0.0,0.0,0.0,0.0,0.0,0.0,0.0,0.0,0.0,0.0,0.0,0.0,0.0,0.0,0.0,0.0,0.0,0.0,0.0,0.0,0.0,0.0,0.0,0.0,0.0,0.0,0.0,0.0,0.0,0.0,0.0,0.0,0.0,0.0,0.0,0.0,0.0,0.0,0.0,0.0,0.0,0.0,0.0,0.0,0.0,0.0,0.0,0.0,0.0,0.0,0.0,0.0,0.0,0.0,0.0,0.0,0.0,0.0,0.0,0.0,0.0,0.0,0.0,0.0,0.0,0.0,0.0,0.0,0.0,0.0,0.0,0.0,0.0,0.0,0.0,0.0,0.0,0.0,0.0,0.0,0.0,0.0,0.0,0.0,0.0,1.9169,2.056,2.0287,1.9962,0.0,0.0,0.0,0.0,0.0,0.0,0.0,0.0,0.0,0.0,0.0,0.0,0.0,0.0,0.0,0.0,0.0,0.0,0.0,0.0,0.0,0.0,0.0,0.0,0.0,0.0,0.0,0.0,0.0,0.0,0.0,0.0,0.0,0.0,0.0,0.0,0.0,0.0,0.0,0.0,0.0,0.0,0.0,0.0,0.0,0.0,0.0,0.0,0.0,0.0,0.0,0.0,0.0,0.0,0.0,0.0,0.0,0.0,0.0,0.0,0.0,0.0,0.0,0.0,0.0,0.0,0.0,0.0,0.0,0.0,0.0,0.0,0.0,0.0,0.0,0.0,0.0,0.0,0.0,0.0,0.0,0.0,0.0,0.0,0.0,0.0,0.0,0.0,0.0,0.0,0.0,0.0,0.0,0.0,0.0,0.0,0.0,0.0,0.0,0.0,0.0,0.0,0.0,0.0,0.0,0.0,0.0,0.0,0.0,0.0,0.0,1.8603,2.0263,1.9615,0.0,1.9991,0.0,0.0,0.0,0.0,0.0,0.0,0.0,0.0,0.0,0.0,0.0,0.0,0.0,0.0,0.0,0.0,0.0,0.0,0.0,0.0,0.0,0.0,0.0,0.0,0.0,0.0,0.0,0.0,0.0,0.0,0.0,0.0,0.0,0.0,0.0,0.0,0.0,0.0,0.0,0.0,0.0,0.0,0.0,0.0,0.0,0.0,0.0,0.0,0.0,0.0,0.0,0.0,0.0,0.0,0.0,0.0,0.0,0.0,0.0,0.0,0.0,0.0,0.0,0.0,0.0,0.0,0.0,0.0,0.0,0.0,0.0,0.0,0.0,0.0,0.0,0.0,0.0,0.0,0.0,0.0,0.0,0.0,0.0,0.0,0.0,0.0,0.0,0.0,0.0,0.0,0.0,0.0,0.0,0.0,0.0,0.0,0.0,0.0,0.0,0.0,0.0,0.0,0.0,0.0,0.0,0.0,0.0,0.0,0.0,0.0,0.0,0.0,1.9556,1.9658,1.8511,0.0,0.0,0.0,0.0,0.0,0.0,0.0,0.0,0.0,0.0,0.0,0.0,0.0,0.0,0.0,0.0,0.0,0.0,0.0,0.0,0.0,0.0,0.0,0.0,0.0,0.0,0.0,0.0,0.0,0.0,0.0,0.0,0.0,0.0,0.0,0.0,0.0,0.0,0.0,0.0,0.0,0.0,0.0,0.0,0.0,0.0,0.0,0.0,0.0,0.0,0.0,0.0,0.0,0.0,0.0,0.0,0.0,0.0,0.0,0.0,0.0,0.0,0.0,0.0,0.0,0.0,0.0,0.0,0.0,0.0,0.0,0.0,0.0,0.0,0.0,0.0,0.0,0.0,0.0,0.0,0.0,0.0,0.0,0.0,0.0,0.0,0.0,0.0,0.0,0.0,0.0,0.0,0.0,0.0,0.0,0.0,0.0,0.0,0.0,0.0,0.0,0.0,0.0,0.0,0.0,0.0,0.0,0.0,0.0,0.0,1.8611,1.7754,1.9102,1.922,1.7874,0.0,0.0,0.0,0.0,0.0,0.0,0.0,0.0,0.0,0.0,0.0,0.0,0.0,0.0,0.0,0.0,0.0,0.0,0.0,0.0,0.0,0.0,0.0,0.0,0.0,0.0,0.0,0.0,0.0,0.0,0.0,0.0,0.0,0.0,0.0,0.0,0.0,0.0,0.0,0.0,0.0,0.0,0.0,0.0,0.0,0.0,0.0,0.0,0.0,0.0,0.0,0.0,0.0,0.0,0.0,0.0,0.0,0.0,0.0,0.0,0.0,0.0,0.0,0.0,0.0,0.0,0.0,0.0,0.0,0.0,0.0,0.0,0.0,0.0,0.0,0.0,0.0,0.0,0.0,0.0,0.0,0.0,0.0,0.0,0.0,0.0,0.0,0.0,0.0,0.0,0.0,0.0,0.0,0.0,0.0,0.0,0.0,0.0,0.0,0.0,0.0,0.0,0.0,0.0,0.0,0.0,0.0,0.0,0.0,0.0,0.0,0.0,0.0,0.0,1.7946,0.0,0.0,0.0,0.0,0.0,0.0,0.0,0.0,0.0,0.0,0.0,0.0,0.0,0.0,0.0,0.0,0.0,0.0,0.0,0.0,0.0,0.0,0.0,0.0,0.0,0.0,0.0,0.0,0.0,0.0,0.0,0.0,0.0,0.0,0.0,0.0,0.0,0.0,0.0,0.0,0.0,0.0,0.0,0.0,0.0,0.0,0.0,0.0,0.0,0.0,0.0,0.0,0.0,0.0,0.0,0.0,0.0,0.0,0.0,0.0,0.0,0.0,0.0,0.0,0.0,0.0,0.0,0.0,0.0,0.0,0.0,0.0,0.0,0.0,0.0,0.0,0.0,0.0,0.0,0.0,0.0,0.0,0.0,0.0,0.0,0.0,0.0,0.0,0.0,0.0,0.0,0.0,0.0,0.0,0.0,0.0,0.0,0.0,0.0,0.0,0.0,0.0,0.0,0.0,0.0,0.0,0.0,0.0,0.0,0.0,0.0,0.0,0.0,0.0,0.0,0.0,0.0,0.0,0.0,0.0,0.0,0.0,0.0,0.0,0.0,0.0,0.0,0.0,0.0,0.0,0.0,0.0,0.0,0.0,0.0,0.0,0.0,0.0,0.0,0.0,0.0,0.0,0.0,0.0,0.0,0.0,0.0,0.0,0.0,0.0,0.0,0.0,0.0,0.0,0.0,0.0,0.0,0.0,0.0,0.0,0.0,0.0,0.0,0.0,0.0,0.0,0.0,0.0,0.0,0.0,0.0,0.0,0.0,0.0,0.0,0.0,0.0,0.0,0.0,0.0,0.0,0.0,0.0,0.0,0.0,0.0,0.0,0.0,0.0,0.0,0.0,0.0,0.0,0.0,0.0,0.0,0.0,0.0,0.0,0.0,0.0,0.0,0.0,0.0,0.0,0.0,0.0,0.0,0.0,0.0,0.0,0.0,0.0,0.0,0.0,0.0,0.0,0.0,0.0,0.0,0.0,0.0,0.0,0.0,0.0,0.0,0.0,0.0,0.0,0.0,0.0,0.0,0.0,0.0,0.0,0.0,0.0,0.0,0.0,0.0,0.0,0.0,0.0,0.0,0.0,0.0,0.0,0.0,0.0,0.0,0.0,0.0,0.0,0.0,0.0,0.0,0.0,0.0,0.0,0.0,0.0,0.0,0.0,0.0,0.0,0.0,0.0,0.0,0.0,0.0,0.0,0.0,0.0,0.0,0.0,0.0,0.0,0.0,0.0,0.0,0.0,0.0,0.0,0.0,0.0,0.0,0.0,0.0,0.0,0.0,0.0,0.0,0.0,0.0,0.0,0.0,0.0,0.0,0.0,0.0,0.0,0.0,0.0,0.0,0.0,0.0,0.0,0.0,0.0,0.0,0.0,0.0,0.0,0.0,0.0,0.0,0.0,0.0,0.0,0.0,0.0,0.0,0.0,0.0,0.0,0.0,0.0,0.0,0.0,0.0,0.0,0.0,0.0,0.0,0.0,0.0,0.0,0.0,0.0,0.0,0.0,0.0,0.0,0.0,0.0,0.0,0.0,0.0,0.0,0.0,0.0,0.0,0.0,0.0,0.0,0.0,0.0,0.0,0.0,0.0,0.0,0.0,0.0,0.0,0.0,0.0,0.0,0.0,0.0,0.0,0.0,0.0,0.0,0.0,0.0,0.0,0.0,0.0,0.0,0.0,0.0,0.0,0.0,0.0,0.0,0.0,0.0,0.0,0.0,0.0,0.0,0.0,0.0,0.0,0.0,0.0,0.0,0.0,0.0,0.0,0.0,0.0,0.0,0.0,0.0,0.0,0.0,0.0,0.0,0.0,0.0,0.0,0.0,0.0,0.0,0.0,0.0,0.0,0.0,0.0,0.0,0.0,0.0,0.0,0.0,0.0,0.0,0.0,0.0,0.0,0.0,0.0,0.0,0.0,0.0,0.0,0.0,0.0,0.0,0.0,0.0,0.0,0.0,0.0,0.0,0.0,0.0,0.0,0.0,0.0,0.0,0.0,0.0,0.0,0.0,0.0,0.0,0.0,0.0,0.0,0.0,0.0,0.0,0.0,0.0,0.0,0.0,0.0,0.0,0.0,0.0,0.0,0.0,0.0,0.0,0.0,0.0,0.0,0.0,0.0,0.0,0.0,0.0,0.0,0.0,0.0,0.0,0.0,0.0,0.0,0.0,0.0,0.0,0.0,0.0,0.0,0.0,0.0,0.0,0.0,0.0,0.0,0.0,0.0,0.0,0.0,0.0,0.0,0.0,0.0,0.0,0.0,0.0,0.0,0.0,0.0,0.0,0.0,0.0,0.0,0.0,0.0,0.0,0.0,0.0,0.0,0.0,0.0,0.0,0.0,0.0,0.0,0.0,0.0,0.0,0.0,0.0,0.0,0.0,0.0,0.0,0.0,0.0,0.0,0.0,0.0,0.0,0.0,0.0,0.0,0.0,0.0,0.0,0.0,0.0,0.0,0.0,0.0,0.0,0.0,0.0,0.0,0.0,0.0,0.0,0.0,0.0,0.0,0.0,0.0,0.0,0.0,0.0,0.0,0.0,0.0,0.0,0.0,0.0,0.0,0.0,0.0,0.0,0.0,0.0,0.0,0.0,0.0,0.0,0.0,0.0,0.0,0.0,0.0,0.0,0.0,0.0,0.0,0.0,0.0,0.0,0.0,0.0,0.0,0.0,0.0,0.0,0.0,0.0,0.0,0.0,0.0,0.0,0.0,0.0,0.0,0.0,0.0,0.0,0.0,0.0,0.0,0.0,0.0,0.0,0.0,0.0,0.0,0.0,0.0,0.0,0.0,0.0,0.0,0.0,0.0,0.0,0.0,0.0,0.0,0.0,0.0,0.0,0.0,0.0,0.0,0.0,0.0,0.0,0.0,0.0,0.0,0.0,0.0,0.0,0.0,0.0,0.0,0.0,0.0,0.0,0.0,0.0,0.0,0.0,0.0,0.0,0.0,0.0,0.0,0.0,0.0,0.0,0.0,0.0,0.0,0.0,0.0,0.0,0.0,0.0,0.0,0.0,0.0,0.0,0.0,0.0,0.0,0.0,0.0,0.0,0.0,0.0,0.0,0.0,0.0,0.0,0.0,0.0,0.0,0.0,0.0,0.0,0.0,0.0,0.0,0.0,0.0,0.0,0.0,0.0,0.0,0.0,0.0,0.0,0.0,0.0,0.0,0.0,0.0,0.0,0.0,0.0,0.0,0.0,0.0,0.0,0.0,0.0,0.0,0.0,0.0,0.0,0.0,0.0,0.0,0.0,0.0,0.0,0.0,0.0,0.0,0.0,0.0,0.0,0.0,0.0,0.0,0.0,0.0,0.0,0.0,0.0,0.0,0.0,0.0,0.0,0.0,0.0,0.0,0.0,0.0,0.0,0.0,0.0,0.0,0.0,0.0,0.0,0.0,0.0,0.0,0.0,0.0,0.0,0.0,0.0,0.0,0.0,0.0,0.0,0.0,0.0,0.0,0.0,0.0,0.0,0.0,0.0,0.0,0.0,0.0,0.0,0.0,0.0,0.0,0.0,0.0,0.0,0.0,0.0,0.0,0.0,0.0,0.0,0.0,0.0,0.0,0.0,0.0,0.0,0.0,0.0,0.0,0.0,0.0,0.0,0.0,0.0,0.0,0.0,0.0,0.0,0.0,0.0,0.0,0.0,0.0,0.0,0.0,0.0,0.0,0.0,0.0,0.0,0.0,0.0,0.0,0.0,0.0,0.0,0.0,0.0,0.0,0.0,0.0,0.0,0.0,0.0,0.0,0.0,0.0,0.0,0.0,0.0,0.0,0.0,0.0,0.0,0.0,0.0,0.0,0.0,0.0,0.0,0.0,0.0,0.0,0.0,0.0,0.0,0.0,0.0,0.0,0.0,0.0,0.0,0.0,0.0,0.0,0.0,0.0,0.0,0.0,0.0,0.0,0.0,0.0,0.0,0.0,0.0,0.0,0.0,0.0,0.0,0.0,0.0,0.0,0.0,0.0,0.0,0.0,0.0,0.0,0.0,0.0,0.0,0.0,0.0,0.0,0.0,0.0,0.0,0.0,0.0,0.0,0.0,0.0,0.0,0.0,0.0,0.0,0.0,0.0,0.0,0.0,0.0,0.0,0.0,0.0,0.0,0.0,0.0,0.0,0.0,0.0,0.0,0.0,0.0,0.0,0.0,0.0,0.0,0.0,0.0,0.0,0.0,0.0,0.0,0.0,0.0,0.0,0.0,0.0,0.0,0.0,0.0,0.0,0.0,0.0,0.0,0.0,0.0,0.0,0.0,0.0,0.0,0.0,0.0,0.0,0.0,0.0,0.0,0.0,0.0,0.0,0.0,0.0,0.0,0.0,0.0,0.0,0.0,0.0,0.0,0.0,0.0,0.0]}]]]